[[{"header":{"parameterUnit":"m.s-1","parameterCategory":1,"la1":30.6,"la2":28.766,"lo1":-90.7593,"lo2":-88.6598,"dy":0.0162,"dx":0.0183,"nx":116,"ny":114,"refTime":"2024-03-22T00:00:00:Z","depth":0,"parameterNumber":2,"parameterNumberName":"U-component_of_WINDS"},"data":[0.0,0.0,0.0,0.0,0.0,0.0,0.0,0.0,0.0,0.0,0.0,0.0,0.0,0.0,0.0,0.0,0.0,0.0,0.0,0.0,0.0,0.0,0.0,0.0,0.0,0.0,0.0,0.0,0.0,0.0,0.0,0.0,0.0,0.0,0.0,0.0,0.0,0.0,0.0,0.0,0.0,0.0,0.0,0.0,0.0,0.0,0.0,0.0,0.0,0.0,0.0,0.0,0.0,0.0,0.0,0.0,0.0,0.0,0.0,0.0,0.0,0.0,0.0,0.0,0.0,0.0,0.0,0.0,0.0,0.0,0.0,0.0,0.0,0.0,0.0,0.0,0.0,0.0,0.0,0.0,0.0,0.0,0.0,0.0,0.0,0.0,0.0,0.0,0.0,0.0,0.0,0.0,0.0,0.0,0.0,0.0,0.0,0.0,0.0,0.0,0.0,0.0,0.0,0.0,0.0,0.0,0.0,0.0,0.0,0.0,0.0,0.0,0.0,0.0,0.0,0.0,0.0,0.0,0.0,0.0,0.0,0.0,0.0,0.0,0.0,0.0,0.0,0.0,0.0,0.0,0.0,0.0,0.0,0.0,0.0,0.0,0.0,0.0,0.0,0.0,0.0,0.0,0.0,0.0,0.0,0.0,0.0,0.0,0.0,0.0,0.0,0.0,0.0,0.0,0.0,0.0,0.0,0.0,0.0,0.0,0.0,0.0,0.0,0.0,0.0,0.0,0.0,0.0,0.0,0.0,0.0,0.0,0.0,0.0,0.0,0.0,0.0,0.0,0.0,0.0,0.0,0.0,0.0,0.0,0.0,0.0,0.0,0.0,0.0,0.0,0.0,0.0,0.0,0.0,0.0,0.0,0.0,0.0,0.0,0.0,0.0,0.0,0.0,0.0,0.0,0.0,0.0,0.0,0.0,0.0,0.0,0.0,0.0,0.0,0.0,0.0,0.0,0.0,0.0,0.0,0.0,0.0,0.0,0.0,0.0,0.0,0.0,0.0,0.0,0.0,0.0,0.0,0.0,0.0,0.0,0.0,0.0,0.0,0.0,0.0,0.0,0.0,0.0,0.0,0.0,0.0,0.0,0.0,0.0,0.0,0.0,0.0,0.0,0.0,0.0,0.0,0.0,0.0,0.0,0.0,0.0,0.0,0.0,0.0,0.0,0.0,0.0,0.0,0.0,0.0,0.0,0.0,0.0,0.0,0.0,0.0,0.0,0.0,0.0,0.0,0.0,0.0,0.0,0.0,0.0,0.0,0.0,0.0,0.0,0.0,0.0,0.0,0.0,0.0,0.0,0.0,0.0,0.0,0.0,0.0,0.0,0.0,0.0,0.0,0.0,0.0,0.0,0.0,0.0,0.0,0.0,0.0,0.0,0.0,0.0,0.0,0.0,0.0,0.0,0.0,0.0,0.0,0.0,0.0,0.0,0.0,0.0,0.0,0.0,0.0,0.0,0.0,0.0,0.0,0.0,0.0,0.0,0.0,0.0,0.0,0.0,0.0,0.0,0.0,0.0,0.0,0.0,0.0,0.0,0.0,0.0,0.0,0.0,0.0,0.0,0.0,0.0,0.0,0.0,0.0,0.0,0.0,0.0,0.0,0.0,0.0,0.0,0.0,0.0,0.0,0.0,0.0,0.0,0.0,0.0,0.0,0.0,0.0,0.0,0.0,0.0,0.0,0.0,0.0,0.0,0.0,0.0,0.0,0.0,0.0,0.0,0.0,0.0,0.0,0.0,0.0,0.0,0.0,0.0,0.0,0.0,0.0,0.0,0.0,0.0,0.0,0.0,0.0,0.0,0.0,0.0,0.0,0.0,0.0,0.0,0.0,0.0,0.0,0.0,0.0,0.0,0.0,0.0,0.0,0.0,0.0,0.0,0.0,0.0,0.0,0.0,0.0,0.0,0.0,0.0,0.0,0.0,0.0,0.0,0.0,0.0,0.0,0.0,0.0,0.0,0.0,0.0,0.0,0.0,0.0,0.0,0.0,0.0,0.0,0.0,0.0,0.0,0.0,0.0,0.0,0.0,0.0,0.0,0.0,0.0,0.0,0.0,0.0,0.0,0.0,0.0,0.0,0.0,0.0,0.0,0.0,0.0,0.0,0.0,0.0,0.0,0.0,0.0,0.0,0.0,0.0,0.0,0.0,0.0,0.0,0.0,0.0,0.0,0.0,0.0,0.0,0.0,0.0,0.0,0.0,0.0,0.0,0.0,0.0,0.0,0.0,0.0,0.0,0.0,0.0,0.0,0.0,0.0,0.0,0.0,0.0,0.0,0.0,0.0,0.0,0.0,0.0,0.0,0.0,0.0,0.0,0.0,0.0,0.0,0.0,0.0,0.0,0.0,0.0,0.0,0.0,0.0,0.0,0.0,0.0,0.0,0.0,0.0,0.0,0.0,0.0,0.0,0.0,0.0,0.0,0.0,0.0,0.0,0.0,0.0,0.0,0.0,0.0,0.0,0.0,0.0,0.0,0.0,0.0,0.0,0.0,0.0,0.0,0.0,0.0,0.0,0.0,0.0,0.0,0.0,0.0,0.0,0.0,0.0,0.0,0.0,0.0,0.0,0.0,0.0,0.0,0.0,0.0,0.0,0.0,0.0,0.0,0.0,0.0,0.0,0.0,0.0,0.0,0.0,0.0,0.0,0.0,0.0,0.0,0.0,0.0,0.0,0.0,0.0,0.0,0.0,0.0,0.0,0.0,0.0,0.0,0.0,0.0,0.0,0.0,0.0,0.0,0.0,0.0,0.0,0.0,0.0,0.0,0.0,0.0,0.0,0.0,0.0,0.0,0.0,0.0,0.0,0.0,0.0,0.0,0.0,0.0,0.0,0.0,0.0,0.0,0.0,0.0,0.0,0.0,0.0,0.0,0.0,0.0,0.0,0.0,0.0,0.0,0.0,0.0,0.0,0.0,0.0,0.0,0.0,0.0,0.0,0.0,0.0,0.0,0.0,0.0,0.0,0.0,0.0,0.0,0.0,0.0,0.0,0.0,0.0,0.0,0.0,0.0,0.0,0.0,0.0,0.0,0.0,0.0,0.0,0.0,0.0,0.0,0.0,0.0,0.0,0.0,0.0,0.0,0.0,0.0,0.0,0.0,0.0,0.0,0.0,0.0,0.0,0.0,0.0,0.0,0.0,0.0,0.0,0.0,0.0,0.0,0.0,0.0,0.0,0.0,0.0,0.0,0.0,0.0,0.0,0.0,0.0,0.0,0.0,0.0,0.0,0.0,0.0,0.0,0.0,0.0,0.0,0.0,0.0,0.0,0.0,0.0,0.0,0.0,0.0,0.0,0.0,0.0,0.0,0.0,0.0,0.0,0.0,0.0,0.0,0.0,0.0,0.0,0.0,0.0,0.0,0.0,0.0,0.0,0.0,0.0,0.0,0.0,0.0,0.0,0.0,0.0,0.0,0.0,0.0,0.0,0.0,0.0,0.0,0.0,0.0,0.0,0.0,0.0,0.0,0.0,0.0,0.0,0.0,0.0,0.0,0.0,0.0,0.0,0.0,0.0,0.0,0.0,0.0,0.0,0.0,0.0,0.0,0.0,0.0,0.0,0.0,0.0,0.0,0.0,0.0,0.0,0.0,0.0,0.0,0.0,0.0,0.0,0.0,0.0,0.0,0.0,0.0,0.0,0.0,0.0,0.0,0.0,0.0,0.0,0.0,0.0,0.0,0.0,0.0,0.0,0.0,0.0,0.0,0.0,0.0,0.0,0.0,0.0,0.0,0.0,0.0,0.0,0.0,0.0,0.0,0.0,0.0,0.0,0.0,0.0,0.0,0.0,0.0,0.0,0.0,0.0,0.0,0.0,0.0,0.0,0.0,0.0,0.0,0.0,0.0,0.0,0.0,0.0,0.0,0.0,0.0,0.0,0.0,0.0,0.0,0.0,0.0,0.0,0.0,0.0,0.0,0.0,0.0,0.0,0.0,0.0,0.0,0.0,0.0,0.0,0.0,0.0,0.0,0.0,0.0,0.0,0.0,0.0,0.0,0.0,0.0,0.0,0.0,0.0,0.0,0.0,0.0,0.0,0.0,0.0,0.0,0.0,0.0,0.0,0.0,0.0,0.0,0.0,0.0,0.0,0.0,0.0,0.0,0.0,0.0,0.0,0.0,0.0,0.0,0.0,0.0,0.0,0.0,0.0,0.0,0.0,0.0,0.0,0.0,0.0,0.0,0.0,0.0,0.0,0.0,0.0,0.0,0.0,0.0,0.0,0.0,0.0,0.0,0.0,0.0,0.0,0.0,0.0,0.0,0.0,0.0,0.0,0.0,0.0,0.0,0.0,0.0,0.0,0.0,0.0,0.0,0.0,0.0,0.0,0.0,0.0,0.0,0.0,0.0,0.0,0.0,0.0,0.0,0.0,0.0,0.0,0.0,0.0,0.0,0.0,0.0,0.0,0.0,0.0,0.0,0.0,0.0,0.0,0.0,0.0,0.0,0.0,0.0,0.0,0.0,0.0,0.0,0.0,0.0,0.0,0.0,0.0,0.0,0.0,0.0,0.0,0.0,0.0,0.0,0.0,0.0,0.0,0.0,0.0,0.0,0.0,0.0,0.0,0.0,0.0,0.0,0.0,0.0,0.0,0.0,0.0,0.0,0.0,0.0,0.0,0.0,0.0,0.0,0.0,0.0,0.0,0.0,0.0,0.0,0.0,0.0,0.0,0.0,0.0,0.0,0.0,0.0,0.0,0.0,0.0,0.0,0.0,0.0,0.0,0.0,0.0,0.0,0.0,0.0,0.0,0.0,0.0,0.0,0.0,0.0,0.0,0.0,0.0,0.0,0.0,0.0,0.0,0.0,0.0,0.0,0.0,0.0,0.0,0.0,0.0,0.0,0.0,0.0,0.0,0.0,0.0,0.0,0.0,0.0,0.0,0.0,0.0,0.0,0.0,0.0,0.0,0.0,0.0,0.0,0.0,0.0,0.0,0.0,0.0,0.0,0.0,0.0,0.0,0.0,0.0,0.0,0.0,0.0,0.0,0.0,0.0,0.0,0.0,0.0,0.0,0.0,0.0,0.0,0.0,0.0,0.0,0.0,0.0,0.0,0.0,0.0,0.0,0.0,0.0,0.0,0.0,0.0,0.0,0.0,0.0,0.0,0.0,0.0,0.0,0.0,0.0,0.0,0.0,0.0,0.0,0.0,0.0,0.0,0.0,0.0,0.0,0.0,0.0,0.0,0.0,0.0,0.0,0.0,0.0,0.0,0.0,0.0,0.0,0.0,0.0,0.0,0.0,0.0,0.0,0.0,0.0,0.0,0.0,0.0,0.0,0.0,0.0,0.0,0.0,0.0,0.0,0.0,0.0,0.0,0.0,0.0,0.0,0.0,0.0,0.0,0.0,0.0,0.0,0.0,0.0,0.0,0.0,0.0,0.0,0.0,0.0,0.0,0.0,0.0,0.0,0.0,0.0,0.0,0.0,0.0,0.0,0.0,0.0,0.0,0.0,0.0,0.0,0.0,0.0,0.0,0.0,0.0,0.0,0.0,0.0,0.0,0.0,0.0,0.0,0.0,0.0,0.0,0.0,0.0,0.0,0.0,0.0,0.0,0.0,0.0,0.0,0.0,0.0,0.0,0.0,0.0,0.0,0.0,0.0,0.0,0.0,0.0,0.0,0.0,0.0,0.0,0.0,0.0,0.0,0.0,0.0,0.0,0.0,0.0,0.0,0.0,0.0,0.0,0.0,0.0,0.0,0.0,0.0,0.0,0.0,0.0,0.0,0.0,0.0,0.0,0.0,0.0,0.0,0.0,0.0,0.0,0.0,0.0,0.0,0.0,0.0,0.0,0.0,0.0,0.0,0.0,0.0,0.0,0.0,0.0,0.0,0.0,0.0,0.0,0.0,0.0,0.0,0.0,0.0,0.0,0.0,0.0,0.0,0.0,0.0,0.0,0.0,0.0,0.0,0.0,0.0,0.0,0.0,0.0,0.0,0.0,0.0,0.0,0.0,0.0,0.0,0.0,0.0,0.0,0.0,0.0,0.0,0.0,0.0,0.0,0.0,0.0,0.0,0.0,0.0,0.0,0.0,0.0,0.0,0.0,0.0,0.0,0.0,0.0,0.0,0.0,0.0,3.8449,0.0,0.0,0.0,0.0,0.0,0.0,0.0,0.0,0.0,0.0,0.0,0.0,0.0,0.0,0.0,0.0,0.0,0.0,0.0,0.0,0.0,0.0,0.0,0.0,0.0,0.0,0.0,0.0,0.0,0.0,0.0,0.0,0.0,0.0,0.0,5.0174,5.0513,5.0328,4.962,5.0328,5.1005,5.1559,5.1867,5.079,4.8573,0.0,0.0,0.0,0.0,0.0,0.0,0.0,0.0,0.0,0.0,0.0,0.0,0.0,0.0,0.0,0.0,0.0,0.0,0.0,0.0,0.0,0.0,0.0,0.0,0.0,0.0,0.0,0.0,0.0,0.0,0.0,0.0,0.0,0.0,0.0,0.0,0.0,0.0,0.0,0.0,0.0,0.0,0.0,0.0,0.0,0.0,0.0,0.0,0.0,0.0,0.0,0.0,0.0,0.0,0.0,0.0,0.0,0.0,0.0,0.0,0.0,0.0,0.0,0.0,0.0,0.0,0.0,0.0,0.0,0.0,0.0,4.0305,0.0,0.0,0.0,0.0,0.0,0.0,0.0,0.0,0.0,0.0,0.0,0.0,0.0,0.0,0.0,0.0,0.0,0.0,0.0,0.0,0.0,0.0,0.0,4.6498,4.662,4.6488,4.7027,4.7476,4.7865,4.8583,4.9281,5.002,5.0574,5.0882,5.0882,5.0974,5.0944,5.0697,5.1405,5.3191,5.5992,5.75,5.6084,5.2298,5.1097,0.0,0.0,0.0,0.0,0.0,0.0,0.0,0.0,0.0,0.0,0.0,0.0,0.0,0.0,0.0,0.0,0.0,0.0,0.0,0.0,0.0,0.0,0.0,0.0,0.0,0.0,0.0,0.0,0.0,0.0,0.0,0.0,0.0,0.0,0.0,0.0,0.0,0.0,0.0,0.0,0.0,0.0,0.0,0.0,0.0,0.0,0.0,0.0,0.0,0.0,0.0,0.0,0.0,0.0,0.0,0.0,0.0,0.0,0.0,0.0,0.0,0.0,0.0,4.642,4.7626,4.8799,4.9401,4.9505,4.9087,4.6316,4.3781,4.1638,4.1716,0.0,0.0,0.0,0.0,0.0,0.0,0.0,0.0,0.0,0.0,0.0,0.0,0.0,0.0,0.0,0.0,0.0,0.0,0.0,0.0,0.0,4.7569,4.8275,4.8275,4.9466,5.0205,5.0297,5.0359,5.0728,5.1405,5.1528,5.1559,5.1559,5.2144,5.1867,5.0697,5.4237,5.7654,6.0917,6.2887,6.3502,6.2641,5.67,5.5037,5.6423,0.0,0.0,0.0,0.0,0.0,0.0,0.0,0.0,0.0,0.0,0.0,0.0,0.0,0.0,0.0,0.0,0.0,0.0,0.0,0.0,0.0,0.0,0.0,0.0,0.0,0.0,0.0,0.0,0.0,0.0,0.0,0.0,0.0,0.0,0.0,0.0,0.0,0.0,0.0,0.0,0.0,4.02,4.0801,0.0,0.0,0.0,0.0,0.0,0.0,0.0,0.0,0.0,0.0,0.0,0.0,0.0,4.5193,4.6783,4.791,4.835,4.8158,5.0011,5.0995,5.1178,5.1779,5.2537,5.34,5.3478,0.0,4.6264,4.433,0.0,0.0,0.0,0.0,0.0,0.0,0.0,0.0,0.0,0.0,0.0,0.0,0.0,0.0,0.0,0.0,0.0,0.0,0.0,0.0,0.0,5.0205,5.1652,5.2021,5.5407,5.6303,5.3341,5.4854,5.4669,5.1982,5.214,5.2452,5.2821,5.239,5.2975,5.4668,5.9532,6.3225,6.5842,6.7904,6.9074,6.9289,6.5503,6.2825,6.0948,5.7248,0.0,0.0,0.0,0.0,0.0,0.0,0.0,0.0,0.0,0.0,0.0,0.0,0.0,0.0,0.0,0.0,0.0,0.0,0.0,0.0,0.0,0.0,0.0,0.0,0.0,0.0,0.0,0.0,0.0,0.0,0.0,0.0,0.0,0.0,0.0,0.0,0.0,0.0,0.0,4.0389,4.1873,4.0514,4.2188,4.258,0.0,0.0,0.0,0.0,0.0,0.0,0.0,0.0,0.0,4.7392,4.8158,4.8989,4.9959,5.1784,5.2905,5.3296,5.4811,5.5987,5.6954,5.7216,5.7608,5.8104,5.8366,5.6641,5.3347,4.9714,4.6887,4.4582,0.0,0.0,0.0,0.0,3.5781,3.4053,0.0,0.0,0.0,0.0,0.0,0.0,0.0,0.0,0.0,0.0,0.0,0.0,5.0759,5.356,5.5838,5.7223,6.1009,6.176,5.7886,5.8646,5.7567,5.3678,5.3312,5.3468,5.396,5.3837,5.593,6.0363,6.5134,6.8735,7.1259,7.3353,7.4553,7.5015,7.4153,7.1044,6.618,6.2212,5.895,5.6194,0.0,0.0,0.0,0.0,0.0,0.0,0.0,0.0,0.0,0.0,0.0,0.0,0.0,0.0,0.0,0.0,0.0,0.0,0.0,0.0,0.0,0.0,0.0,0.0,0.0,0.0,0.0,0.0,0.0,0.0,0.0,0.0,0.0,0.0,0.0,0.0,0.0,4.2605,4.3964,4.1246,4.4382,4.537,0.0,0.0,0.0,0.0,0.0,0.0,4.6682,4.8257,4.9955,5.1814,5.2828,5.3557,5.4236,5.5987,5.7294,5.8131,5.8993,6.0169,6.1555,6.1555,6.1633,6.179,6.179,6.0953,5.9255,5.4471,5.0352,4.6781,4.4625,4.1992,3.946,3.959,3.8365,3.6661,0.0,0.0,0.0,0.0,0.0,0.0,0.0,0.0,0.0,0.0,0.0,5.0082,5.4052,5.7469,6.0794,6.4087,6.4641,6.4672,6.4395,6.0301,5.7746,5.7469,5.5653,5.4637,5.4668,5.7777,6.2025,6.7412,7.0274,7.3691,7.76,7.9663,8.0617,8.0679,8.1263,7.8524,7.3045,6.6427,6.3056,6.1645,5.6347,0.0,0.0,0.0,0.0,0.0,0.0,0.0,0.0,0.0,0.0,0.0,0.0,0.0,0.0,0.0,0.0,0.0,0.0,0.0,0.0,0.0,0.0,0.0,0.0,0.0,0.0,0.0,0.0,0.0,0.0,0.0,0.0,0.0,0.0,0.0,0.0,0.0,0.0,4.4748,4.8982,0.0,0.0,0.0,0.0,4.7458,4.9187,5.0917,5.2093,5.3269,5.5177,5.8,5.8653,5.9777,6.1424,6.1555,6.1659,6.1711,6.1764,6.213,6.2731,6.2731,6.3045,6.3541,6.3541,6.3201,6.2208,5.7059,5.3541,5.1155,4.8417,4.6037,4.3894,4.3017,4.1776,4.0402,0.0,0.0,0.0,0.0,0.0,0.0,0.0,0.0,4.6001,4.6671,4.9839,5.3407,5.6977,6.2887,6.7917,7.1136,7.4184,7.4772,7.1811,6.7835,6.432,6.1371,5.7906,5.6638,5.7962,6.1748,6.5719,6.9843,7.4368,7.7724,8.0032,8.2064,8.3018,8.3049,8.3726,8.2956,8.074,7.4368,6.9997,6.6805,6.1261,5.6861,0.0,0.0,0.0,0.0,0.0,0.0,0.0,0.0,0.0,0.0,0.0,0.0,0.0,0.0,0.0,0.0,0.0,0.0,0.0,0.0,0.0,0.0,0.0,0.0,0.0,0.0,0.0,0.0,0.0,0.0,0.0,0.0,0.0,0.0,0.0,0.0,0.0,4.9244,5.3426,0.0,5.1158,5.1309,5.1544,5.1419,5.3112,5.4916,5.6824,5.8026,5.962,6.1764,6.2391,6.2992,6.362,6.3985,6.4168,6.4168,6.4168,6.4482,6.5057,6.5057,6.5162,6.5345,6.3991,6.2974,6.1957,5.8544,5.5532,5.2959,5.0229,4.7167,4.4036,4.3472,4.2767,4.2,0.0,0.0,0.0,0.0,0.0,0.0,0.0,0.0,4.6802,4.7758,5.2063,5.6915,6.1506,6.8623,7.4452,7.8124,8.0648,8.0569,7.6845,7.1782,6.7403,6.3904,6.0589,5.9778,6.1809,6.6304,7.0398,7.3999,7.8339,8.1356,8.3172,8.4495,8.5388,8.585,8.6527,8.6712,8.6219,8.2187,7.7169,7.1506,6.619,6.2089,5.8644,0.0,0.0,0.0,0.0,0.0,0.0,0.0,0.0,0.0,0.0,0.0,0.0,0.0,0.0,0.0,0.0,0.0,0.0,0.0,0.0,0.0,0.0,0.0,0.0,0.0,0.0,0.0,0.0,0.0,0.0,0.0,0.0,0.0,0.0,0.0,5.3504,5.3086,5.732,5.8967,5.5726,5.5935,5.6301,5.6301,5.7686,5.9359,6.1293,6.213,6.3254,6.477,6.5188,6.5397,6.5423,6.5763,6.5946,6.5946,6.5946,6.6155,6.6547,6.6547,6.6547,6.6386,6.4513,6.3299,6.2258,5.9868,5.7204,5.4348,5.1803,4.8629,4.5468,4.4873,4.444,4.4211,0.0,0.0,0.0,0.0,0.0,0.0,0.0,4.6589,4.7859,4.943,5.4253,6.0346,6.7714,7.4267,8.0155,8.4896,8.3387,8.1325,7.9293,7.1536,6.6365,6.4949,6.3595,6.3903,6.615,7.1413,7.6123,8.0217,8.2279,8.4649,8.7235,8.7327,8.8035,8.9328,9.0005,8.9944,8.9328,8.9297,8.4342,7.6061,7.1136,6.7535,6.4672,0.0,0.0,0.0,0.0,0.0,0.0,0.0,0.0,0.0,0.0,0.0,0.0,0.0,0.0,0.0,0.0,0.0,0.0,0.0,0.0,0.0,0.0,0.0,0.0,0.0,0.0,0.0,0.0,0.0,0.0,0.0,0.0,0.0,4.7597,5.3478,5.7373,5.6327,6.0718,6.2731,5.9908,6.1189,6.2182,6.2156,6.3201,6.4325,6.5449,6.5528,6.6024,6.7148,6.7174,6.7174,6.72,6.7148,6.7148,6.7148,6.7148,6.7148,6.7148,6.7148,6.7148,6.6985,6.5097,6.3911,6.3194,6.0771,5.8257,5.5534,5.3183,5.0862,4.8831,4.7546,4.7051,4.6906,0.0,0.0,0.0,0.0,0.0,0.0,0.0,4.6783,4.7943,4.9607,5.6385,6.3161,6.8941,7.7227,8.399,8.8224,8.6017,8.3491,8.1673,7.375,6.7843,6.5011,6.4057,6.6396,7.2368,7.5415,7.8924,8.2987,8.6035,8.7912,8.8682,9.0159,9.1052,9.1421,9.2099,9.2283,9.2068,9.1262,8.9391,8.6373,7.8616,7.3322,6.9536,0.0,0.0,0.0,0.0,0.0,0.0,0.0,0.0,0.0,0.0,0.0,0.0,0.0,0.0,0.0,0.0,0.0,0.0,0.0,0.0,0.0,0.0,0.0,0.0,0.0,0.0,0.0,0.0,0.0,0.0,0.0,5.0786,5.3556,5.3556,5.7373,6.0823,6.2574,6.5528,6.6939,6.5737,6.6416,6.6782,6.6364,6.7017,6.7749,6.8481,6.8507,6.8664,6.8978,6.8978,6.8795,6.8377,6.8377,6.835,6.835,6.835,6.835,6.835,6.835,6.766,6.6238,6.3915,6.1903,5.9993,5.7588,5.5794,5.4423,5.3203,5.1366,4.9319,4.8004,4.7299,4.701,0.0,0.0,0.0,0.0,0.0,0.0,0.0,4.7363,4.8475,5.1061,5.8565,6.5859,7.1601,7.9809,8.5941,8.8856,8.5876,8.2653,7.9759,7.3194,6.8458,6.6016,6.8372,7.2121,7.7046,8.0525,8.3849,8.7081,8.9359,9.0775,9.136,9.2807,9.3668,9.3976,9.49,9.5177,9.4869,9.4176,9.3471,9.209,8.6078,8.1078,7.666,7.1382,6.8268,6.6113,6.3163,6.2354,6.1971,5.7243,0.0,0.0,0.0,0.0,0.0,0.0,0.0,0.0,0.0,0.0,0.0,0.0,0.0,0.0,0.0,0.0,0.0,0.0,0.0,0.0,0.0,0.0,0.0,0.0,5.57,5.9045,6.0718,6.2313,6.4247,6.6887,6.8612,6.9527,6.9422,6.9527,6.9527,6.9422,6.9527,6.9736,7.0049,7.0076,7.0076,7.0076,7.0076,6.9919,6.9579,6.9318,6.9318,6.9579,6.9318,6.9344,6.9579,6.8422,6.7418,0.0,6.2961,6.0697,5.8945,5.6574,5.5111,0.0,0.0,0.0,0.0,0.0,4.7734,4.703,0.0,0.0,0.0,0.0,0.0,0.0,0.0,4.7904,4.9334,5.3139,6.0524,6.7849,7.4329,8.122,8.5971,8.7547,8.3968,7.9816,7.5287,7.1077,6.8741,6.8539,7.4887,7.9232,8.111,8.6127,8.9728,9.1668,9.2499,9.3545,9.4746,9.5423,9.5875,9.6489,9.7718,9.7903,9.735,9.735,9.6311,9.4757,9.2834,8.9172,8.4289,7.8868,7.591,7.4051,7.0814,6.782,6.5037,6.2587,0.0,0.0,0.0,0.0,0.0,0.0,0.0,0.0,0.0,0.0,0.0,0.0,0.0,0.0,0.0,0.0,0.0,0.0,0.0,0.0,0.0,0.0,0.0,0.0,6.0666,6.4038,6.8011,6.7749,6.7828,6.9657,7.0468,7.1069,7.1539,7.1226,7.1147,7.1565,7.12,7.0938,7.0781,0.0,0.0,0.0,0.0,7.0677,7.0677,7.0102,7.0102,7.0677,7.0076,7.0076,7.0572,6.7984,6.684,6.6267,6.2124,5.9815,5.9109,5.6906,5.5482,5.4609,5.3472,5.2347,5.1295,4.9617,4.8234,4.7113,0.0,0.0,0.0,0.0,0.0,0.0,0.0,4.7486,4.9102,5.3965,5.9937,6.6067,7.1978,7.8458,8.3311,8.5954,8.1819,7.7362,7.3308,6.9881,7.037,7.5326,7.8789,8.2679,8.7358,9.059,9.296,9.45,9.6254,9.7104,9.7046,9.772,9.7918,9.7527,9.7771,9.7831,9.771,9.7365,9.7214,9.7082,9.5488,9.169,8.6882,8.4092,8.1402,7.8639,7.5866,7.5007,7.4316,6.9381,6.812,6.7638,6.2526,5.8354,0.0,0.0,0.0,0.0,0.0,0.0,0.0,0.0,0.0,0.0,0.0,0.0,0.0,0.0,0.0,0.0,0.0,0.0,0.0,6.0509,6.4325,6.8063,7.1618,7.235,7.2167,7.12,7.1984,7.2663,7.2768,7.3134,7.3186,7.2794,7.3134,7.2951,7.201,7.2376,7.2193,7.1278,7.1252,7.1252,7.1252,7.0703,7.0703,7.1252,0.0,0.0,7.0572,6.7984,6.6117,6.4457,6.1188,5.8593,5.6725,5.5903,5.5176,5.4521,5.239,5.0695,4.9526,4.9168,4.8524,4.7568,0.0,0.0,0.0,0.0,0.0,0.0,0.0,4.7552,4.8952,5.3175,5.8458,6.368,6.8435,7.3172,7.6559,7.7935,7.4686,7.2261,7.1256,7.2296,7.5409,8.1035,8.4625,8.8318,9.2367,9.4729,9.6428,9.7301,9.8487,9.8809,9.8502,9.8999,9.9283,9.9313,9.9632,9.9936,9.9906,9.9219,9.9068,9.8977,9.7483,9.5286,9.2278,8.9299,8.6922,8.4783,8.28,8.1091,7.9357,7.6534,7.4571,7.2559,6.902,6.5113,6.0862,0.0,0.0,0.0,0.0,0.0,0.0,0.0,0.0,0.0,0.0,0.0,0.0,0.0,0.0,5.191,5.4236,0.0,6.1476,6.5214,6.8272,7.1043,7.3656,7.4493,7.4441,7.3291,7.3892,7.4414,7.4414,7.4676,7.4728,7.4441,7.4441,7.4075,7.3212,7.3421,7.3291,7.2716,7.2716,7.2716,7.2716,7.214,7.214,7.2689,7.1853,7.1592,7.1801,6.8671,6.6716,6.5759,6.1671,5.9317,5.8164,5.639,5.515,5.4211,5.2538,5.1181,5.0414,5.0011,4.9001,4.8003,0.0,0.0,0.0,0.0,0.0,0.0,0.0,4.7624,4.8653,5.2175,5.6564,6.0756,6.4393,6.7487,6.9272,6.8904,6.8122,6.8456,7.0486,7.5728,8.0941,8.5789,9.0365,9.406,9.6405,9.8297,9.9538,10.0158,10.0363,10.0333,10.0016,10.0386,10.0725,10.0933,10.1668,10.1972,10.1941,10.1246,10.0793,10.0341,9.9258,9.8628,9.791,9.4469,9.2015,9.0249,8.8933,8.5671,8.1991,8.211,7.9238,7.5467,7.454,7.1948,6.7862,6.1251,5.8856,0.0,0.0,0.0,0.0,0.0,0.0,0.0,0.0,4.9969,5.1286,5.2707,5.4656,5.7268,6.0744,6.3384,6.6233,6.9919,7.1905,7.3526,7.5172,7.5983,7.6192,7.5643,7.5852,7.6061,7.6061,7.6061,7.6009,7.5904,7.5486,7.4937,7.4232,7.4179,7.4127,7.3996,7.3996,7.4075,7.4179,7.3578,7.3578,7.4179,7.3003,7.2689,7.3055,6.9332,6.7668,6.7417,6.2492,5.9998,5.9318,5.7017,5.5281,5.4099,5.3003,5.2379,5.1911,5.075,4.963,4.8459,0.0,0.0,0.0,0.0,0.0,0.0,0.0,0.0,4.806,5.2081,5.4052,5.6452,5.9825,6.2807,6.4365,6.3759,6.7819,7.1117,7.2953,7.877,8.4427,8.956,9.4032,9.7356,9.9359,10.0756,10.2061,10.3457,10.3336,10.3153,10.2756,10.2877,10.2567,10.2256,10.2406,10.2436,10.2406,10.1716,10.1416,10.1386,10.1267,10.1052,10.0902,9.9256,9.6354,9.2972,9.1656,8.7496,8.2739,8.3307,8.1212,7.843,7.8908,7.7532,7.4277,6.692,6.2606,5.8668,5.1467,4.794,4.7027,5.0233,4.9743,4.9811,0.0,5.6416,5.681,5.8848,6.1398,6.3829,6.5318,6.7906,7.0624,7.3134,7.4545,7.5774,7.7002,7.81,7.857,7.7995,7.7551,7.7263,7.7263,7.7263,7.7054,7.6558,7.6453,7.5957,7.4859,7.4807,7.4571,7.4022,7.3996,7.4258,7.4807,7.4205,7.4205,7.478,7.3578,7.3055,7.3055,6.9332,6.7668,6.7392,6.2066,5.8571,5.6588,5.5859,5.5155,5.4475,5.3523,5.2868,5.2224,5.086,4.9763,4.8976,0.0,0.0,0.0,0.0,0.0,0.0,0.0,0.0,0.0,5.0365,5.181,5.3381,5.531,5.6688,5.7132,5.6464,6.2403,6.8031,7.2463,7.995,8.6958,9.3469,9.6309,9.8924,10.1125,10.2274,10.303,10.3943,10.3938,10.3938,10.3575,10.341,10.3433,10.3433,10.3635,10.3595,10.3595,10.3296,10.3176,10.3176,10.2787,10.2398,10.189,10.0184,9.6803,9.2793,9.1087,8.7646,0.0,8.3337,8.1482,7.9567,8.0614,7.8354,7.4262,6.8515,6.4122,5.9818,5.3493,5.0948,5.0511,5.2233,5.3527,5.5363,5.9255,6.0891,6.2097,6.4273,6.6521,6.8716,7.0886,7.282,7.4624,7.6244,7.7185,7.8021,7.8832,7.9093,7.8832,7.7917,7.7603,7.7734,7.8387,7.8466,7.8361,7.8126,7.7786,7.7107,7.5957,7.5904,7.5617,7.5016,7.499,7.512,7.5382,7.512,7.4963,7.4885,7.4049,7.3447,7.3055,7.0436,6.8412,6.649,6.3153,6.0465,5.8458,5.6637,5.5679,5.5439,5.3801,5.3123,5.2712,5.1339,5.0259,4.9431,0.0,0.0,0.0,0.0,0.0,0.0,0.0,0.0,0.0,0.0,4.9728,5.0753,5.1576,5.1758,5.1698,5.1478,5.775,6.4365,7.0827,7.9332,8.7456,9.4925,9.7699,10.0157,10.2537,10.362,10.426,10.4664,10.4953,10.5043,10.4966,10.4484,10.4624,10.5365,10.5104,10.5091,10.5211,10.5002,10.4822,10.4643,10.4343,10.3535,10.2219,9.9855,9.5965,9.1506,8.9515,8.5888,8.1961,8.0851,7.8998,7.7307,7.8827,7.6707,7.2744,6.8111,6.3304,5.8774,5.4773,5.3467,5.376,5.5232,5.7503,6.0274,6.3384,6.5318,6.7122,6.9605,7.1382,7.3186,7.5434,7.6793,7.7839,7.8649,7.9276,7.9747,7.9982,7.9407,7.844,7.7133,7.6558,7.6715,7.7891,7.8414,7.8832,7.9145,7.8649,7.7969,7.7133,7.6793,7.6427,7.5983,7.58,7.5721,7.5721,7.5721,7.5512,7.512,7.4362,7.3787,7.3291,7.1435,6.8871,6.5839,6.4604,6.2599,6.011,5.7985,5.6747,5.5847,5.4101,5.3421,5.3178,5.1819,5.0715,4.9887,0.0,0.0,0.0,0.0,0.0,0.0,0.0,0.0,0.0,0.0,0.0,0.0,0.0,4.9261,4.9604,5.0879,5.5651,6.1459,6.7967,7.6864,8.5103,9.2374,9.767,10.1381,10.3296,10.5301,10.6288,10.6288,10.6947,10.7246,10.7246,10.6588,10.7007,10.8144,10.6887,10.6707,10.7276,10.6618,10.5989,10.5451,10.6109,10.4792,10.2099,9.8808,9.4319,8.9412,8.7065,8.1657,7.5459,7.4797,7.2671,7.0563,7.2238,7.2449,7.108,6.6061,5.9751,5.4551,5.4967,5.468,5.5363,6.0184,6.1668,6.3201,6.8298,7.0363,7.201,7.4885,7.6427,7.7446,7.81,7.9145,7.993,7.9956,8.0452,8.0635,8.0113,7.9041,7.7708,7.5983,7.4258,7.3709,7.4911,7.6532,7.7969,7.9093,7.8649,7.8309,7.8257,7.7211,7.661,7.6584,7.6009,7.5721,7.5721,7.5721,7.5695,7.5669,7.4545,7.3996,7.3892,7.1618,6.8871,6.6011,6.6011,6.3589,5.9605,5.9582,5.8075,5.5869,5.4444,5.3889,5.3645,5.2298,5.1191,5.0404,0.0,0.0,0.0,0.0,0.0,0.0,0.0,0.0,0.0,0.0,0.0,0.0,0.0,0.0,0.0,0.0,5.4127,5.9199,6.4688,7.3353,8.0999,8.7077,9.4139,9.8808,10.0782,10.3595,10.551,10.6408,10.6618,10.6707,10.6707,10.6977,10.7306,10.7695,10.7695,10.7874,10.7994,10.7306,10.6707,10.5989,10.4912,10.3416,10.1411,9.767,9.2033,8.5413,0.0,7.594,7.1438,6.9712,6.7945,6.6608,6.8135,6.7082,6.4364,5.9572,5.7383,5.6609,5.6609,5.8982,6.2089,6.5057,6.7704,7.0311,7.4022,7.5434,7.6375,7.7734,7.6819,7.5826,7.6009,7.6035,7.6427,7.7577,7.9198,8.0374,8.0557,8.0269,7.8518,7.4493,7.4179,7.3709,7.2193,7.3578,7.5695,7.8414,7.8414,7.8309,7.8309,7.8309,7.7969,7.7211,7.6976,7.6688,7.6323,7.6323,7.593,7.5172,7.397,7.3003,7.2245,7.1095,6.9813,6.833,6.6702,6.4505,6.183,6.0256,5.8458,5.6326,5.4915,5.4379,5.4132,5.2778,5.1874,5.1253,0.0,0.0,0.0,0.0,0.0,0.0,0.0,0.0,0.0,0.0,0.0,0.0,0.0,0.0,0.0,0.0,0.0,5.578,6.0596,6.7336,7.3834,7.9982,8.6254,9.0759,9.3292,9.587,9.8239,10.0812,10.1231,10.2428,10.4313,10.4493,10.5091,10.5989,10.6199,10.6677,10.7276,10.6378,10.4944,10.2997,10.0763,9.766,9.4221,9.0536,8.4574,0.0,7.3507,6.9393,6.5796,6.4808,6.3889,6.3263,6.3965,6.2177,5.9377,5.6482,5.7143,5.922,6.0526,6.3953,6.7946,7.0389,7.2872,7.5329,7.7812,7.8492,7.8675,7.8832,7.6584,7.4388,7.3761,7.2663,7.2559,7.4728,7.6479,7.8178,8.0008,7.9381,7.7577,7.4441,7.3474,7.248,7.1017,7.1487,7.3421,7.7107,7.7786,7.81,7.8309,7.8675,7.8518,7.7786,7.7577,7.729,7.6924,7.6715,7.593,7.4571,7.3787,7.2716,7.1382,7.0834,7.0259,6.9657,6.7851,6.5495,6.3001,6.1404,5.9159,5.6642,5.5244,5.4684,5.4457,5.3257,5.235,5.1667,0.0,0.0,0.0,0.0,0.0,0.0,0.0,0.0,0.0,0.0,0.0,0.0,0.0,0.0,0.0,0.0,0.0,0.0,5.5872,5.9302,6.4327,7.1367,7.4734,7.8146,8.1777,8.3281,8.6074,9.0249,9.1476,9.4678,9.9615,9.9017,10.0094,10.2488,10.192,10.2728,10.4403,10.3027,10.0447,9.6984,9.3777,8.8189,8.1734,7.8728,7.3145,6.6634,6.5698,6.2529,5.9002,6.0445,6.0756,6.0368,5.9768,5.832,5.6804,5.717,5.9272,6.2313,6.6312,6.9579,7.2637,7.6009,7.729,7.8152,7.9747,7.9616,7.8989,7.8283,7.5695,7.3029,7.12,6.9135,6.869,7.1618,7.2794,7.4728,7.8701,7.6976,7.5408,7.5721,7.2428,7.052,7.1487,7.0624,7.1618,7.5512,0.0,7.7682,7.8361,7.8414,7.8414,7.8414,7.7865,7.7525,7.7499,7.6924,7.5748,7.3996,7.3996,7.3108,7.1435,7.0886,7.0337,6.9736,6.9135,6.6771,6.3402,6.2647,6.034,5.6746,5.5362,5.4632,5.4569,5.3551,5.2619,5.1729,0.0,0.0,0.0,0.0,0.0,0.0,0.0,0.0,0.0,0.0,0.0,0.0,0.0,0.0,0.0,0.0,0.0,0.0,5.1712,5.5951,5.9934,6.3074,6.9772,7.4496,7.6993,8.0303,8.3041,8.5361,8.5722,8.6808,8.8646,8.8848,8.9468,9.0579,9.0774,9.0997,9.1386,9.0579,8.9457,8.7833,8.5526,8.3413,8.1057,7.7387,7.3268,6.9119,6.6358,6.352,6.0723,6.0363,6.0402,6.018,5.7768,5.7688,5.8728,6.058,6.3343,6.679,7.0494,7.4624,7.8152,7.9459,8.0557,8.1315,8.1315,8.0217,7.8518,7.6244,7.1409,6.6808,6.4221,6.3959,6.524,6.856,7.316,7.7316,8.006,8.0557,7.959,7.6715,7.6218,7.5565,7.4153,7.4127,7.4963,0.0,7.6479,7.7159,7.9459,7.959,7.959,7.959,7.9041,7.8518,7.81,7.7107,7.5748,7.3996,7.3996,7.3317,7.2062,7.1461,7.1121,7.0912,6.9919,6.8066,6.5894,6.3875,6.1601,5.9293,5.6617,5.5659,5.5386,5.3841,5.3033,5.264,0.0,0.0,0.0,0.0,0.0,0.0,0.0,0.0,0.0,0.0,0.0,0.0,0.0,0.0,0.0,0.0,0.0,0.0,0.0,5.1255,5.3674,5.5768,6.0556,6.424,6.6702,6.9898,7.3113,7.6229,7.6501,7.8195,8.113,8.1106,8.1684,8.277,8.3251,8.3699,8.4025,8.3068,8.1628,0.0,0.0,7.5053,7.2672,7.072,6.7714,6.441,6.3504,6.193,6.0761,6.1961,6.2529,6.2438,6.1485,6.2632,6.4551,6.6073,6.8917,7.2289,7.5878,7.9537,8.236,8.2674,8.3066,8.27,8.028,7.8551,7.5904,7.1162,6.6289,6.1947,5.9307,5.9568,6.1659,6.6129,7.1121,7.5957,8.0269,8.1001,8.0557,7.9067,7.8779,7.81,7.6558,7.6453,7.695,0.0,7.7368,7.7786,7.9903,8.0269,8.0269,8.0034,7.972,7.9041,7.7943,7.7316,7.5983,7.3996,7.3996,7.3395,7.2271,7.167,7.1235,7.0984,0.0,6.7902,6.4811,6.3217,6.0859,5.8026,5.6017,5.5283,5.522,5.4153,5.3654,5.3344,0.0,0.0,0.0,0.0,0.0,0.0,0.0,0.0,0.0,0.0,0.0,0.0,0.0,0.0,0.0,0.0,0.0,0.0,0.0,0.0,4.7552,4.9816,5.0555,5.2197,5.5115,5.7523,6.0897,6.5521,6.6213,6.9336,7.4425,7.3941,7.4565,7.6077,7.671,7.7365,7.8243,7.7074,7.5009,7.222,6.947,6.6027,6.2507,0.0,6.0624,5.7992,5.9484,5.9529,5.9745,6.4382,6.5845,6.5794,6.7801,6.9903,7.1833,7.2691,7.5092,7.8257,8.1655,8.4138,8.5706,8.5471,8.4765,8.2779,7.8031,7.5484,7.2001,6.516,6.1012,5.8062,5.583,5.6118,5.8653,6.4639,6.8664,7.3395,8.0165,8.0374,8.04,8.1838,8.074,7.9668,7.9172,7.8518,7.8597,7.9668,7.9145,7.9224,8.0217,8.0583,8.0505,7.993,7.9903,7.9172,7.7603,7.7499,7.6349,7.4127,7.4049,7.3395,7.2271,7.1748,7.134,7.094,6.985,6.7164,6.3121,6.2039,5.9293,5.5661,5.4904,5.4544,5.4524,5.4461,5.4192,5.3778,0.0,0.0,0.0,0.0,0.0,0.0,0.0,0.0,0.0,0.0,4.4948,4.4879,0.0,0.0,0.0,0.0,0.0,0.0,0.0,0.0,0.0,4.6857,4.8085,4.9814,5.1962,5.4302,5.6585,5.8804,5.9832,6.1138,6.2733,6.3006,6.3487,6.4371,6.4782,6.4946,6.5158,6.4916,6.4443,6.3707,6.3134,6.2665,6.2347,6.1439,0.0,0.0,6.0295,5.8861,5.8383,6.6085,6.84,6.8509,7.1558,7.3698,7.5596,7.7902,8.0322,8.2935,8.5941,8.7745,8.8398,8.6961,8.4739,8.1681,7.7508,7.2558,6.7503,6.2492,5.7815,5.4367,5.3243,5.4733,5.8418,6.5632,7.052,7.5512,8.1498,8.2962,8.338,8.3197,8.3327,8.3406,8.3301,8.2334,8.2021,0.0,8.1759,8.1263,8.1472,8.0635,7.9903,7.9328,7.9328,7.8936,7.8178,7.7708,7.6558,7.4754,7.4232,7.3395,7.2297,7.2193,7.214,7.1913,6.9585,0.0,6.6005,6.2034,5.9608,5.7982,5.6017,5.5114,5.5073,5.4298,5.3923,5.3778,0.0,0.0,0.0,0.0,0.0,0.0,0.0,4.528,4.6196,4.8741,4.9463,4.9085,4.7427,4.6963,0.0,0.0,0.0,0.0,0.0,0.0,0.0,0.0,4.7127,4.8254,4.9551,5.2818,5.488,5.561,0.0,5.8085,5.8731,5.9,5.9287,5.9857,6.0425,6.0487,6.0411,6.0775,6.0711,6.0494,6.0965,6.1187,6.1297,6.1148,0.0,0.0,5.9228,5.8143,5.8015,6.4805,6.7938,7.009,7.5594,7.8652,8.0855,8.2549,8.4399,8.6229,8.8529,8.9757,8.9966,8.8215,8.5183,8.104,7.4843,6.9248,6.3653,5.7433,5.3938,5.1759,5.0935,5.3086,5.6798,6.2182,6.5946,7.0834,7.844,7.9459,8.0531,8.3563,8.4164,8.4347,8.4347,8.385,8.351,8.3484,8.2962,8.2543,8.223,8.1393,8.0531,7.9642,7.9616,7.9198,7.8335,7.776,7.6741,7.5329,7.4754,7.3866,7.2716,7.2388,7.2056,7.1542,6.9866,0.0,6.4149,6.1968,5.9307,5.6537,5.5283,5.4925,5.4883,5.4275,5.4213,5.4151,0.0,0.0,0.0,0.0,0.0,0.0,0.0,4.7702,4.8865,5.2755,5.4042,5.3575,5.0803,4.8546,4.7227,0.0,0.0,0.0,0.0,0.0,0.0,0.0,0.0,0.0,4.7298,0.0,0.0,5.3059,5.5287,0.0,0.0,0.0,0.0,0.0,5.895,5.9154,5.8906,5.971,5.9773,0.0,0.0,6.059,6.0256,0.0,0.0,0.0,0.0,5.771,5.7861,6.2805,6.6153,6.9413,7.6323,8.0801,8.3774,8.5142,8.6621,8.8272,9.0176,9.1143,9.1117,8.9261,8.5288,7.9913,7.2428,6.6344,6.0339,5.3406,5.1057,5.0115,4.9442,5.157,5.4759,5.8732,6.1215,6.5789,7.478,7.58,7.7734,8.3458,8.4478,8.4713,8.4713,8.4608,8.4268,8.3693,8.3432,8.2988,8.2282,8.1838,8.1053,7.9877,7.9851,7.9407,7.8518,7.7812,7.695,7.5904,7.5094,7.4153,7.3108,7.2649,7.183,7.1011,7.0019,0.0,0.0,6.1557,5.8654,5.4544,5.4544,5.4544,5.4544,5.4544,5.4544,5.4482,0.0,0.0,0.0,0.0,0.0,0.0,0.0,4.7702,4.9927,5.5884,5.6256,5.576,5.499,5.2319,4.9545,0.0,0.0,0.0,0.0,0.0,0.0,0.0,0.0,0.0,0.0,0.0,0.0,4.9529,5.3061,0.0,0.0,0.0,0.0,0.0,0.0,5.8885,5.8815,5.9491,0.0,0.0,0.0,0.0,0.0,0.0,0.0,0.0,0.0,5.7575,5.6957,6.1657,6.3724,6.5196,6.9528,7.5596,8.1282,8.2984,8.5458,8.8354,9.1259,9.2371,9.2214,8.9966,8.4399,7.7948,7.2058,6.4619,5.7783,5.3144,5.1094,5.01,5.0221,5.0769,5.2929,5.847,6.0875,6.49,7.3108,7.6427,7.9381,8.3118,8.4948,8.5915,8.5915,8.5419,8.487,8.4295,8.3301,8.223,8.1106,8.1001,8.0426,7.9276,7.925,7.9198,7.9093,7.8021,7.7159,7.6505,7.4859,7.3735,7.3081,7.2611,7.1998,7.1391,6.948,6.6434,0.0,6.0668,5.7712,5.4544,5.4544,5.4544,5.4544,5.4544,5.4544,5.4524,0.0,0.0,0.0,0.0,0.0,0.0,4.6264,4.7056,4.9618,5.6013,5.7821,5.8398,5.7948,5.556,5.2034,0.0,0.0,0.0,0.0,0.0,0.0,0.0,0.0,0.0,0.0,0.0,4.7673,4.8623,5.0632,0.0,0.0,0.0,0.0,0.0,0.0,5.8177,5.8208,5.8885,0.0,0.0,0.0,0.0,0.0,0.0,0.0,0.0,0.0,0.0,5.6618,5.7865,5.9827,6.1886,6.2185,6.6297,7.2213,7.8722,8.2404,8.5485,8.9757,9.2005,9.2293,8.9627,8.3772,7.7084,7.1053,6.3584,5.6744,5.2432,5.0682,4.9834,4.914,4.918,5.0315,5.3661,5.421,5.7033,6.5109,6.7253,7.0938,7.891,8.108,8.3014,8.5811,8.5863,8.534,8.4399,8.3275,8.2282,8.1446,8.1419,8.0897,7.972,7.9694,7.9511,7.9172,7.7832,7.6966,7.6732,7.4622,7.3302,7.276,7.1987,7.1192,7.0681,6.9581,6.6507,0.0,6.146,5.8489,5.4544,5.4544,5.4544,5.4544,5.4544,5.4544,5.4544,0.0,0.0,0.0,0.0,0.0,4.2711,4.6131,4.7095,4.9553,5.5654,5.8218,5.9537,5.9482,5.6646,5.2911,4.8576,0.0,0.0,0.0,0.0,0.0,0.0,0.0,0.0,0.0,0.0,4.5972,4.7234,4.8711,5.0155,0.0,0.0,5.4081,5.492,0.0,0.0,0.0,0.0,0.0,0.0,0.0,0.0,0.0,0.0,0.0,0.0,0.0,0.0,0.0,0.0,0.0,5.8316,5.6704,5.8832,6.366,7.3116,7.8247,8.1904,8.7669,9.0594,9.1587,8.9208,8.304,7.6245,7.0285,6.3096,5.6371,5.2124,5.0644,4.9902,4.9009,4.8524,4.8695,5.0263,5.0289,5.2563,5.962,6.1346,6.5188,7.4101,7.6349,7.8884,8.3354,8.487,8.5236,8.4399,8.3275,0.0,8.2047,8.1707,8.1053,8.006,7.9851,7.9485,7.8936,7.7565,7.6804,7.6622,7.4516,7.3118,7.2733,7.1627,7.0706,7.0145,6.9045,6.6093,0.0,6.1183,5.8445,5.471,5.4586,5.4544,5.4544,5.4544,5.4544,5.4544,0.0,0.0,0.0,0.0,0.0,0.0,0.0,4.7956,5.0313,5.5543,5.7334,5.8488,5.9392,5.4759,5.1391,5.091,0.0,0.0,0.0,0.0,0.0,0.0,0.0,0.0,0.0,0.0,4.4606,4.4719,4.7372,4.8804,4.9052,5.1258,5.2972,5.4201,0.0,0.0,0.0,0.0,0.0,0.0,0.0,0.0,0.0,0.0,0.0,0.0,0.0,0.0,0.0,0.0,0.0,0.0,0.0,5.4727,5.7266,6.6468,7.2957,7.8221,8.4446,8.8241,9.0123,8.8895,8.2324,7.5106,7.0187,6.2777,5.6129,5.2795,5.1256,5.0379,5.0379,4.9193,4.8564,4.9714,5.1335,5.4105,5.8784,6.1868,6.5162,6.9291,7.1304,7.397,7.7995,8.2021,8.4347,8.4347,8.3275,0.0,8.2622,8.1524,8.0609,8.0034,7.9485,7.891,7.8335,7.776,7.7185,7.661,7.4287,7.3276,7.325,7.1577,7.0681,7.012,6.7489,6.5008,0.0,5.9484,5.7035,5.5124,5.471,5.4544,5.4544,5.4544,5.4544,5.4544,0.0,0.0,0.0,0.0,0.0,0.0,0.0,4.4179,4.6268,5.0602,5.207,5.3683,5.6269,5.3032,5.0573,5.0455,4.6721,0.0,0.0,0.0,0.0,0.0,0.0,0.0,0.0,0.0,4.3724,4.5871,4.6137,4.7549,4.9895,5.0815,5.1844,5.2997,5.4341,5.5348,0.0,0.0,0.0,0.0,0.0,0.0,0.0,0.0,0.0,0.0,0.0,0.0,0.0,0.0,0.0,0.0,0.0,0.0,0.0,5.977,6.5075,7.0464,7.5021,7.8326,7.9962,7.7587,7.3444,6.8773,6.4923,6.0021,5.5545,5.289,5.1723,5.0989,4.993,4.9272,4.9557,5.191,5.2746,5.4158,5.7216,6.145,6.5763,6.984,7.7054,8.223,0.0,0.0,8.4347,8.4347,0.0,0.0,8.2622,8.1524,8.0792,8.0609,7.9302,7.8492,7.8309,7.6966,7.5813,7.5084,7.3191,7.1982,7.1211,7.032,6.9039,6.7531,6.6785,6.4015,5.9994,5.9116,5.7142,5.4731,5.4586,5.4544,5.4544,5.4544,5.4544,5.4544,0.0,0.0,0.0,0.0,0.0,0.0,0.0,4.3025,4.4705,4.7489,4.8595,5.0391,5.3713,5.0661,4.8775,4.9793,4.6881,0.0,0.0,0.0,0.0,0.0,0.0,0.0,0.0,4.1796,4.3701,4.6627,4.6672,4.7974,5.0547,5.1402,5.1887,5.2177,5.3904,5.4909,0.0,0.0,0.0,0.0,0.0,0.0,5.6527,0.0,0.0,0.0,0.0,0.0,0.0,0.0,0.0,0.0,0.0,0.0,0.0,0.0,5.9103,6.3204,6.8492,7.191,7.3528,7.1698,6.8543,6.5143,6.2148,5.8455,5.5029,5.2756,5.1697,5.0963,4.9983,4.9272,4.9401,5.1439,5.2119,5.3217,5.5517,6.0117,6.5136,7.0285,7.8152,0.0,0.0,8.4112,8.4347,0.0,0.0,0.0,8.2622,8.1524,8.0871,8.0871,7.9224,7.8204,7.7995,7.668,7.5636,7.449,7.2803,7.1698,7.0801,6.9883,6.8312,6.64,6.5442,6.2705,0.0,5.7975,5.638,5.4772,5.4606,5.4544,5.4544,5.4544,5.4544,5.4544,0.0,0.0,0.0,0.0,0.0,0.0,0.0,0.0,4.5112,4.6003,4.6681,4.8207,5.1289,4.7758,4.6142,4.8626,0.0,0.0,0.0,0.0,0.0,0.0,0.0,0.0,0.0,4.1921,4.4246,4.6948,4.8271,4.9626,5.1041,5.2681,5.2855,5.1839,5.3319,5.4261,0.0,0.0,0.0,0.0,5.5149,5.4894,0.0,0.0,0.0,0.0,0.0,0.0,0.0,0.0,0.0,0.0,0.0,0.0,0.0,0.0,0.0,0.0,0.0,6.7774,6.9497,6.9365,6.6415,6.307,6.0843,5.7515,0.0,5.2487,5.1283,5.0458,5.0405,4.9245,4.8486,4.927,5.0315,5.1831,5.4079,5.8706,0.0,0.0,7.6087,0.0,8.0113,8.27,0.0,0.0,0.0,0.0,8.2622,8.155,8.0923,8.0871,7.9224,7.8048,7.7473,7.6819,7.593,7.4833,7.3302,7.2192,7.1448,6.9858,6.8105,0.0,6.3572,6.1244,0.0,5.629,5.5165,5.5103,5.4689,5.4544,5.4544,5.4544,5.4544,5.4544,0.0,0.0,0.0,0.0,0.0,0.0,0.0,0.0,0.0,0.0,4.4496,4.4766,4.6022,4.4736,4.4047,0.0,0.0,0.0,0.0,0.0,0.0,0.0,0.0,0.0,0.0,4.1944,4.3729,4.627,4.7096,4.8946,5.1907,5.3254,5.3359,5.2405,5.3724,5.3671,0.0,0.0,0.0,0.0,5.3268,5.3107,0.0,0.0,0.0,0.0,5.0874,5.0363,0.0,0.0,0.0,0.0,0.0,0.0,0.0,0.0,5.3917,5.4379,5.578,0.0,5.8644,5.7297,5.6305,5.5552,0.0,5.4036,5.3159,5.1842,5.1576,5.1296,5.0484,4.9798,4.9943,5.2312,5.3339,5.4471,5.6367,6.3747,0.0,7.7891,8.1968,8.3667,8.2177,8.3432,0.0,0.0,0.0,8.2622,8.2622,8.1942,8.1367,8.0897,7.9224,7.8048,7.7473,7.6035,7.4755,7.3664,7.2528,7.1423,7.0528,6.8154,6.6005,6.387,6.1492,5.8986,5.6752,5.5607,5.4979,5.4668,5.4565,5.4544,5.4544,5.4544,5.4544,5.4544,0.0,0.0,0.0,0.0,0.0,0.0,0.0,0.0,0.0,0.0,0.0,0.0,0.0,0.0,0.0,0.0,0.0,0.0,0.0,0.0,0.0,0.0,0.0,4.0341,4.0514,4.1974,4.4151,4.698,4.8179,5.0324,5.3182,5.4561,5.4145,5.2333,5.2703,5.2549,0.0,0.0,0.0,5.222,5.1814,0.0,0.0,0.0,0.0,0.0,5.0154,4.9956,0.0,5.0803,5.1243,5.1573,0.0,0.0,0.0,0.0,5.3185,5.3076,5.2479,5.3429,5.4216,5.2696,5.2631,5.2809,5.2333,5.2442,5.2296,5.135,5.1196,5.0895,4.9955,4.9467,4.9719,5.132,5.2555,5.5207,0.0,0.0,7.3866,8.0505,8.3197,8.4321,0.0,0.0,0.0,0.0,0.0,8.2517,8.2256,8.1681,8.1106,8.0505,7.8832,7.7786,7.7473,7.5774,7.4417,7.3276,7.2167,7.0653,6.8652,6.7163,6.4554,6.1458,6.0254,5.8042,5.5559,5.5517,5.5124,5.4565,5.4751,5.471,5.4544,5.4544,5.4544,5.4544,0.0,0.0,0.0,0.0,0.0,0.0,0.0,0.0,0.0,0.0,0.0,0.0,0.0,0.0,0.0,0.0,0.0,0.0,0.0,0.0,0.0,0.0,0.0,4.075,4.0122,4.2259,4.4837,4.7687,4.9717,5.1934,5.44,5.6197,5.5629,5.317,5.1683,5.1343,0.0,0.0,5.0852,5.1176,5.036,0.0,0.0,0.0,0.0,0.0,0.0,0.0,0.0,5.1169,5.132,5.1395,5.2379,0.0,0.0,0.0,0.0,0.0,5.2072,5.2832,5.3254,5.1909,5.1936,5.2181,5.1665,5.1611,5.1502,5.0878,5.0621,5.022,4.9338,4.9107,4.9218,0.0,0.0,0.0,6.5867,6.9997,7.4441,8.0871,8.2387,0.0,0.0,0.0,0.0,0.0,0.0,8.2413,8.1942,8.1341,8.074,8.0165,7.8492,7.7551,7.7473,7.5669,7.4338,7.3457,7.1884,6.9828,6.7115,6.6005,6.3496,5.9676,0.0,0.0,5.5414,5.56,5.5269,5.4668,5.4979,5.4855,5.4544,5.4544,5.4544,5.4544,0.0,0.0,0.0,0.0,0.0,0.0,0.0,0.0,0.0,0.0,0.0,0.0,0.0,0.0,0.0,0.0,0.0,0.0,0.0,0.0,0.0,0.0,4.1471,4.1405,4.2448,4.284,4.4306,4.6717,4.8944,5.1444,5.4043,5.8286,5.9504,5.7951,5.3555,5.0851,4.9408,4.8071,4.7593,4.7702,4.7839,0.0,0.0,0.0,0.0,0.0,0.0,0.0,0.0,4.8964,4.9616,5.0303,5.098,0.0,0.0,0.0,0.0,0.0,5.2479,5.3214,5.3335,5.0871,5.0363,5.0417,5.0308,5.0688,5.0763,4.9939,5.0121,5.0327,4.9611,5.0008,5.1043,0.0,0.0,6.3244,0.0,0.0,7.6532,8.0531,0.0,0.0,0.0,0.0,0.0,0.0,0.0,8.2596,8.2491,8.1942,8.1367,8.0766,7.9093,7.7943,7.7473,7.5251,7.4101,7.3817,7.0703,6.8652,6.7616,6.3727,6.1237,6.0135,0.0,5.6509,5.6262,5.5186,5.4875,5.5062,5.4751,5.4586,5.4544,5.4544,5.4544,5.4544,0.0,0.0,0.0,0.0,0.0,0.0,0.0,0.0,0.0,0.0,0.0,0.0,0.0,0.0,0.0,0.0,0.0,0.0,0.0,0.0,0.0,4.3798,4.3083,4.2493,4.2082,4.331,4.5245,4.7885,5.0498,5.3757,5.7809,5.8823,5.9056,5.8426,5.2825,4.9939,4.9398,4.7923,4.7131,4.6894,0.0,0.0,0.0,0.0,0.0,0.0,0.0,0.0,0.0,0.0,4.968,5.0118,5.0715,0.0,0.0,0.0,0.0,0.0,5.1177,5.1305,5.1269,5.0748,5.125,5.1481,5.0336,5.0255,5.0443,5.0497,5.0228,5.0274,5.1057,5.204,5.4198,5.8832,0.0,6.7599,7.2506,7.465,7.7002,0.0,0.0,0.0,0.0,0.0,0.0,0.0,0.0,0.0,8.1707,8.1132,8.0426,7.9511,7.844,7.7577,7.7002,7.5016,7.3817,7.3637,6.9853,6.725,6.5747,6.2201,5.9789,5.8161,0.0,5.5848,5.5766,5.5145,5.4875,5.4834,5.4875,5.4751,5.4544,5.4544,5.4544,5.4544,0.0,0.0,0.0,0.0,0.0,0.0,0.0,0.0,0.0,0.0,0.0,0.0,0.0,0.0,0.0,0.0,0.0,0.0,0.0,0.0,4.4526,4.4517,4.4573,4.4178,4.3101,4.4591,4.6891,5.0106,5.3112,5.7224,6.2343,6.0041,5.8981,5.8555,5.2693,5.0185,5.0189,4.8601,4.7612,4.6946,0.0,0.0,0.0,0.0,0.0,0.0,0.0,0.0,0.0,0.0,0.0,0.0,0.0,0.0,0.0,5.0661,5.0146,4.9847,4.9983,4.968,4.9702,5.0864,5.2004,5.2482,5.1789,5.1416,5.1496,5.2754,5.2152,5.1683,5.2961,5.4751,0.0,6.3826,6.7854,7.1435,7.4754,7.6192,0.0,0.0,0.0,0.0,0.0,0.0,0.0,0.0,0.0,0.0,8.0897,8.0217,7.9433,7.8544,7.7577,7.6845,7.6401,7.4676,7.3301,7.2474,6.9074,6.5933,6.3325,6.0761,5.8485,5.6676,5.6014,5.5641,5.5476,5.5165,5.4896,5.471,5.4938,5.4834,5.4544,5.4648,5.4627,5.4544,0.0,0.0,0.0,0.0,0.0,0.0,0.0,0.0,0.0,0.0,0.0,0.0,0.0,0.0,0.0,0.0,0.0,0.0,0.0,0.0,4.4699,4.3497,4.4937,4.6682,4.8433,4.7623,4.9113,5.3086,5.6484,6.0957,6.62,6.3583,6.1808,6.053,5.5575,5.2758,5.1482,4.9606,4.8223,4.7466,4.6714,0.0,0.0,0.0,0.0,0.0,0.0,0.0,0.0,0.0,0.0,0.0,0.0,0.0,5.0037,4.944,4.9223,4.9304,4.9874,5.0189,5.0408,5.0815,5.0773,5.1576,5.5572,5.5548,5.5389,5.7621,5.7143,5.6053,5.5226,5.8276,6.2175,6.5239,7.0638,7.5486,7.8387,0.0,0.0,0.0,0.0,0.0,0.0,0.0,0.0,0.0,0.0,0.0,8.0897,7.9825,7.9198,7.9119,7.6976,7.5826,7.5774,7.4049,7.2296,7.0538,6.7367,6.4225,6.1193,5.8706,5.7415,5.7111,5.5807,5.5703,5.6366,5.5103,5.4793,5.5103,5.4731,5.4565,5.4586,5.4979,5.4875,5.4544,0.0,0.0,0.0,0.0,0.0,0.0,0.0,0.0,0.0,0.0,0.0,0.0,0.0,0.0,0.0,0.0,0.0,0.0,0.0,4.5693,4.5872,4.5824,4.6236,4.746,4.9454,5.0575,5.2903,5.6588,6.1657,6.5545,6.7996,6.3265,6.0618,5.9455,5.423,5.2076,5.2278,5.0535,4.8993,4.7661,4.6865,4.5717,0.0,0.0,0.0,0.0,0.0,0.0,0.0,0.0,4.7459,4.8273,4.8517,4.8979,4.9494,4.963,4.9169,4.8707,4.9304,5.0243,5.1132,5.1709,5.2492,5.3668,5.5761,5.6551,5.742,5.9906,5.9889,5.9202,5.8752,0.0,6.6367,6.8883,7.4044,7.8309,0.0,0.0,0.0,0.0,0.0,0.0,0.0,0.0,0.0,0.0,0.0,0.0,7.9825,7.8727,7.7786,7.7054,7.6166,7.5382,7.465,7.363,7.1319,6.7949,6.6081,6.3708,6.0963,5.8442,5.6957,5.6366,5.5848,5.5641,5.5641,5.4855,5.4627,5.4772,5.4606,5.4544,5.4565,5.471,5.4668,5.4544,0.0,0.0,0.0,0.0,0.0,0.0,0.0,0.0,0.0,0.0,0.0,0.0,0.0,0.0,0.0,0.0,0.0,0.0,4.5633,4.6262,4.6491,4.6089,4.6615,4.7488,4.8953,5.2233,5.5517,5.8784,6.4829,6.7703,6.7555,6.2822,6.0235,5.9304,5.463,5.3217,5.4149,5.2426,5.0661,4.8895,4.7871,4.6217,0.0,0.0,0.0,0.0,0.0,0.0,0.0,0.0,4.7568,4.83,4.868,4.9087,4.944,4.9657,4.8922,4.8082,4.8381,4.8996,4.9979,5.1243,5.2747,5.476,5.7511,5.8993,6.0839,6.4032,6.3633,6.2422,6.1869,6.5135,0.0,0.0,7.5826,0.0,0.0,0.0,0.0,0.0,0.0,0.0,0.0,0.0,0.0,0.0,0.0,0.0,0.0,7.7629,7.6532,7.5748,7.5172,7.4519,7.3735,7.3134,7.0526,6.6033,6.5116,6.2888,5.9781,5.7831,5.6676,5.6076,5.5786,5.5559,5.5352,5.4772,5.4544,5.4544,5.4689,5.4668,5.4565,5.4689,5.4648,5.4544,0.0,0.0,0.0,0.0,0.0,0.0,0.0,0.0,0.0,0.0,0.0,0.0,0.0,0.0,0.0,0.0,0.0,0.0,4.6322,4.695,4.6079,4.3413,4.5649,4.7087,4.7345,5.238,5.6484,5.9529,6.5247,6.689,6.4431,6.2608,6.1367,6.0882,5.777,5.677,5.7228,5.521,5.3391,5.1654,4.9751,4.7755,4.5888,0.0,0.0,0.0,0.0,0.0,0.0,0.0,4.8246,4.8436,4.963,4.9983,4.9874,4.9304,4.8487,4.7701,4.7082,4.6491,4.6571,4.8964,5.1028,5.4334,6.1311,6.3724,6.5841,7.0468,6.9022,6.6266,6.4502,6.6108,0.0,7.0715,0.0,0.0,0.0,0.0,0.0,0.0,0.0,0.0,0.0,0.0,0.0,0.0,0.0,0.0,0.0,7.6636,7.5695,7.5695,7.3996,7.3108,7.3081,7.2559,6.9968,6.5558,6.4592,6.179,5.734,5.675,5.6552,5.649,5.5579,5.5434,5.5807,5.4917,5.4544,5.4586,5.5,5.4917,5.4586,5.502,5.4896,5.4544,0.0,0.0,0.0,0.0,0.0,0.0,0.0,0.0,0.0,0.0,0.0,0.0,0.0,0.0,0.0,0.0,0.0,0.0,4.701,4.7189,4.6929,4.6197,4.69,4.7145,4.6869,5.1759,5.777,6.5016,6.5554,6.575,6.5403,6.1407,5.9457,5.9143,5.8726,5.7809,5.6556,5.5027,5.355,5.2097,5.1011,4.8864,4.6237,0.0,0.0,0.0,0.0,0.0,0.0,0.0,0.0,0.0,4.8029,4.8707,4.9277,4.868,4.8868,4.9247,4.8651,4.8938,5.0004,5.2713,5.5129,5.8166,6.3907,6.5188,6.6547,7.1565,7.1147,6.9643,6.8306,6.9643,0.0,0.0,0.0,0.0,0.0,0.0,0.0,0.0,0.0,0.0,0.0,0.0,0.0,0.0,0.0,0.0,0.0,7.5225,7.431,7.3892,7.3369,7.2716,7.1905,7.1748,6.9383,6.5005,6.4046,6.1087,5.6952,5.6321,5.589,5.5579,5.531,5.5269,5.5352,5.4772,5.4544,5.4544,5.4668,5.4648,5.4544,5.4689,5.4648,5.4544,0.0,0.0,0.0,0.0,0.0,0.0,0.0,0.0,0.0,0.0,4.4496,4.5155,0.0,0.0,0.0,0.0,0.0,0.0,0.0,4.7309,4.7106,4.6726,4.6807,4.7066,4.7481,5.3096,5.7761,6.1351,6.2308,6.262,6.26,6.1087,6.0719,6.1475,6.2948,6.2028,5.9267,5.7917,5.5877,5.3451,5.2513,5.0579,4.8373,0.0,0.0,0.0,0.0,0.0,0.0,0.0,0.0,0.0,4.7622,4.8355,4.906,4.8597,4.873,4.8996,4.8905,4.948,5.0804,5.4179,5.713,6.0525,6.6286,6.8612,7.0494,7.4101,7.3552,7.2297,7.1853,7.2245,0.0,0.0,0.0,0.0,0.0,0.0,0.0,0.0,0.0,0.0,0.0,0.0,0.0,0.0,0.0,0.0,7.5408,7.4284,7.3474,7.3108,7.2663,7.2088,7.1409,7.12,6.9322,6.5526,6.3839,6.1028,5.7532,5.6332,5.5621,5.5186,5.5186,5.5082,5.4896,5.4648,5.4544,5.4544,5.4544,5.4544,5.4544,5.4544,5.4544,5.4544,0.0,0.0,4.1803,4.312,0.0,0.0,0.0,0.0,0.0,0.0,4.3898,4.4556,0.0,0.0,0.0,0.0,0.0,0.0,0.0,0.0,4.6961,4.6046,4.6162,4.7088,4.8864,5.5233,5.6474,5.2264,5.6819,5.854,5.7628,6.1057,6.3887,6.6027,6.852,6.7442,6.3626,6.1963,5.8938,5.5184,5.402,5.2661,5.1372,4.997,0.0,0.0,0.0,0.0,0.0,0.0,0.0,0.0,4.792,4.8572,4.9003,4.8673,4.8043,4.782,4.87,4.8927,4.9996,5.4656,5.8412,6.2509,6.869,7.3055,7.6009,7.7028,0.0,7.4441,7.5042,7.4232,7.4049,0.0,0.0,0.0,0.0,0.0,0.0,0.0,0.0,0.0,0.0,0.0,0.0,0.0,0.0,0.0,7.478,7.3604,7.2951,7.2951,7.1905,7.1304,7.1252,7.0755,6.93,6.6764,6.3827,6.1253,5.8742,5.6677,5.5517,5.5124,5.5165,5.4938,5.4544,5.4544,5.4544,5.4544,5.4544,5.4544,5.4544,5.4544,5.4544,5.4544,0.0,0.0,4.1803,4.312,0.0,0.0,0.0,0.0,0.0,0.0,0.0,0.0,0.0,0.0,0.0,0.0,0.0,0.0,0.0,0.0,4.7431,4.7762,4.8774,4.9927,5.1356,5.1943,5.1788,5.0976,5.5555,5.7278,5.6447,6.055,6.3554,6.5626,6.6959,6.5873,6.2764,5.8731,5.5899,5.4083,5.4329,5.3064,5.116,5.0584,4.9832,0.0,0.0,0.0,0.0,0.0,0.0,0.0,4.6808,4.7785,4.8619,4.7593,4.7963,4.9072,5.0631,5.116,5.2939,5.9289,6.5188,7.0259,7.3134,7.478,7.5669,7.5486,7.5774,7.6244,7.6793,7.6688,0.0,0.0,0.0,0.0,0.0,0.0,0.0,0.0,0.0,0.0,0.0,0.0,0.0,0.0,7.4519,7.363,7.35,7.2402,7.1775,7.1775,7.1121,7.0546,7.0076,6.9945,6.8536,0.0,6.3145,6.059,5.8211,5.583,5.4772,5.4689,5.5041,5.4938,5.4544,5.4544,5.4544,5.4544,5.4544,5.4544,5.4544,5.4544,5.4544,5.4544,0.0,0.0,0.0,0.0,0.0,0.0,0.0,0.0,0.0,0.0,0.0,0.0,0.0,0.0,0.0,0.0,0.0,0.0,4.7309,4.7309,4.7608,4.8267,5.0152,5.09,5.0331,5.087,5.0235,4.8395,5.215,5.4318,5.5096,5.916,6.2686,6.5513,6.7059,6.5699,6.2179,5.9686,5.71,5.473,5.5407,5.4755,5.3183,5.1929,5.101,4.9919,4.6911,0.0,0.0,0.0,0.0,0.0,0.0,0.0,4.7754,4.7213,4.7664,4.8832,5.1081,5.2701,5.5577,6.356,6.9171,7.3081,7.4571,7.5329,7.5643,7.5355,7.5774,7.6453,7.7316,7.7237,0.0,0.0,0.0,0.0,0.0,0.0,0.0,0.0,0.0,0.0,0.0,0.0,0.0,7.4937,7.3552,7.2585,7.2297,7.1487,7.1017,7.1017,7.0468,7.0023,6.9684,6.9422,6.8436,6.6601,6.423,6.1195,5.7819,5.543,5.4544,5.4544,5.4772,5.4751,5.4544,5.4544,5.4544,5.4544,5.4544,5.4544,5.4544,5.4544,5.4544,5.4544,0.0,0.0,0.0,0.0,0.0,0.0,0.0,0.0,0.0,0.0,0.0,0.0,0.0,0.0,0.0,0.0,0.0,0.0,4.7309,4.7429,4.7758,4.8416,5.0631,5.09,4.8835,5.069,4.989,4.635,4.8834,5.1409,5.4077,5.7902,6.1607,6.5368,6.6705,6.5167,6.1642,6.0824,5.8393,5.5253,5.5961,5.5807,5.4944,5.2873,5.1712,5.0679,4.7413,4.7066,4.7819,4.6873,0.0,0.0,0.0,0.0,4.6893,4.7157,4.7207,4.7781,5.0752,5.421,5.8963,6.7044,7.1226,7.3552,7.465,7.5329,7.5695,7.5591,7.5643,7.6035,7.7107,0.0,0.0,0.0,0.0,0.0,0.0,0.0,0.0,0.0,0.0,0.0,0.0,7.5669,7.4859,7.3918,7.2794,7.1879,7.1304,7.0729,7.0442,7.0442,6.9866,6.9553,6.9384,6.8915,6.8513,6.7866,6.5124,6.1531,5.7405,5.543,5.4544,5.4544,5.4544,5.4544,5.4544,5.4544,5.4544,5.4544,5.4544,5.4544,5.4544,5.4544,5.4544,5.4544,0.0,0.0,0.0,0.0,0.0,0.0,0.0,0.0,0.0,0.0,4.4338,4.4526,0.0,0.0,4.6232,4.6322,4.692,4.7309,4.7309,0.0,0.0,4.9105,5.0002,5.0601,5.081,5.0062,4.9104,4.774,4.9085,5.112,5.3973,5.7862,6.1388,6.4613,6.303,6.1967,6.1186,5.6695,5.4145,5.316,5.3837,5.3714,5.3008,5.1846,5.1323,5.0709,4.7966,4.7403,4.7819,4.6873,4.6482,0.0,0.0,0.0,4.684,4.6703,4.6402,4.7027,5.0647,5.732,6.4404,6.9161,7.214,7.4075,7.4754,7.5329,7.5591,0.0,7.5382,7.593,7.661,0.0,0.0,0.0,0.0,0.0,0.0,0.0,0.0,0.0,7.5591,7.5225,7.5146,7.4127,7.3395,7.3238,7.2167,7.1278,7.0729,7.0128,6.9814,6.9814,6.9265,6.8811,6.8475,6.8229,6.784,6.6967,6.2824,5.9567,5.7405,5.543,5.4544,5.4544,5.4544,5.4544,5.4544,5.4544,5.4544,5.4544,5.4544,5.4544,5.4544,5.4544,5.4544,5.4544,0.0,0.0,0.0,0.0,0.0,0.0,0.0,0.0,0.0,0.0,0.0,4.5139,0.0,4.6017,4.6172,4.5783,4.6711,4.7309,4.7309,4.7908,4.8416,4.8716,4.9344,4.9673,4.9583,4.9015,4.8018,4.642,4.8463,5.0817,5.3468,5.7094,6.0626,6.3924,6.12,5.9832,5.946,5.6234,5.4237,5.3345,5.4022,5.4452,5.451,5.2611,5.2423,5.2768,4.9039,4.8055,4.8223,4.695,4.635,4.6245,4.6245,0.0,0.0,0.0,4.616,4.737,5.3159,5.8638,6.3907,6.9265,7.1827,7.3291,7.4205,7.4859,7.5094,7.4519,7.4597,7.5042,0.0,0.0,0.0,0.0,0.0,0.0,0.0,7.6009,7.5565,7.5303,7.5042,7.478,7.4441,7.3918,7.3343,7.2716,7.1592,7.0703,7.0128,6.9527,6.9213,6.9213,6.8978,6.868,6.8203,6.8203,6.7671,6.6771,6.216,5.952,5.8615,5.5315,5.4048,5.4544,5.4544,5.4544,5.4544,5.4544,5.4379,5.4172,5.4441,5.4213,5.384,5.4358,5.4379,5.4192,0.0,0.0,0.0,0.0,0.0,0.0,0.0,0.0,0.0,0.0,0.0,0.0,0.0,0.0,0.0,0.0,4.6322,4.686,4.7126,4.7668,4.8027,4.8115,4.8595,4.8536,4.8057,4.8027,4.7256,4.5619,4.8319,5.1208,5.4194,5.7449,6.1147,6.4778,6.1478,5.9652,5.8971,5.6966,5.5558,5.476,5.4636,5.5061,5.5572,5.4077,5.4036,5.4299,5.0759,4.9222,4.8647,4.7136,4.635,4.5901,4.5901,4.5795,0.0,0.0,0.0,4.7494,5.3602,5.7328,6.098,6.6756,6.9579,7.1304,7.2611,7.3709,7.4284,0.0,7.3813,7.4258,0.0,0.0,0.0,0.0,7.5382,7.5277,7.5277,7.4807,7.4441,7.4441,7.4205,7.3892,7.3604,7.3317,7.2794,7.1931,7.0938,7.0102,6.9501,6.9082,6.8847,6.8847,6.8847,6.868,6.8203,6.788,6.7297,6.6398,6.1556,5.9352,5.9352,5.5108,5.3551,5.4192,5.4192,5.4192,5.4192,5.4192,5.3985,5.3716,5.4068,5.3778,5.3282,5.4068,5.4151,5.3903,0.0,0.0,0.0,0.0,0.0,0.0,0.0,0.0,0.0,0.0,0.0,0.0,4.6425,4.6376,4.6322,4.6262,4.5723,4.5747,4.6599,4.7066,4.7426,4.7598,4.7456,0.0,4.7369,4.7369,4.7111,4.6582,4.925,5.2851,5.7353,6.0075,6.394,6.8525,6.4811,6.2405,6.1049,5.8319,5.7358,5.7408,5.5214,5.4385,5.4565,5.6138,5.5711,5.42,5.339,5.1391,4.8992,4.7591,4.6506,4.5609,4.5609,4.5609,4.5502,0.0,0.0,0.0,4.893,5.238,5.6405,6.0588,6.4508,6.7802,6.9527,0.0,7.3055,7.2506,7.3264,7.4022,7.4075,7.4101,7.4284,7.4859,7.4467,7.4101,7.4101,7.3578,7.3186,7.3186,7.2245,7.1801,7.235,7.1409,7.0755,7.0677,7.0102,6.9501,6.8926,6.8873,6.8847,6.8847,6.8847,6.868,6.8203,6.6796,6.5841,6.5333,6.0884,5.887,5.8693,5.4958,5.3199,5.3261,5.3261,5.3261,5.3261,5.3261,5.324,5.322,5.324,5.322,5.324,5.3716,5.3861,5.384,0.0,0.0,0.0,0.0,0.0,0.0,0.0,0.0,0.0,0.0,0.0,0.0,0.0,4.5996,4.583,4.5663,4.598,4.6539,4.7455,4.7673,4.7794,4.788,4.7624,0.0,0.0,4.7396,4.6933,4.6127,4.8565,5.1357,5.4468,5.8684,6.2378,6.5351,6.3834,6.2819,6.2038,5.7503,5.5958,5.63,5.4418,5.4805,5.6534,5.5236,5.5621,5.6452,0.0,0.0,5.1119,4.9643,4.813,4.6892,4.606,4.5578,4.5287,4.4964,4.5407,4.6473,4.893,5.1204,5.3818,5.7895,6.1633,6.4613,6.5606,6.8769,7.133,7.0755,7.1539,7.2559,7.3291,7.3735,7.3944,7.3787,7.3578,7.3317,7.2977,7.2402,7.201,7.201,7.1644,7.1356,7.1226,7.1147,7.0807,7.0076,6.9814,6.9448,6.8873,6.8847,6.8847,6.8847,6.8513,6.7828,6.6796,6.5892,6.5276,6.4756,6.034,5.8342,5.8144,5.4187,5.2288,5.2288,5.2288,5.264,5.3178,5.3178,5.3013,5.2764,5.3075,5.2826,5.2392,5.3137,5.322,5.3013,0.0,0.0,0.0,0.0,0.0,4.4189,4.4266,0.0,0.0,0.0,0.0,0.0,0.0,0.0,4.5958,4.5582,4.6237,4.7061,4.7684,4.7927,4.8049,4.8133,4.7794,0.0,0.0,4.7605,4.7227,4.6255,4.8536,5.0738,5.2965,5.7107,6.0616,6.3334,6.1992,6.2516,6.4023,6.0014,5.8115,5.7733,5.581,5.629,5.8024,5.7088,5.7813,0.0,0.0,0.0,0.0,5.1033,4.9061,4.7163,4.6213,4.5437,4.4964,4.4722,4.5009,4.5741,4.7649,4.9008,5.0838,5.4782,5.7651,6.0274,6.2422,6.5473,6.8141,6.8716,6.9736,7.0964,7.2297,7.2716,7.2925,7.3081,7.2794,7.2402,7.2062,7.1644,7.133,7.1147,7.0938,7.0677,7.0337,7.0442,7.0232,6.9474,6.9422,0.0,6.8873,6.8664,6.8289,6.8106,6.7774,6.7093,6.5706,6.5168,6.4723,6.4203,6.0504,5.8506,5.7814,5.4363,5.2312,5.1791,5.1791,5.2143,5.2723,5.2723,5.2536,5.2288,5.2599,5.235,5.1895,5.2661,5.2764,5.2557,0.0,4.411,4.4541,4.4572,4.4572,4.4496,4.4374,4.4297,4.4297,4.4297,0.0,0.0,0.0,0.0,0.0,4.6143,4.6689,4.7219,4.7323,4.7768,4.8133,4.8301,4.788,0.0,0.0,4.8025,4.7938,4.7309,4.9224,5.1169,5.3144,5.5777,5.9129,6.275,5.9934,6.1569,6.6664,6.5555,6.4092,6.2242,5.9531,5.8516,5.8899,6.1889,0.0,0.0,6.1336,5.8951,0.0,5.2177,0.0,0.0,4.5846,4.5245,4.4774,4.4748,4.4748,4.4748,0.0,0.0,0.0,5.0809,5.2568,5.4652,5.9938,6.1906,6.3515,6.6364,6.7906,6.9291,7.1043,7.0912,7.1095,7.2768,7.2114,7.1382,7.1409,7.1382,7.1147,7.0624,7.0023,6.9657,6.9657,6.9161,6.8847,6.8847,6.8847,6.8847,6.8821,6.8272,6.7533,6.6495,6.6469,6.5976,6.5148,6.4589,6.3981,6.3485,6.1203,5.904,5.7137,5.5269,5.3544,5.1791,5.1791,5.1791,5.1791,5.1791,5.1791,5.1791,5.1791,5.1791,5.1853,5.2309,5.2474,5.2536,4.3464,4.371,4.3987,4.4479,4.4572,4.4572,4.4496,4.4926,4.5233,0.0,0.0,0.0,4.6284,4.8042,4.9144,4.9164,4.9743,4.9585,4.8337,4.8346,4.8469,4.8521,4.8301,4.8133,4.8133,4.789,4.7718,4.7538,4.8415,4.9583,5.1109,5.3773,5.6346,5.88,5.9927,6.0676,6.1137,5.8278,5.9274,6.2445,5.9123,5.971,0.0,0.0,0.0,0.0,0.0,6.3624,6.2763,0.0,5.6815,5.2256,4.7224,4.5794,4.582,4.4983,4.5036,4.5297,4.4853,0.0,0.0,0.0,0.0,0.0,5.387,5.7503,6.0901,6.2966,6.5318,6.7645,6.9788,6.971,6.9762,7.1069,7.1017,7.0964,7.1356,7.0703,7.0102,6.9971,6.9448,6.9082,6.9082,6.8952,6.8847,0.0,6.8847,6.8664,6.8246,6.7697,6.6978,6.5976,6.5976,6.5467,6.4093,6.3917,6.2954,6.1011,5.9111,5.716,5.5269,5.3366,5.2333,5.1791,5.1791,5.1791,5.1791,5.1791,5.1791,5.1791,5.1791,5.1791,5.1812,5.1957,5.1998,5.206,4.3433,4.3802,4.4202,4.488,4.5464,4.5741,4.5464,4.6234,4.6634,0.0,0.0,0.0,4.8438,5.0564,5.1787,5.1414,5.1444,5.0861,4.9589,4.922,4.9066,4.9066,4.8538,4.8301,4.8218,4.8067,4.7839,4.7452,4.8325,4.8955,4.9464,5.1558,5.3294,5.47,5.6286,5.7154,5.7274,5.4729,5.6677,0.0,6.0866,0.0,0.0,6.5413,6.6762,0.0,0.0,0.0,6.7314,6.5182,6.0495,0.0,0.0,4.7027,4.629,4.5375,4.5349,4.5506,4.4879,4.5166,4.5813,4.7002,0.0,0.0,5.132,5.3818,5.6562,5.9255,6.1529,6.3959,6.6991,6.7462,6.7932,6.9605,6.9657,6.9788,7.0572,7.0128,6.9605,6.937,6.903,6.8847,6.8847,6.8847,6.8743,6.8507,6.8481,6.8141,6.7331,6.6965,6.6166,6.5119,6.4888,6.4118,6.2998,6.2291,6.1101,5.9738,5.8073,5.6294,5.4587,5.3544,5.2492,5.1791,5.1791,5.1791,5.1791,5.1791,5.1791,5.1791,5.1791,5.1791,5.1791,5.1791,5.1915,5.2122,0.0,4.411,4.4849,4.568,4.688,4.7619,0.0,4.8235,0.0,0.0,4.8081,4.9528,5.2206,5.4083,5.4668,5.3375,5.2667,5.1836,5.0882,5.0236,4.9866,4.9805,4.9021,4.8515,4.8262,4.8611,4.835,4.7605,4.8775,4.9104,4.8536,4.9703,5.0541,5.1109,5.1199,5.2486,5.4581,5.3683,0.0,5.9663,6.3434,6.562,0.0,0.0,7.2038,7.2059,7.2367,7.1748,7.0361,6.7451,6.1879,0.0,0.0,0.0,0.0,4.595,4.5767,4.5689,4.5088,4.5349,4.6204,4.7885,4.7964,0.0,5.0809,5.1112,5.1831,5.5569,5.7294,5.9281,6.3071,6.4351,6.5475,6.7566,6.7723,6.8089,6.9501,6.9631,6.9422,6.8899,6.8847,6.8821,6.8769,6.8743,6.8507,6.7932,6.7775,6.7253,6.6233,6.6076,6.5283,6.394,6.3453,6.272,6.1571,6.0032,5.9044,5.8593,5.7523,5.6075,5.4233,5.4233,5.3366,5.1791,5.1791,5.1791,5.1791,5.1791,5.1791,5.1791,5.1791,5.1791,5.1791,5.1791,5.2102,5.2495,4.3525,4.411,4.5126,4.6911,4.7865,4.9127,0.0,5.1282,5.159,5.2975,5.3714,5.4945,5.7161,5.7746,5.7654,5.6854,5.6176,5.4545,5.1682,5.1374,5.1067,5.0513,5.0359,5.0211,5.0211,5.0044,4.9782,4.9428,4.9492,4.9644,4.9853,5.0122,5.0301,5.0451,5.099,5.1199,5.1319,5.3204,0.0,5.8757,6.26,0.0,7.0899,7.2744,7.442,7.5707,7.5826,7.5717,7.4733,7.0162,6.62,6.2083,0.0,0.0,0.0,4.7336,4.663,4.6865,4.629,4.6552,4.71,4.7456,4.8107,0.0,4.8864,4.9949,5.1282,5.2981,5.4628,5.6432,5.8601,6.0222,6.1372,6.1842,6.3776,6.6259,6.9265,6.9291,6.8978,6.8847,6.8847,6.8664,6.8194,6.8168,6.7906,6.7305,6.6416,6.5789,6.558,6.4377,6.3361,6.2736,6.2318,6.1106,5.9333,5.8983,5.7501,5.4862,5.4627,5.3842,5.2333,5.2333,5.2152,5.1791,5.1791,5.1791,5.1791,5.1791,5.1791,5.1791,5.1791,5.1791,5.1791,5.1791,5.2102,5.2495,4.4136,4.4678,4.5711,4.7742,0.0,0.0,0.0,5.3775,5.4453,5.513,5.6977,5.8516,5.9193,5.9593,5.9255,5.79,5.6823,5.5376,5.3345,5.2575,5.2052,5.1713,5.1067,5.0764,5.0984,5.0415,5.0239,5.0484,5.0095,5.0095,5.0425,5.0571,5.0391,4.9793,5.078,5.0661,4.9912,5.2576,5.5029,5.7663,6.3588,0.0,7.2206,7.5198,7.6963,7.7861,7.819,7.831,7.745,7.2252,6.9266,0.0,5.9729,5.6503,5.4597,0.0,4.9955,4.8799,4.7649,0.0,0.0,4.8538,0.0,0.0,0.0,4.8643,4.9035,5.0498,5.1492,5.2798,5.5099,5.6693,5.8052,5.9176,6.0823,6.2966,6.5867,6.7279,6.7985,6.7985,6.7958,6.7854,6.7566,6.754,6.7174,6.6312,6.5449,6.4691,6.4247,6.3545,6.2766,6.2089,6.1677,6.0397,5.8079,5.7265,5.5679,5.3473,5.2884,5.2208,5.1791,5.1791,5.1791,5.1791,5.1791,5.1791,5.1791,5.1791,5.1791,5.1791,5.1791,5.1791,5.1791,5.1791,5.2102,5.2454,4.4564,4.5094,4.6158,4.8235,0.0,0.0,5.4206,5.5899,5.6854,5.6515,5.9347,6.1225,6.0824,6.1132,6.0948,5.9839,5.75,5.6084,5.6084,5.4206,5.3037,5.2823,5.1867,5.1379,5.1481,5.0814,5.0725,5.1152,5.0697,5.0513,5.0697,5.1053,5.0661,4.9703,5.075,5.069,4.9972,5.2366,0.0,5.7752,0.0,6.8974,7.1278,7.6185,7.8041,7.819,7.9238,7.9627,7.8878,7.4091,7.1912,7.0103,6.4093,6.0812,0.0,0.0,0.0,0.0,0.0,0.0,0.0,0.0,0.0,4.9766,0.0,0.0,0.0,4.8669,0.0,0.0,0.0,0.0,0.0,5.6719,0.0,0.0,0.0,6.3803,0.0,6.6364,6.6338,6.6312,6.6416,6.6233,6.5815,6.4951,6.4169,6.3467,6.2768,6.2664,6.2276,6.1444,6.1038,5.9665,5.7526,5.5719,5.4197,5.2929,5.1639,5.1274,5.1791,5.1791,5.1791,5.1791,5.1791,5.1791,5.1791,5.1791,5.1791,5.1791,5.1791,5.1791,5.1791,5.1791,5.2102,5.2433,4.4006,4.4533,4.5758,4.8142,5.0328,5.2975,5.673,5.75,5.8054,5.9193,6.1748,6.3687,6.4272,0.0,0.0,6.6581,0.0,0.0,6.0855,0.0,5.4114,5.3316,5.3346,5.3038,5.2184,5.2123,5.1941,5.188,5.1574,5.1296,5.1109,5.1169,5.1139,5.099,5.1139,5.1468,5.1977,0.0,5.6585,0.0,6.5323,6.6939,0.0,7.3103,7.5318,7.5647,7.8041,7.8908,7.846,0.0,7.454,7.3401,0.0,6.5385,6.4022,5.8103,0.0,0.0,0.0,0.0,0.0,0.0,5.1805,0.0,0.0,0.0,4.927,4.846,0.0,0.0,0.0,0.0,0.0,0.0,0.0,0.0,5.6588,5.8314,6.064,6.3698,6.362,6.3515,6.4012,6.3149,6.2761,6.3363,6.181,6.1141,6.1762,6.089,6.0456,6.0302,5.9943,5.878,5.6973,5.5183,5.3859,5.2929,5.1323,5.0963,5.1791,5.1791,5.1791,5.1791,5.1791,5.1791,5.1791,5.1791,5.1791,5.1791,5.1791,5.1791,5.1791,5.1791,5.2102,5.2495,4.5278,4.5739,4.6795,4.8986,5.0352,5.2359,5.6023,5.8947,6.104,6.2025,6.418,6.5873,0.0,0.0,0.0,0.0,0.0,6.2302,0.0,0.0,5.6761,5.5988,5.4821,5.4237,5.4236,5.3192,5.2733,5.2703,5.1876,5.1386,5.1386,5.1323,5.1229,5.1229,5.1618,0.0,5.3473,0.0,5.7453,0.0,0.0,0.0,0.0,7.3732,7.7053,7.7891,7.8998,7.9387,7.8938,0.0,7.5377,0.0,0.0,0.0,0.0,6.3622,0.0,5.8008,0.0,0.0,0.0,0.0,0.0,0.0,5.1126,0.0,4.9374,0.0,0.0,0.0,0.0,0.0,0.0,0.0,5.1282,5.2511,0.0,0.0,5.6432,5.9929,0.0,0.0,6.084,6.091,6.0727,6.025,6.005,5.9779,5.9309,5.9261,5.9161,5.9337,5.8882,5.7425,5.4967,5.4465,5.3315,5.1435,5.1027,5.117,5.1791,5.1791,5.1791,5.1791,5.1791,5.1791,5.1791,5.1791,5.1791,5.1791,5.1791,5.1791,5.1791,5.1791,5.1915,5.2081,4.6906,4.6778,4.7091,4.9089,4.985,5.1374,5.5161,5.8978,0.0,0.0,0.0,0.0,6.8551,6.9074,0.0,0.0,6.8828,6.6796,0.0,0.0,5.9408,0.0,0.0,0.0,0.0,5.4104,5.3249,5.313,5.1991,5.1563,5.175,5.1772,5.1858,5.2067,5.2905,5.4132,5.5688,0.0,5.9937,6.2121,6.5533,6.7567,6.9123,7.4629,7.7891,7.9537,7.9537,7.9537,7.9088,7.6155,7.6006,0.0,7.421,0.0,7.035,6.8239,6.526,6.204,5.8636,0.0,0.0,0.0,0.0,0.0,0.0,0.0,0.0,0.0,0.0,0.0,0.0,0.0,4.893,4.9766,0.0,5.0289,0.0,5.1675,5.3035,0.0,0.0,0.0,0.0,5.8421,5.8421,5.7139,5.7707,5.7832,5.7156,5.7542,5.8101,5.8704,5.8478,5.7074,5.4531,5.428,5.3081,5.0917,5.0871,5.1108,5.1419,5.1564,5.1605,5.1605,5.1605,5.1688,5.1791,5.1791,5.1791,5.1791,5.1791,5.1791,5.1791,5.1791,5.1791,5.1812,4.8415,4.6912,4.5846,4.7774,4.843,5.0266,0.0,0.0,0.0,0.0,0.0,0.0,0.0,0.0,0.0,0.0,0.0,7.2029,7.2583,0.0,6.1704,0.0,0.0,5.7181,0.0,5.4643,5.3546,5.2627,5.2282,5.2157,5.2187,5.2815,5.3473,5.4162,5.5478,5.7124,5.9129,6.1762,6.5114,6.8854,7.0859,7.3971,7.7143,0.0,7.6036,7.8819,7.8819,0.0,0.0,7.6544,7.6724,0.0,0.0,0.0,0.0,0.0,0.0,0.0,0.0,0.0,0.0,5.7195,0.0,0.0,0.0,0.0,5.2067,0.0,0.0,0.0,0.0,5.0237,4.9845,4.9871,4.9897,0.0,0.0,4.9636,5.1073,5.4001,5.5065,0.0,0.0,5.5073,5.522,0.0,5.4296,5.4592,5.5509,5.5968,5.7022,5.8679,5.9207,5.8632,5.6852,5.509,5.3566,5.2276,5.1071,5.0446,5.0466,5.0922,5.1129,5.1129,5.1129,5.1377,5.1791,5.1791,5.1791,5.1791,5.1791,5.1791,5.1791,5.1791,5.1791,5.1853,4.8573,4.7635,4.7045,4.8587,0.0,0.0,0.0,5.6977,0.0,0.0,0.0,0.0,0.0,8.0586,8.2402,0.0,0.0,7.9417,7.6523,7.206,0.0,0.0,0.0,6.1366,0.0,5.7943,5.5645,5.3546,5.3038,5.2845,5.2845,5.3084,5.3294,5.3623,5.5388,5.7513,0.0,0.0,0.0,0.0,0.0,7.5707,7.837,0.0,0.0,7.8789,7.8789,7.8789,0.0,7.8041,7.7801,7.7771,7.7532,7.6425,7.4761,7.2773,7.1689,0.0,0.0,0.0,6.7437,6.1611,0.0,0.0,0.0,0.0,0.0,0.0,0.0,0.0,0.0,5.0812,4.9897,4.9897,4.9584,4.9296,0.0,4.9244,4.9724,5.0581,5.1589,5.2077,0.0,0.0,0.0,0.0,5.1739,0.0,5.2851,5.3998,5.5315,5.6997,5.6471,5.565,5.4577,5.3138,5.1922,5.0759,5.0547,5.0425,5.0425,5.0591,5.0818,5.1108,5.1108,5.1377,5.1791,5.1791,5.1791,5.1791,5.1791,5.1791,5.1791,5.1791,5.1791,5.1874,4.9173,4.8577,4.823,0.0,0.0,0.0,0.0,0.0,0.0,0.0,7.3168,0.0,8.3541,0.0,8.7512,0.0,8.7881,8.5111,7.917,7.7385,0.0,7.1444,6.8828,0.0,0.0,6.2028,5.8662,5.5402,5.4767,5.4209,5.3729,5.3871,5.3892,5.3982,5.6226,5.868,6.1433,6.5622,6.8854,0.0,0.0,7.7293,0.0,0.0,7.8789,7.8789,0.0,7.8789,7.8789,7.8789,7.8519,7.822,7.8639,7.7472,7.5736,7.4869,7.4151,7.3163,7.0979,7.1406,0.0,6.5921,6.4008,0.0,5.6995,0.0,5.5883,0.0,0.0,0.0,0.0,0.0,5.0629,5.0949,5.0132,4.9165,0.0,4.8342,4.8236,4.824,4.9508,5.0355,4.9899,5.0509,0.0,0.0,0.0,0.0,0.0,5.0788,5.223,5.4448,5.4143,5.3575,5.2822,5.2005,5.0846,4.9514,4.997,5.0094,4.9949,5.0115,5.0342,5.0632,5.0798,5.1129,5.1564,5.1729,5.1791,5.1791,5.1791,5.1791,5.1791,5.1791,5.1791,5.1853,5.0184,4.9613,4.9353,0.0,5.0646,0.0,0.0,0.0,6.6981,0.0,7.6246,8.2033,8.6158,8.8436,9.0436,9.2314,9.2468,8.9144,8.1263,8.2433,0.0,0.0,7.3783,7.2951,7.0036,6.6545,6.2731,5.848,5.7293,5.6033,5.4797,5.504,5.5179,5.5269,5.7932,0.0,6.3288,6.7956,7.1876,7.5198,7.7771,7.8789,7.8789,7.8789,7.8789,7.8644,7.8789,7.8789,7.8789,7.8789,7.8789,7.8789,7.8789,7.837,7.7622,7.6365,7.6425,7.6365,7.3851,7.3193,7.2567,6.991,0.0,0.0,0.0,0.0,5.9385,0.0,0.0,0.0,0.0,0.0,5.1966,5.2699,5.1085,4.927,4.7597,4.7132,4.6901,4.6979,4.8816,4.9683,4.8506,4.9745,4.9234,0.0,0.0,4.6445,4.6487,4.6697,4.8223,5.1194,5.2189,5.2442,5.1638,5.166,5.0696,4.908,4.9514,4.9494,4.908,4.9514,4.9742,4.9783,5.0197,5.0653,5.115,5.1584,5.1791,5.1791,5.1791,5.1791,5.1791,5.1791,5.1791,5.1791,4.9995,5.0021,5.0113,0.0,5.1178,5.2852,0.0,0.0,0.0,0.0,8.1756,8.7481,9.3053,9.5054,9.5977,9.5977,9.5977,0.0,0.0,0.0,0.0,8.4157,8.0956,7.8462,7.6638,7.1139,6.6888,6.4351,6.0122,5.7872,5.751,5.5909,5.494,5.461,5.7723,6.0057,6.1942,6.7089,7.1996,7.6485,7.813,7.8789,7.8789,0.0,7.8004,7.7062,7.8325,7.8789,7.8789,7.8789,7.8789,7.8789,7.8789,7.8669,7.837,7.7562,7.7771,7.8041,7.6874,7.6904,7.6293,7.1948,6.9562,6.7013,0.0,0.0,0.0,0.0,0.0,0.0,0.0,0.0,0.0,5.1627,4.9993,4.8599,4.7717,4.7134,4.7212,4.8014,4.8146,4.8195,4.8328,4.8192,4.7491,0.0,0.0,0.0,4.3923,0.0,4.7624,4.9121,4.9897,5.066,5.1135,5.0188,4.9551,4.9059,4.9183,4.9183,4.908,4.9183,4.9431,4.9763,4.9887,5.0384,5.1108,5.1232,5.1501,5.1791,5.1791,5.1791,5.1791,5.1791,5.1791,5.1791,5.05,5.1257,0.0,5.2683,0.0,0.0,6.0578,0.0,0.0,7.8031,8.4065,0.0,9.3176,9.6162,9.7824,9.7732,9.7455,0.0,9.2129,0.0,0.0,8.7881,8.5758,8.3572,8.1325,7.544,0.0,6.7519,6.222,5.9168,5.8291,5.6191,5.5149,5.5179,5.7603,5.9727,6.1912,6.7777,7.2804,7.6904,7.7951,7.8519,0.0,7.8789,7.7711,7.6438,7.7387,7.7711,7.7711,7.7711,7.8179,7.8789,7.8789,7.8789,7.8729,7.834,7.8027,7.7622,7.7268,7.6946,7.5882,7.3174,7.1381,6.9357,6.5869,6.4638,6.4247,0.0,0.0,0.0,0.0,0.0,0.0,5.1701,4.9733,4.8299,4.7678,4.7821,4.7936,4.7833,4.8143,4.8292,4.7998,4.7419,4.6662,0.0,0.0,0.0,0.0,0.0,4.4695,4.6007,4.7367,4.8691,4.9801,4.953,4.9266,4.9059,4.9059,4.9059,4.9059,4.9059,4.9204,4.9473,4.9659,5.0156,5.0818,5.1025,5.1377,5.1791,5.1791,5.1791,5.1833,5.2019,5.2102,5.2102,5.1512,5.3013,0.0,0.0,0.0,0.0,0.0,6.9074,0.0,7.9478,0.0,8.9851,9.1021,9.49,9.7608,9.8132,0.0,9.5638,9.1421,9.3915,9.3361,8.8466,8.9205,8.8159,8.4834,7.9355,7.4307,0.0,0.0,6.0198,5.8195,5.6173,5.5538,5.6226,5.7543,5.9697,6.275,6.9004,7.3462,7.6395,7.7412,7.819,7.8789,7.8789,7.7711,7.6288,7.5988,7.6138,7.6288,7.6288,7.7387,7.8789,7.8789,7.8789,7.8789,7.8789,7.7623,7.6433,7.6433,7.5192,7.3929,7.3617,7.2485,7.0931,6.9227,6.7668,6.6625,6.6625,6.456,6.3254,0.0,0.0,0.0,5.2433,5.0279,0.0,0.0,0.0,4.8946,4.7639,4.8825,0.0,0.0,0.0,0.0,0.0,0.0,0.0,0.0,0.0,4.1607,4.2787,4.5002,4.6885,4.8355,4.9183,4.9431,4.9162,4.91,4.9059,4.9059,4.9059,4.9059,4.908,4.9494,4.9949,5.0446,5.086,5.1336,5.1791,5.1791,5.1791,5.1853,5.2247,5.2474,5.2578,5.2524,0.0,0.0,0.0,0.0,6.7104,7.3137,7.9201,8.3941,8.6312,9.1914,9.5792,9.6039,9.7301,9.7947,9.7516,9.7855,0.0,0.0,0.0,0.0,9.3945,9.2991,9.1175,8.8374,8.2464,7.76,0.0,0.0,0.0,0.0,5.6624,5.5538,5.6226,5.7543,6.0176,6.3947,6.8435,0.0,7.3851,7.6664,7.819,7.8789,7.8789,7.7711,7.6138,7.4743,7.5049,7.6288,7.6288,7.7387,7.8789,7.8789,7.8789,7.8789,7.8789,7.7947,7.6978,7.6978,7.5878,7.413,7.2853,7.1853,7.0772,6.9254,6.8542,6.8403,6.8403,6.7619,6.6338,6.4351,0.0,0.0,0.0,0.0,0.0,0.0,0.0,0.0,5.0089,4.9594,4.9421,0.0,0.0,0.0,0.0,0.0,0.0,0.0,0.0,4.2124,0.0,4.4236,0.0,0.0,0.0,4.8955,4.9638,4.9245,4.9059,4.9059,4.9059,4.9059,4.908,4.9162,4.9659,5.0425,5.0508,5.1046,5.1791,5.1791,5.1791,5.1812,5.1895,5.2412,5.3054,5.6577,0.0,0.0,0.0,0.0,0.0,0.0,8.6281,0.0,8.8436,9.1052,9.3237,9.3576,9.61,9.7793,9.7824,9.7793,9.7639,9.7301,9.6962,9.6316,9.53,9.3945,9.1945,8.9267,8.4249,7.9293,7.4461,0.0,0.0,0.0,0.0,5.6149,5.6942,5.8158,6.0625,6.4186,0.0,0.0,7.3163,7.6125,7.7891,7.8789,7.8789,7.7711,7.6138,7.4436,7.4281,7.4896,7.3972,7.5383,7.7534,7.7534,7.8149,7.8789,7.8789,7.777,7.6479,7.5688,7.4266,7.2551,7.082,7.0304,6.9763,6.8988,6.8847,6.8847,6.8847,6.8612,6.7645,6.5031,6.0588,0.0,0.0,0.0,0.0,0.0,0.0,5.1784,5.1282,5.0472,4.9828,4.9412,4.788,4.6907,4.7308,0.0,0.0,0.0,0.0,4.2623,0.0,0.0,0.0,4.732,0.0,4.8603,4.9038,4.881,4.8831,4.9059,4.9059,4.9059,4.9059,4.9059,4.9576,5.0466,5.0943,5.1253,5.146,5.1708,5.1646,5.1501,5.1978,5.2599,5.3178,0.0,6.1863,0.0,0.0,7.4405,0.0,8.388,9.0652,9.3915,9.019,9.0406,9.1114,9.1668,9.5054,9.7516,9.8039,9.7608,9.7301,9.7301,9.6777,9.6192,9.5515,9.4284,9.2376,8.9698,8.5604,8.0463,0.0,0.0,0.0,0.0,0.0,0.0,0.0,0.0,0.0,0.0,0.0,6.9542,7.3163,7.5916,7.7741,7.8789,7.8789,7.8004,7.6616,7.4896,7.4281,7.4127,7.243,7.3816,7.6288,7.6765,7.7711,7.8789,7.8789,7.7652,7.619,7.4479,7.2782,7.1042,6.9338,6.8926,6.8847,6.8847,6.8847,6.8847,6.8847,6.8743,6.8037,6.5946,6.2679,0.0,0.0,0.0,0.0,0.0,0.0,5.3713,5.2171,5.191,5.1158,4.9378,0.0,0.0,0.0,0.0,0.0,4.3659,0.0,0.0,0.0,0.0,4.5416,4.6616,0.0,4.8231,4.8521,4.8417,4.8624,4.9059,4.9059,4.9121,4.9204,4.9204,4.9721,5.0632,5.146,5.1522,5.115,5.1626,5.1522,5.1212,5.204,5.2702,5.3178,0.0,0.0,0.0,0.0,0.0,0.0,8.5573,9.1237,9.5115,9.4653,9.5731,9.6562,9.6623,9.7024,9.7331,9.7393,9.7331,9.7301,9.7301,9.7239,9.69,9.6223,9.5485,9.3822,9.1083,8.702,8.1633,0.0,0.0,6.4532,0.0,0.0,0.0,0.0,0.0,0.0,0.0,6.6939,7.041,7.3193,7.6425,7.816,7.8789,7.8789,7.8644,7.8325,7.6616,7.6138,7.5837,7.4127,7.4743,7.6616,7.8149,7.8644,7.8789,7.8789,7.7977,7.6732,7.5002,7.3417,7.1661,7.0083,6.9213,6.8847,6.8847,6.8847,6.8847,6.8847,6.8429,6.7697,6.6442,6.4587,6.2548,0.0,0.0,0.0,0.0,0.0,5.6249,5.3556,5.4524,5.4367,5.1622,5.1376,0.0,0.0,4.6117,0.0,0.0,0.0,0.0,4.3911,4.4159,4.5395,4.7548,4.7299,4.7775,4.8997,4.8583,4.8624,4.9059,4.9059,4.9287,4.9701,4.9701,5.0197,5.1087,5.1584,5.1522,5.115,5.1626,5.1522,5.117,5.1688,5.2433,5.3178,0.0,0.0,0.0,0.0,0.0,0.0,0.0,9.2807,9.4807,9.5207,9.6439,9.7301,9.7301,9.7301,9.7301,9.7301,9.7301,9.7301,9.7301,9.7301,9.6808,9.5731,9.5423,9.3822,9.0683,8.822,8.3634,0.0,0.0,0.0,0.0,0.0,0.0,0.0,0.0,6.2919,6.5502,6.88,7.1667,7.43,7.6814,7.819,7.8789,7.8789,7.8789,7.8644,7.6914,7.6288,7.6138,7.5534,7.5686,7.6467,7.7092,7.8004,7.8789,7.8789,7.8503,7.7621,7.4832,7.3711,7.2469,6.9802,6.9004,6.8847,6.8847,6.8847,6.8847,6.8847,6.8664,6.8246,6.7462,6.5867,6.4168,0.0,0.0,0.0,0.0,0.0,0.0,5.4053,5.2929,5.1727,5.0237,5.0045,0.0,0.0,0.0,0.0,0.0,0.0,0.0,4.4473,0.0,4.5623,4.6471,4.6575,4.703,4.7858,4.7651,4.7796,4.8252,4.8521,4.9059,4.9783,5.0342,5.0611,5.0736,5.1191,5.1108,5.0736,5.1212,5.1274,5.117,5.1626,5.2392,5.3178,7.7729,0.0,7.9847,0.0,8.6829,8.8159,9.3053,9.4069,9.4653,9.5731,9.6531,9.7054,9.727,9.7301,9.7301,9.7301,9.7301,9.7301,9.7301,9.7301,9.6777,9.5608,9.5392,0.0,9.0867,8.9297,8.545,7.9232,7.5096,0.0,0.0,0.0,0.0,0.0,6.425,6.6098,6.8665,7.1118,7.3507,7.5755,7.7382,7.837,7.8789,7.8789,7.8789,7.8644,7.7387,7.7092,7.7092,7.7092,7.7092,7.7092,7.7092,7.7857,7.8789,7.8789,7.8789,7.8004,7.4743,7.3816,7.3034,6.9624,6.8847,6.8847,6.8847,6.8847,6.8847,6.8847,6.8847,6.8716,6.8324,6.7096,6.5711,6.4404,0.0,0.0,0.0,5.7477,0.0,5.4367,5.2694,5.1047,4.9479,4.9525,0.0,0.0,0.0,0.0,0.0,0.0,0.0,0.0,0.0,0.0,4.6437,4.628,4.6637,4.7217,4.7092,4.7403,4.8107,4.8562,4.9142,4.9804,5.0715,5.0839,5.0466,5.1067,5.0963,5.0466,5.1087,5.1232,5.117,5.1626,5.2309,5.2992,8.2341,8.4065,8.6281,9.0436,9.1698,9.2837,9.493,9.4684,9.4992,9.6993,9.6685,9.6531,9.7208,9.7301,9.7301,9.7301,9.7301,9.7301,9.7301,9.7301,9.6993,0.0,0.0,9.4315,9.2252,9.0221,8.6835,8.2033,0.0,0.0,6.9365,0.0,6.5991,6.6174,6.882,7.0401,7.1283,7.407,7.6107,7.7494,7.8393,7.8789,7.8789,7.8789,7.8789,7.8789,7.8789,7.8789,7.8789,7.8789,7.8789,7.8789,7.8789,7.8789,7.8789,7.8789,7.8789,7.8004,7.4743,7.3816,7.3034,6.9624,6.8847,6.8847,6.8847,6.8847,6.8847,6.8847,6.8847,6.8847,6.8847,6.835,6.7383,6.5632,0.0,0.0,0.0,5.8862,0.0,5.455,5.5177,5.4262,5.0263,5.1439,0.0,0.0,0.0,0.0,0.0,0.0,0.0,4.7973,4.7569,0.0,4.7944,4.6901,4.6803,4.7672,4.7237,4.7734,4.9059,4.9535,4.9742,4.9804,5.0715,5.0839,5.0487,5.1419,5.1253,5.0508,5.1439,5.1522,5.117,5.1626,5.2102,5.2557,8.6065,8.7666,8.9297,9.1514,9.2468,9.3114,9.3761,9.4069,9.4653,9.5762,9.6131,9.6531,9.7208,9.7301,9.7301,0.0,9.7301,9.7301,0.0,9.7301,9.6777,9.5638,9.5392,9.4099,9.1606,9.0467,8.8005,8.4157,0.0,0.0,0.0,7.0617,7.0341,7.0893,7.2422,7.3845,7.5195,7.6727,7.7806,7.8333,7.8609,7.8789,7.8789,7.8789,7.8789,7.8789,7.8789,7.8789,7.8789,7.8789,7.8789,7.8789,7.8789,7.8789,7.8644,7.7387,7.7092,7.6288,7.3034,7.2112,7.1632,6.932,6.8847,6.8847,6.8847,6.8847,6.8847,6.8847,6.8847,6.8716,6.8324,6.7775,6.6808,6.5083,6.3515,0.0,5.9124,0.0,5.5412,5.3295,5.2668,5.1753,5.0054,5.076,0.0,0.0,0.0,0.0,0.0,0.0,0.0,0.0,4.9814,0.0,4.858,4.8122,4.7729,4.7237,4.6782,4.7113,4.8148,4.8935,4.9452,4.9783,5.0384,5.0384,5.0011,5.0611,5.0694,5.0487,5.1087,5.1439,5.1605,5.175,5.2102,5.2516,8.8589,8.9851,9.1021,9.2345,9.3145,9.3668,9.3945,9.4346,9.4992,9.5915,9.6192,9.6531,9.7208,9.7301,0.0,9.7301,9.7301,9.7301,9.7301,9.7301,9.6685,9.5331,9.5023,9.373,9.1267,9.0559,0.0,8.625,8.3018,7.9324,7.5261,7.4584,7.4461,7.4953,7.6077,7.7099,7.7912,7.8698,7.8971,7.9076,7.8789,7.8789,7.8789,7.8789,7.8789,7.8789,7.8789,7.8789,7.8789,7.8789,7.8789,7.8789,7.8789,7.8789,7.847,7.6765,7.6288,7.5534,7.2271,7.1338,7.0853,6.9154,6.8847,6.8847,6.8847,6.8847,6.8847,6.8847,6.8847,6.8664,6.8089,6.7671,6.6861,6.5136,6.3593,6.1659,5.8915,0.0,5.4759,5.3034,5.2197,0.0,0.0,5.1465,5.1654,0.0,0.0,0.0,0.0,0.0,0.0,5.1101,5.1656,5.1396,5.038,4.9339,4.8445,4.799,4.74,4.732,4.7713,4.8645,4.9224,4.9514,4.997,4.9908,4.9556,5.0342,5.057,5.0487,5.1129,5.1543,5.1812,5.1998,5.2143,5.2309,9.0098,9.0867,0.0,0.0,9.3822,0.0,9.5177,9.53,9.5792,9.7054,9.6716,9.6593,9.7208,9.7301,9.7301,9.7301,0.0,0.0,0.0,9.7301,9.6685,9.5331,9.4623,9.3299,9.1267,9.0559,8.9544,8.8128,8.4218,8.1294,7.9355,7.8647,7.8278,7.8308,7.9601,7.9881,7.9636,7.9798,7.9789,7.9363,7.8933,7.8789,7.8789,7.8789,7.8789,7.8789,7.8789,7.8789,7.8789,7.8789,7.8789,7.8789,7.8789,7.8789,7.847,7.6765,7.6138,7.5383,7.2112,7.1177,7.0718,6.9154,6.8847,6.8847,6.8847,6.8847,6.8847,6.8847,6.8847,6.8664,6.8037,6.7932,6.7331,6.5501,6.4221,6.2234,5.881,5.6824,5.5125,0.0,0.0,0.0,0.0,5.3191,5.2828,0.0,0.0,0.0,0.0,0.0,5.2176,5.2226,5.2788,5.2956,5.3004,5.0426,4.9219,4.9563,4.8754,4.8148,4.7755,4.8624,4.9038,4.908,4.9514,4.9452,4.9162,5.0508,5.0798,5.0508,5.1439,5.1791,5.1853,5.2288,5.2185,5.204,0.0,0.0,9.2406,9.3792,9.4161,9.45,9.5177,9.57,9.6162,9.647,9.6839,9.7116,9.727,9.7301,9.7301,9.7301,9.7301,9.7301,9.7301,9.7301,9.6685,9.5331,9.4623,9.3299,9.1267,9.0559,8.9297,8.742,8.5388,8.3634,8.2125,8.1448,8.0832,8.0371,8.0679,8.0695,8.0278,7.998,7.9789,7.9363,7.8933,7.8789,7.8789,7.8789,7.8789,7.8789,7.8789,7.8789,7.8789,7.8789,7.8789,7.8789,7.8789,7.8789,7.847,7.6765,7.5354,7.3972,7.1793,7.0392,6.932,6.8847,6.8847,6.8847,6.8847,6.8847,6.8847,6.8847,6.8847,6.8533,6.7488,6.7305,6.6442,6.3855,6.2077,5.9986,5.6954,5.5072,5.3504,0.0,5.2825,5.3295,5.3008,5.3347,5.3583,0.0,0.0,0.0,5.2628,5.2729,5.2904,5.3306,5.4352,5.4353,5.3534,5.2902,5.1546,4.9563,4.8754,4.8314,4.821,4.8438,4.8728,4.908,4.9183,4.9162,4.9142,5.0156,5.0529,5.0508,5.1439,5.1791,5.1812,5.1915,5.2122,5.2371,9.2037,9.2468,9.2991,9.4069,9.4777,9.53,9.5669,9.6316,9.6747,9.6747,9.7054,9.7301,9.7301,9.7301,9.7301,9.7301,9.7301,9.7301,9.7301,9.7301,9.6685,9.5331,9.4315,9.296,9.1267,9.0252,8.9051,8.7666,8.625,8.5019,8.4003,8.3326,8.2464,8.154,8.154,8.1217,8.0492,8.0658,8.0204,7.9393,7.9551,7.9203,7.8789,7.8789,7.8789,7.8789,7.8789,7.8789,7.8789,7.8789,7.8789,7.8789,7.8789,7.8789,7.8644,7.7711,7.5686,7.3505,7.1793,7.0091,6.8847,6.8847,6.8847,6.8847,6.8847,6.8847,6.8847,6.8847,6.8847,6.8481,6.7305,6.6887,6.5684,6.2548,6.0797,5.8732,5.5569,5.4341,5.3426,5.2537,5.3452,5.4184,5.4184,5.4889,5.5013,5.4073,5.3587,0.0,5.3306,5.3783,5.4059,5.411,5.5189,5.5555,5.5187,5.3871,5.212,4.989,4.8859,4.8376,4.8376,4.8603,4.8831,4.9059,4.9059,4.9183,4.9431,5.0135,5.0549,5.0798,5.1522,5.1936,5.2143,5.235,5.2599,5.2868,9.2437,9.3053,9.373,9.4438,9.5515,9.6316,9.6408,9.6931,9.7301,9.7301,9.7301,9.7301,9.7301,9.7301,9.7301,9.7301,9.7301,9.7301,9.7301,9.7208,9.6593,9.5331,9.3945,9.256,9.1237,8.9913,8.8866,8.8189,8.6896,8.5881,8.508,8.4403,8.3418,8.2218,8.2218,8.177,8.0969,8.1409,8.0893,7.9867,8.0297,7.9827,7.8938,7.8938,7.8878,7.8789,7.8908,7.8938,7.8968,7.9058,7.9028,7.8938,7.8938,7.8878,7.8789,7.8789,7.6616,7.3816,7.2112,7.0255,6.8847,6.8847,6.8847,6.8847,6.8847,6.8847,6.8847,6.8847,6.8847,6.8481,6.7305,6.6573,6.5083,6.179,5.996,5.7895,5.4785,0.0,5.3818,5.3452,5.4471,5.5255,5.536,5.6745,5.66,5.4055,5.5406,5.551,5.3381,5.4712,5.529,5.4838,5.5792,5.6595,5.7148,5.424,5.2126,5.0696,4.9152,4.8417,4.85,4.8893,4.9059,4.908,4.9204,4.9452,4.9804,5.0322,5.0798,5.1253,5.1729,5.2185,5.264,5.3033,5.322,5.3406,9.3915,9.45,9.5177,9.5854,9.6131,9.647,9.7054,9.7208,9.7301,9.7301,9.7301,9.7301,9.7301,9.7301,9.7301,9.7301,9.7301,9.7301,9.7301,9.6747,9.61,9.53,9.3945,9.256,9.1237,8.9913,8.8866,8.8189,8.7389,8.6373,8.508,8.4403,8.3695,8.2926,8.2926,8.2864,8.263,8.201,8.1722,8.1486,8.0878,8.0255,7.9656,7.9656,7.9297,7.8878,7.9447,7.9656,7.9746,8.0315,8.0105,7.9656,7.9656,7.9267,7.8789,7.8789,7.7387,7.5534,7.3816,7.1177,6.8847,6.8847,6.8847,6.8847,6.8847,6.8847,6.8847,6.8847,6.8847,6.8481,6.7305,6.6233,6.4717,6.2234,5.9228,5.6693,5.5177,0.0,5.2929,5.3347,5.4811,5.5987,5.6484,5.7216,5.7432,5.6855,5.6175,5.5637,5.4988,5.5691,5.6043,5.5968,5.657,5.7173,5.775,5.4784,5.3268,5.2946,4.978,4.8583,4.8955,4.9038,4.9059,4.91,4.9887,5.0032,4.9825,5.0653,5.1274,5.1729,5.2205,5.2661,5.3075,5.3157,5.3427,5.3758,9.4807,9.5361,9.5915,9.6223,9.6593,9.6931,9.7239,9.7301,9.7301,9.7301,9.7301,9.7301,9.7301,9.7301,9.7301,9.7301,9.7301,9.7301,9.7301,9.6993,9.6346,9.5331,9.4315,9.2807,9.0713,8.9359,8.8682,8.8743,8.7697,8.705,8.6743,8.5696,8.4834,8.4157,8.3788,8.3418,8.311,8.3051,8.2558,8.1964,8.1921,8.1386,8.0345,8.0345,8.0165,7.9926,8.0225,8.0345,8.0405,8.0704,8.0584,8.0345,8.0345,8.0135,7.9806,7.9447,7.7207,7.459,7.2877,7.0718,6.8847,6.8847,6.8847,6.8847,6.8847,6.8847,6.8847,6.8847,6.8847,6.8586,6.7723,6.6129,6.4273,6.2287,5.8784,0.0,5.5229,5.4131,5.387,5.5099,5.6196,5.732,5.8523,5.8601,5.8395,5.7934,5.7328,5.6861,5.6269,5.6821,5.7123,5.7123,5.765,5.7598,5.6878,5.4986,5.3447,5.2488,5.0315,4.9224,4.9452,4.968,4.9783,4.9825,5.0239,5.0446,5.0529,5.1212,5.175,5.2226,5.2681,5.3137,5.353,5.353,5.382,5.4213,9.5485,9.6039,9.6531,9.6531,9.6962,9.7301,9.7301,9.7301,9.7301,9.7301,9.7301,9.7301,9.7301,9.7301,9.7301,9.7301,9.7301,9.7301,9.7301,9.7147,9.6531,9.5331,9.4315,9.2745,9.0498,8.9267,8.8836,8.9205,8.8005,8.7697,8.8159,8.6773,8.585,8.5296,8.4649,8.4034,8.3603,8.3952,8.3458,8.245,8.285,8.2226,8.1033,8.1033,8.0943,8.0823,8.0973,8.1033,8.1063,8.1212,8.1153,8.1033,8.1033,8.0913,8.0704,8.0195,7.7194,7.3701,7.2299,7.0392,6.8847,6.8847,6.8847,6.8847,6.8847,6.8847,6.8847,6.8847,6.8847,6.8664,6.8089,6.6103,6.3959,6.226,0.0,5.6066,0.0,5.502,5.536,5.6824,5.7634,5.8627,6.0091,5.983,5.9279,5.8525,5.8525,5.8136,5.7548,5.7951,5.8226,5.7992,5.8527,5.8037,5.6468,5.509,5.3709,5.2009,5.0565,4.9908,4.9928,5.0384,5.0529,5.0425,5.0653,5.088,5.115,5.1729,5.2226,5.2702,5.3157,5.3613,5.4006,5.4006,5.4234,5.4544,9.6069,9.6747,9.7208,9.7208,9.727,9.7301,9.7301,9.7301,9.7301,9.7301,9.7301,9.7301,9.7301,9.7301,9.7301,9.7301,9.7301,9.7301,9.7301,9.6716,9.6039,9.53,9.3422,9.2006,9.1175,9.0436,8.979,8.9205,8.8466,8.8159,8.8159,8.6773,8.6096,8.6004,8.5327,8.5019,8.4957,8.4552,8.4259,8.3786,8.3431,8.274,8.1721,8.1721,8.1332,8.0883,8.1482,8.1721,8.1811,8.2409,8.22,8.1721,8.1721,8.1302,8.0794,8.0734,7.7863,7.4547,7.3829,7.1338,6.8847,6.8847,6.8847,6.8847,6.8847,6.8847,6.8847,6.8847,6.8847,6.8664,6.8089,6.6103,6.3959,6.226,0.0,0.0,5.6013,5.6301,5.685,5.7529,5.8575,5.949,6.0169,6.0195,6.0023,5.9584,5.9289,5.9076,5.9135,5.9235,5.9028,5.8386,5.85,5.8229,5.755,5.5789,5.422,5.2821,5.1197,5.0363,5.0384,5.0839,5.0818,5.0466,5.1315,5.1481,5.117,5.2081,5.2702,5.3178,5.3633,5.4089,5.4482,5.4482,5.4503,5.4544,9.6777,9.7116,9.7301,9.7301,9.7301,9.7301,9.7301,9.7301,9.7301,9.7301,9.7301,9.7301,9.7301,9.7301,9.7301,9.7301,9.7301,9.7301,9.7301,9.6654,9.5792,9.4684,9.2683,9.1483,9.1237,9.0159,8.9451,8.9205,8.8959,8.8836,8.8805,8.742,8.6773,8.6743,8.5604,8.5111,8.5111,8.4966,8.4497,8.3938,8.3789,8.3191,8.238,8.238,8.223,8.205,8.229,8.238,8.2439,8.2679,8.2589,8.238,8.238,8.223,8.1691,7.9775,7.7155,7.4446,7.2727,7.0555,6.8847,6.8847,6.8847,6.8847,6.8847,6.8847,6.8847,6.8847,6.8847,6.8769,6.856,6.6625,6.4848,6.4195,0.0,5.881,5.9098,5.8706,5.8889,6.0169,6.0405,6.0823,6.1738,6.1189,6.078,6.0671,6.0397,6.0201,6.0302,6.0065,5.9697,5.8921,5.8249,5.6947,5.4826,5.4176,5.2927,5.1435,5.1048,5.0839,5.086,5.1336,5.1439,5.1294,5.1646,5.1708,5.1605,5.2536,5.3033,5.3261,5.3985,5.4379,5.4544,5.4544,5.4544,5.4544,9.6839,9.7147,9.7301,9.7301,9.7301,9.7301,9.7301,9.7301,9.7301,9.7301,9.7301,9.7301,9.7301,9.7301,9.7301,9.7301,9.7301,9.7301,9.7301,9.6654,9.5669,9.4315,9.2714,9.176,9.1544,9.0621,8.9944,8.9513,8.9513,8.9421,8.9174,8.8035,8.7512,8.7451,8.6035,8.5419,8.5419,8.5203,8.4674,8.4055,8.3938,8.3491,8.292,8.292,8.2769,8.2769,8.2769,8.2769,8.2769,8.2769,8.2769,8.2769,8.2769,8.2435,8.1403,7.8532,7.6306,7.4076,7.1744,7.018,6.9291,6.8926,6.8847,6.8899,6.9082,6.9108,6.9108,6.9108,6.9108,6.9056,6.8873,6.7253,6.5815,6.5449,6.2914,6.1136,6.1581,6.111,6.1163,6.2365,6.2156,6.2156,6.2757,6.2104,6.1666,6.1906,6.0814,6.0191,6.0472,6.068,6.0441,5.9498,5.7975,5.6105,5.356,5.3234,5.2388,5.086,5.117,5.1336,5.1336,5.1646,5.1791,5.1791,5.1791,5.1874,5.2081,5.2868,5.3261,5.3468,5.4234,5.4544,5.4544,5.4544,5.4544,5.4544,9.6131,9.6808,9.727,9.727,9.727,9.727,9.7301,9.7301,9.7301,9.7301,9.7301,9.7301,9.7301,9.7301,9.7301,9.7301,9.7301,9.7301,9.727,9.6654,9.5669,9.4315,9.3576,9.2899,9.2252,9.2222,9.1575,9.0221,9.0221,8.9882,8.9205,8.8497,8.8189,8.8128,8.6743,8.6127,8.6065,8.5388,8.4789,8.4497,8.4055,8.364,8.3371,8.292,8.2769,8.2769,8.2769,8.2769,8.2769,8.2769,8.2769,8.2769,8.2769,8.161,7.9689,7.7439,7.546,7.3554,7.1215,7.0598,7.0311,6.9135,6.8847,6.9004,6.9553,6.9684,6.9684,6.9684,6.9684,6.9527,6.8952,6.788,6.673,6.558,6.4926,6.4142,6.3018,6.3332,6.3698,6.3698,6.3698,6.3463,6.2888,6.2835,6.2835,6.2835,6.0236,5.8935,5.9209,6.0972,6.1407,6.0075,5.7677,5.597,5.4565,5.3909,5.3052,5.1791,5.1791,5.1791,5.1791,5.1812,5.1812,5.1812,5.1812,5.2081,5.2536,5.2992,5.3447,5.3882,5.4358,5.4544,5.4544,5.4544,5.4544,5.4544,9.7559,9.682,9.662,9.8623,9.7627,9.6747,9.7208,9.7301,9.7301,9.7301,9.7301,9.7301,9.7301,9.7301,9.7301,9.7301,9.7301,9.69,9.5946,9.57,9.4961,9.3576,9.3299,9.2899,9.2252,9.176,9.1083,9.0221,9.0221,8.9882,8.9205,8.8497,8.8189,8.8159,8.7266,8.6589,8.6096,8.5911,8.525,8.4497,8.4055,8.364,8.3371,8.292,8.2769,8.2769,8.2769,8.2769,8.2769,8.2769,8.2769,8.2769,8.2769,8.2435,8.1337,7.7759,7.6275,7.5185,7.1555,7.0598,7.0415,6.9631,6.9762,6.9893,6.9239,6.9422,6.9579,6.9187,6.9108,6.903,6.8873,6.822,6.7462,6.6704,6.6129,6.5632,6.5292,6.5031,6.5031,6.5449,6.477,6.4221,6.4038,6.3672,6.3257,6.2948,6.0871,5.9437,5.9257,5.9777,6.0043,6.0075,5.7677,5.597,5.4565,5.3038,5.2186,5.1791,5.1791,5.1791,5.1812,5.2143,5.2288,5.2309,5.264,5.2847,5.3013,5.3468,5.3716,5.3882,5.4358,5.4544,5.4544,5.4544,5.4544,5.4544,9.7559,9.6996,9.671,9.86,9.778,9.6851,9.6942,9.69,9.6993,9.727,9.7301,9.7301,9.7301,9.7301,9.7301,9.7301,9.7054,9.6439,9.5331,9.5269,9.4653,9.3268,9.3453,9.3299,9.2622,9.2222,9.1544,9.0621,9.0621,9.0252,8.9605,8.9174,8.899,8.8959,8.8282,8.7604,8.6927,8.665,8.598,8.5042,8.4481,8.4032,8.3491,8.3071,8.2769,8.2769,8.2769,8.2769,8.2798,8.3068,8.3158,8.3098,8.2858,8.1793,8.0219,7.7723,7.6012,7.4463,7.2019,7.1278,7.1121,7.052,7.0494,7.0415,6.971,6.9788,6.9893,6.9291,6.9187,6.9108,6.8873,6.856,6.822,6.7854,6.7514,6.7305,6.7305,6.6782,6.6547,6.6913,6.5946,6.5136,6.49,6.4351,6.3181,6.1021,5.9917,5.8902,5.7361,5.8038,5.854,5.904,5.6862,5.5307,5.4587,5.2671,5.1791,5.1791,5.1998,5.2081,5.2081,5.2557,5.2764,5.2785,5.3054,5.3282,5.3468,5.3737,5.3944,5.4151,5.442,5.4544,5.4544,5.4544,5.4544,5.4544,9.7129,9.7452,9.7896,9.7991,9.7837,9.7279,9.662,9.648,9.6593,9.7208,9.7301,9.7301,9.7301,9.7301,9.7301,9.7301,9.6685,9.6008,9.5392,9.5238,9.4623,9.333,9.3915,9.3945,9.3299,9.3207,9.256,9.1298,9.1237,9.0867,9.0221,9.0221,9.0221,9.019,8.9636,8.8959,8.8251,8.7635,8.6927,8.6072,8.5361,8.4697,8.3971,8.3221,8.2948,8.2948,8.2948,8.2948,8.3008,8.3547,8.3726,8.3606,8.2978,8.0463,7.7689,7.7526,7.5089,7.2472,7.2297,7.2297,7.2167,7.1618,7.1069,7.0651,7.0546,7.0546,7.0415,6.9762,6.9631,6.9448,6.8952,6.8847,6.8847,6.8847,6.8847,6.8847,6.8847,6.835,6.7985,6.7985,6.7017,6.6129,6.558,6.4847,6.2476,5.8045,5.8226,5.7332,5.4741,5.612,5.7137,5.7309,5.5597,5.4587,5.4587,5.2671,5.1791,5.1812,5.2267,5.2495,5.2516,5.3013,5.324,5.324,5.3282,5.353,5.3903,5.3903,5.4151,5.4544,5.4544,5.4544,5.4544,5.4544,5.4544,5.4544,10.0837,9.9889,9.937,10.1642,9.9614,9.7716,9.8128,9.7472,9.7116,9.727,9.7301,9.7301,9.7301,9.7301,9.7301,9.7301,9.6685,9.6223,9.6069,9.5084,9.4346,9.4038,9.4192,9.4192,9.4038,9.3484,9.2807,9.2006,9.1483,9.0867,9.0221,9.0221,9.0221,9.0221,9.0621,9.0098,8.8959,8.8836,8.8066,8.6958,8.6031,8.5638,8.5335,8.4602,8.4295,8.4295,8.4295,8.4295,8.4235,8.3846,8.3726,8.3606,8.2978,8.1301,7.9328,7.7851,7.6068,7.4096,7.2621,7.2297,7.2271,7.214,7.167,7.099,7.0102,7.0259,7.0285,6.9239,6.903,6.9004,6.8873,6.8847,6.8847,6.8847,6.8847,6.8847,6.8847,6.835,6.7985,6.7985,6.7357,6.6861,6.673,6.47,6.182,5.8634,5.6896,5.5619,5.4565,5.4917,5.5772,5.7309,5.5597,5.4587,5.4587,5.2671,5.1791,5.1812,5.2267,5.2495,5.2516,5.3323,5.3696,5.3716,5.4089,5.4296,5.4379,5.4379,5.4441,5.4544,5.4544,5.4544,5.4544,5.4544,5.4544,5.4544,10.1097,10.0449,10.0136,10.1593,10.0563,9.912,9.8217,9.8031,9.7852,9.7405,9.7301,9.7301,9.7301,9.7301,9.7301,9.7301,9.6685,9.6131,9.5823,9.4838,9.4253,9.4253,9.4253,9.4407,9.4746,9.4069,9.3361,9.2683,9.2037,9.1514,9.1175,9.1175,9.1175,9.1175,9.1206,9.0652,8.9667,8.9359,8.862,8.7666,8.6731,8.6214,8.5759,8.5023,8.4714,8.4714,8.4714,8.4714,8.4624,8.3965,8.3726,8.3606,8.2978,8.0961,7.866,7.7689,7.5734,7.3382,7.2279,7.2088,7.2219,7.1931,7.1853,7.1539,7.0389,7.0154,6.9919,6.903,6.8847,6.8847,6.8847,6.8847,6.8847,6.8847,6.8847,6.8847,6.8847,6.8586,6.8403,6.8403,6.788,6.7056,6.5924,6.2566,5.986,5.8172,5.5932,5.4388,5.4049,5.3868,5.4388,5.5264,5.4173,5.3634,5.3868,5.2772,5.2247,5.2454,5.2702,5.293,5.3157,5.3861,5.4172,5.4192,5.442,5.4544,5.4544,5.4544,5.4544,5.4544,5.4544,5.4544,5.4544,5.4544,5.4544,5.4544,10.0816,10.0816,10.0816,10.0816,10.1042,10.0596,9.8714,9.853,9.8474,9.7805,9.7435,9.7301,9.7301,9.7301,9.7301,9.7301,9.6685,9.6039,9.5485,9.4807,9.4438,9.4438,9.4438,9.4746,9.5423,9.4653,9.3976,9.3391,9.2591,9.2222,9.2222,9.2222,9.2222,9.2222,9.176,9.1114,9.0344,8.979,8.9082,8.8374,8.7585,8.6791,8.6092,8.5353,8.5043,8.5043,8.5043,8.5043,8.4923,8.4175,8.3906,8.3786,8.3008,8.0306,7.7526,7.7526,7.5089,7.2193,7.1696,7.1931,7.2167,7.1565,7.1696,7.1722,7.0677,7.0128,6.9657,6.8978,6.8847,6.8847,6.8847,6.8847,6.8847,6.8847,6.8847,6.8847,6.8847,6.8847,6.8847,6.8847,6.8071,6.6695,6.4219,6.052,5.8028,5.738,5.5301,5.3713,5.3178,5.3178,5.3178,5.3178,5.2806,5.2785,5.3178,5.2806,5.2847,5.3302,5.3302,5.3489,5.3861,5.4317,5.4544,5.4544,5.4544,5.4544,5.4544,5.4544,5.4544,5.4544,5.4544,5.4544,5.4544,5.4544,5.4544,5.4544,10.312,10.312,10.312,10.312,10.2088,10.1362,10.1635,9.9989,9.8758,9.9293,9.8194,9.7301,9.7301,9.7301,9.7301,9.7301,9.6685,9.6254,9.6162,9.5515,9.5146,9.5146,9.5146,9.5454,9.6131,9.49,9.4222,9.413,9.2837,9.2222,9.2222,9.2222,9.2222,9.2252,9.2714,9.2252,9.1083,9.099,9.0221,8.9051,8.8594,8.8041,8.7641,8.7205,8.6735,8.6419,8.6419,8.6419,8.621,8.4983,8.4564,8.4384,8.3158,8.0306,7.7526,7.7526,7.5089,7.2271,7.2193,7.2245,7.2167,7.1565,7.1121,7.0651,6.9971,7.0154,7.0154,6.9056,6.8847,6.8847,6.8847,6.8847,6.8847,6.8847,6.8847,6.8847,6.8847,6.8847,6.8847,6.8847,6.7374,6.5343,6.2856,6.071,5.8748,5.7425,5.5462,5.4082,5.3178,5.3178,5.3178,5.3178,5.3116,5.3116,5.3178,5.3116,5.3302,5.3758,5.3758,5.3778,5.3861,5.4317,5.4544,5.4544,5.4544,5.4544,5.4544,5.4544,5.4544,5.4544,5.4544,5.4544,5.4544,5.4544,5.4544,5.4544,10.3009,10.3009,10.3009,10.3009,10.2722,10.2524,10.2335,10.1754,10.1148,10.1133,9.9705,9.8649,9.8649,9.7898,9.7301,9.7301,9.7024,9.6685,9.6316,9.6008,9.5823,9.5823,9.5823,9.6162,9.6839,9.5885,9.5207,9.4838,9.3453,9.2776,9.2776,9.2776,9.2776,9.2776,9.2683,9.2314,9.1729,9.099,9.0313,8.9728,8.8869,8.8409,8.7914,8.7477,8.7005,8.6629,8.627,8.5881,8.5432,8.4474,8.3936,8.3517,8.2948,8.0961,7.882,7.7851,7.5734,7.3554,7.2227,7.2036,7.2167,7.1565,7.1226,7.0886,7.0337,7.0154,6.9866,6.903,6.8847,6.8847,6.8847,6.8847,6.8847,6.8847,6.8847,6.8847,6.8847,6.8847,6.8847,6.8847,6.6208,6.3982,6.2865,5.9838,5.7607,5.6653,5.5565,5.4674,5.3944,5.3944,5.3944,5.3944,5.3696,5.3675,5.3923,5.3675,5.3778,5.4234,5.4234,5.4234,5.4234,5.4441,5.4544,5.4544,5.4544,5.4544,5.4544,5.4544,5.4544,5.4544,5.4544,5.4544,5.4544,5.4544,5.4544,5.4544]},{"header":{"parameterUnit":"m.s-1","parameterCategory":1,"la1":30.6,"la2":28.766,"lo1":-90.7593,"lo2":-88.6598,"dy":0.0162,"dx":0.0183,"nx":116,"ny":114,"refTime":"2024-03-22T00:00:00:Z","depth":0,"parameterNumber":3,"parameterNumberName":"V-component_of_WINDS"},"data":[0.0,0.0,0.0,0.0,0.0,0.0,0.0,0.0,0.0,0.0,0.0,0.0,0.0,0.0,0.0,0.0,0.0,0.0,0.0,0.0,0.0,0.0,0.0,0.0,0.0,0.0,0.0,0.0,0.0,0.0,0.0,0.0,0.0,0.0,0.0,0.0,0.0,0.0,0.0,0.0,0.0,0.0,0.0,0.0,0.0,0.0,0.0,0.0,0.0,0.0,0.0,0.0,0.0,0.0,0.0,0.0,0.0,0.0,0.0,0.0,0.0,0.0,0.0,0.0,0.0,0.0,0.0,0.0,0.0,0.0,0.0,0.0,0.0,0.0,0.0,0.0,0.0,0.0,0.0,0.0,0.0,0.0,0.0,0.0,0.0,0.0,0.0,0.0,0.0,0.0,0.0,0.0,0.0,0.0,0.0,0.0,0.0,0.0,0.0,0.0,0.0,0.0,0.0,0.0,0.0,0.0,0.0,0.0,0.0,0.0,0.0,0.0,0.0,0.0,0.0,0.0,0.0,0.0,0.0,0.0,0.0,0.0,0.0,0.0,0.0,0.0,0.0,0.0,0.0,0.0,0.0,0.0,0.0,0.0,0.0,0.0,0.0,0.0,0.0,0.0,0.0,0.0,0.0,0.0,0.0,0.0,0.0,0.0,0.0,0.0,0.0,0.0,0.0,0.0,0.0,0.0,0.0,0.0,0.0,0.0,0.0,0.0,0.0,0.0,0.0,0.0,0.0,0.0,0.0,0.0,0.0,0.0,0.0,0.0,0.0,0.0,0.0,0.0,0.0,0.0,0.0,0.0,0.0,0.0,0.0,0.0,0.0,0.0,0.0,0.0,0.0,0.0,0.0,0.0,0.0,0.0,0.0,0.0,0.0,0.0,0.0,0.0,0.0,0.0,0.0,0.0,0.0,0.0,0.0,0.0,0.0,0.0,0.0,0.0,0.0,0.0,0.0,0.0,0.0,0.0,0.0,0.0,0.0,0.0,0.0,0.0,0.0,0.0,0.0,0.0,0.0,0.0,0.0,0.0,0.0,0.0,0.0,0.0,0.0,0.0,0.0,0.0,0.0,0.0,0.0,0.0,0.0,0.0,0.0,0.0,0.0,0.0,0.0,0.0,0.0,0.0,0.0,0.0,0.0,0.0,0.0,0.0,0.0,0.0,0.0,0.0,0.0,0.0,0.0,0.0,0.0,0.0,0.0,0.0,0.0,0.0,0.0,0.0,0.0,0.0,0.0,0.0,0.0,0.0,0.0,0.0,0.0,0.0,0.0,0.0,0.0,0.0,0.0,0.0,0.0,0.0,0.0,0.0,0.0,0.0,0.0,0.0,0.0,0.0,0.0,0.0,0.0,0.0,0.0,0.0,0.0,0.0,0.0,0.0,0.0,0.0,0.0,0.0,0.0,0.0,0.0,0.0,0.0,0.0,0.0,0.0,0.0,0.0,0.0,0.0,0.0,0.0,0.0,0.0,0.0,0.0,0.0,0.0,0.0,0.0,0.0,0.0,0.0,0.0,0.0,0.0,0.0,0.0,0.0,0.0,0.0,0.0,0.0,0.0,0.0,0.0,0.0,0.0,0.0,0.0,0.0,0.0,0.0,0.0,0.0,0.0,0.0,0.0,0.0,0.0,0.0,0.0,0.0,0.0,0.0,0.0,0.0,0.0,0.0,0.0,0.0,0.0,0.0,0.0,0.0,0.0,0.0,0.0,0.0,0.0,0.0,0.0,0.0,0.0,0.0,0.0,0.0,0.0,0.0,0.0,0.0,0.0,0.0,0.0,0.0,0.0,0.0,0.0,0.0,0.0,0.0,0.0,0.0,0.0,0.0,0.0,0.0,0.0,0.0,0.0,0.0,0.0,0.0,0.0,0.0,0.0,0.0,0.0,0.0,0.0,0.0,0.0,0.0,0.0,0.0,0.0,0.0,0.0,0.0,0.0,0.0,0.0,0.0,0.0,0.0,0.0,0.0,0.0,0.0,0.0,0.0,0.0,0.0,0.0,0.0,0.0,0.0,0.0,0.0,0.0,0.0,0.0,0.0,0.0,0.0,0.0,0.0,0.0,0.0,0.0,0.0,0.0,0.0,0.0,0.0,0.0,0.0,0.0,0.0,0.0,0.0,0.0,0.0,0.0,0.0,0.0,0.0,0.0,0.0,0.0,0.0,0.0,0.0,0.0,0.0,0.0,0.0,0.0,0.0,0.0,0.0,0.0,0.0,0.0,0.0,0.0,0.0,0.0,0.0,0.0,0.0,0.0,0.0,0.0,0.0,0.0,0.0,0.0,0.0,0.0,0.0,0.0,0.0,0.0,0.0,0.0,0.0,0.0,0.0,0.0,0.0,0.0,0.0,0.0,0.0,0.0,0.0,0.0,0.0,0.0,0.0,0.0,0.0,0.0,0.0,0.0,0.0,0.0,0.0,0.0,0.0,0.0,0.0,0.0,0.0,0.0,0.0,0.0,0.0,0.0,0.0,0.0,0.0,0.0,0.0,0.0,0.0,0.0,0.0,0.0,0.0,0.0,0.0,0.0,0.0,0.0,0.0,0.0,0.0,0.0,0.0,0.0,0.0,0.0,0.0,0.0,0.0,0.0,0.0,0.0,0.0,0.0,0.0,0.0,0.0,0.0,0.0,0.0,0.0,0.0,0.0,0.0,0.0,0.0,0.0,0.0,0.0,0.0,0.0,0.0,0.0,0.0,0.0,0.0,0.0,0.0,0.0,0.0,0.0,0.0,0.0,0.0,0.0,0.0,0.0,0.0,0.0,0.0,0.0,0.0,0.0,0.0,0.0,0.0,0.0,0.0,0.0,0.0,0.0,0.0,0.0,0.0,0.0,0.0,0.0,0.0,0.0,0.0,0.0,0.0,0.0,0.0,0.0,0.0,0.0,0.0,0.0,0.0,0.0,0.0,0.0,0.0,0.0,0.0,0.0,0.0,0.0,0.0,0.0,0.0,0.0,0.0,0.0,0.0,0.0,0.0,0.0,0.0,0.0,0.0,0.0,0.0,0.0,0.0,0.0,0.0,0.0,0.0,0.0,0.0,0.0,0.0,0.0,0.0,0.0,0.0,0.0,0.0,0.0,0.0,0.0,0.0,0.0,0.0,0.0,0.0,0.0,0.0,0.0,0.0,0.0,0.0,0.0,0.0,0.0,0.0,0.0,0.0,0.0,0.0,0.0,0.0,0.0,0.0,0.0,0.0,0.0,0.0,0.0,0.0,0.0,0.0,0.0,0.0,0.0,0.0,0.0,0.0,0.0,0.0,0.0,0.0,0.0,0.0,0.0,0.0,0.0,0.0,0.0,0.0,0.0,0.0,0.0,0.0,0.0,0.0,0.0,0.0,0.0,0.0,0.0,0.0,0.0,0.0,0.0,0.0,0.0,0.0,0.0,0.0,0.0,0.0,0.0,0.0,0.0,0.0,0.0,0.0,0.0,0.0,0.0,0.0,0.0,0.0,0.0,0.0,0.0,0.0,0.0,0.0,0.0,0.0,0.0,0.0,0.0,0.0,0.0,0.0,0.0,0.0,0.0,0.0,0.0,0.0,0.0,0.0,0.0,0.0,0.0,0.0,0.0,0.0,0.0,0.0,0.0,0.0,0.0,0.0,0.0,0.0,0.0,0.0,0.0,0.0,0.0,0.0,0.0,0.0,0.0,0.0,0.0,0.0,0.0,0.0,0.0,0.0,0.0,0.0,0.0,0.0,0.0,0.0,0.0,0.0,0.0,0.0,0.0,0.0,0.0,0.0,0.0,0.0,0.0,0.0,0.0,0.0,0.0,0.0,0.0,0.0,0.0,0.0,0.0,0.0,0.0,0.0,0.0,0.0,0.0,0.0,0.0,0.0,0.0,0.0,0.0,0.0,0.0,0.0,0.0,0.0,0.0,0.0,0.0,0.0,0.0,0.0,0.0,0.0,0.0,0.0,0.0,0.0,0.0,0.0,0.0,0.0,0.0,0.0,0.0,0.0,0.0,0.0,0.0,0.0,0.0,0.0,0.0,0.0,0.0,0.0,0.0,0.0,0.0,0.0,0.0,0.0,0.0,0.0,0.0,0.0,0.0,0.0,0.0,0.0,0.0,0.0,0.0,0.0,0.0,0.0,0.0,0.0,0.0,0.0,0.0,0.0,0.0,0.0,0.0,0.0,0.0,0.0,0.0,0.0,0.0,0.0,0.0,0.0,0.0,0.0,0.0,0.0,0.0,0.0,0.0,0.0,0.0,0.0,0.0,0.0,0.0,0.0,0.0,0.0,0.0,0.0,0.0,0.0,0.0,0.0,0.0,0.0,0.0,0.0,0.0,0.0,0.0,0.0,0.0,0.0,0.0,0.0,0.0,0.0,0.0,0.0,0.0,0.0,0.0,0.0,0.0,0.0,0.0,0.0,0.0,0.0,0.0,0.0,0.0,0.0,0.0,0.0,0.0,0.0,0.0,0.0,0.0,0.0,0.0,0.0,0.0,0.0,0.0,0.0,0.0,0.0,0.0,0.0,0.0,0.0,0.0,0.0,0.0,0.0,0.0,0.0,0.0,0.0,0.0,0.0,0.0,0.0,0.0,0.0,0.0,0.0,0.0,0.0,0.0,0.0,0.0,0.0,0.0,0.0,0.0,0.0,0.0,0.0,0.0,0.0,0.0,0.0,0.0,0.0,0.0,0.0,0.0,0.0,0.0,0.0,0.0,0.0,0.0,0.0,0.0,0.0,0.0,0.0,0.0,0.0,0.0,0.0,0.0,0.0,0.0,0.0,0.0,0.0,0.0,0.0,0.0,0.0,0.0,0.0,0.0,0.0,0.0,0.0,0.0,0.0,0.0,0.0,0.0,0.0,0.0,0.0,0.0,0.0,0.0,0.0,0.0,0.0,0.0,0.0,0.0,0.0,0.0,0.0,0.0,0.0,0.0,0.0,0.0,0.0,0.0,0.0,0.0,0.0,0.0,0.0,0.0,0.0,0.0,0.0,0.0,0.0,0.0,0.0,0.0,0.0,0.0,0.0,0.0,0.0,0.0,0.0,0.0,0.0,0.0,0.0,0.0,0.0,0.0,0.0,0.0,0.0,0.0,0.0,0.0,0.0,0.0,0.0,0.0,0.0,0.0,0.0,0.0,0.0,0.0,0.0,0.0,0.0,0.0,0.0,0.0,0.0,0.0,0.0,0.0,0.0,0.0,0.0,0.0,0.0,0.0,0.0,0.0,0.0,0.0,0.0,0.0,0.0,0.0,0.0,0.0,0.0,0.0,0.0,0.0,0.0,0.0,0.0,0.0,0.0,0.0,0.0,0.0,0.0,0.0,0.0,0.0,0.0,0.0,0.0,0.0,0.0,0.0,0.0,0.0,0.0,0.0,0.0,0.0,0.0,0.0,0.0,0.0,0.0,0.0,0.0,0.0,0.0,0.0,0.0,0.0,0.0,0.0,0.0,0.0,0.0,0.0,0.0,0.0,0.0,0.0,0.0,0.0,0.0,0.0,0.0,0.0,0.0,0.0,0.0,0.0,0.0,0.0,0.0,0.0,0.0,0.0,0.0,0.0,0.0,0.0,0.0,0.0,0.0,0.0,0.0,0.0,0.0,0.0,0.0,0.0,0.0,0.0,0.0,0.0,0.0,0.0,0.0,0.0,0.0,0.0,0.0,0.0,0.0,0.0,0.0,0.0,0.0,0.0,0.0,0.0,0.0,0.0,0.0,0.0,0.0,0.0,0.0,0.0,0.0,0.0,0.0,0.0,0.0,0.0,0.0,0.0,0.0,0.0,0.0,0.0,0.0,0.0,0.0,0.0,0.0,0.0,0.0,0.0,0.0,0.0,0.0,0.0,0.0,0.0,0.0,0.0,0.0,0.0,0.0,0.0,0.0,0.0,0.0,0.0,0.0,0.0,0.0,0.0,0.0,0.0,0.0,0.0,0.0,0.0,0.0,0.0,0.0,0.0,0.0,0.0,0.0,0.0,0.0,0.0,0.0,0.0,0.0,0.0,0.0,0.0,0.0,0.0,0.0,0.0,0.0,0.0,0.0,0.0,0.0,0.0,0.0,0.0,0.0,0.0,0.0,0.0,0.0,0.0,0.0,0.0,0.0,0.0,0.0,0.0,0.0,-4.2702,0.0,0.0,0.0,0.0,0.0,0.0,0.0,0.0,0.0,0.0,0.0,0.0,0.0,0.0,0.0,0.0,0.0,0.0,0.0,0.0,0.0,0.0,0.0,0.0,0.0,0.0,0.0,0.0,0.0,0.0,0.0,0.0,0.0,0.0,0.0,-3.92,-3.9465,-3.932,-3.8767,-3.932,-3.985,-4.0282,-4.0523,-3.9681,-3.795,0.0,0.0,0.0,0.0,0.0,0.0,0.0,0.0,0.0,0.0,0.0,0.0,0.0,0.0,0.0,0.0,0.0,0.0,0.0,0.0,0.0,0.0,0.0,0.0,0.0,0.0,0.0,0.0,0.0,0.0,0.0,0.0,0.0,0.0,0.0,0.0,0.0,0.0,0.0,0.0,0.0,0.0,0.0,0.0,0.0,0.0,0.0,0.0,0.0,0.0,0.0,0.0,0.0,0.0,0.0,0.0,0.0,0.0,0.0,0.0,0.0,0.0,0.0,0.0,0.0,0.0,0.0,0.0,0.0,0.0,0.0,-4.4763,0.0,0.0,0.0,0.0,0.0,0.0,0.0,0.0,0.0,0.0,0.0,0.0,0.0,0.0,0.0,0.0,0.0,0.0,0.0,0.0,0.0,0.0,0.0,-3.6986,-3.7083,-3.7311,-3.7073,-3.726,-3.7903,-3.8128,-3.8503,-3.908,-3.9513,-3.9753,-3.9753,-3.9826,-3.9801,-3.9609,-4.0162,-4.1557,-4.3746,-4.4924,-4.3818,-4.086,-3.9922,0.0,0.0,0.0,0.0,0.0,0.0,0.0,0.0,0.0,0.0,0.0,0.0,0.0,0.0,0.0,0.0,0.0,0.0,0.0,0.0,0.0,0.0,0.0,0.0,0.0,0.0,0.0,0.0,0.0,0.0,0.0,0.0,0.0,0.0,0.0,0.0,0.0,0.0,0.0,0.0,0.0,0.0,0.0,0.0,0.0,0.0,0.0,0.0,0.0,0.0,0.0,0.0,0.0,0.0,0.0,0.0,0.0,0.0,0.0,0.0,0.0,0.0,0.0,-5.2238,-5.336,-5.4197,-5.4865,-5.4981,-5.4517,-5.1439,-4.8624,-4.6243,-4.633,0.0,0.0,0.0,0.0,0.0,0.0,0.0,0.0,0.0,0.0,0.0,0.0,0.0,0.0,0.0,0.0,0.0,0.0,0.0,0.0,0.0,-3.7332,-3.7887,-3.7887,-3.8647,-3.9224,-3.9296,-3.9345,-3.9633,-4.0162,-4.0258,-4.0282,-4.0282,-4.0739,-4.0523,-3.9609,-4.2375,-4.5044,-4.7593,-4.9133,-4.9614,-4.894,-4.4299,-4.3,-4.4082,0.0,0.0,0.0,0.0,0.0,0.0,0.0,0.0,0.0,0.0,0.0,0.0,0.0,0.0,0.0,0.0,0.0,0.0,0.0,0.0,0.0,0.0,0.0,0.0,0.0,0.0,0.0,0.0,0.0,0.0,0.0,0.0,0.0,0.0,0.0,0.0,0.0,0.0,0.0,0.0,0.0,-4.4647,-4.5314,0.0,0.0,0.0,0.0,0.0,0.0,0.0,0.0,0.0,0.0,0.0,0.0,0.0,-5.1081,-5.2647,-5.4153,-5.465,-5.4194,-5.5787,-5.6636,-5.6839,-5.7507,-5.8348,-5.9306,-5.9393,0.0,-5.1381,-4.9233,0.0,0.0,0.0,0.0,0.0,0.0,0.0,0.0,0.0,0.0,0.0,0.0,0.0,0.0,0.0,0.0,0.0,0.0,0.0,0.0,0.0,-3.9224,-4.0355,-4.0643,-4.3289,-4.3791,-4.1301,-4.2664,-4.252,-4.0248,-4.0554,-4.098,-4.1268,-4.0932,-4.1389,-4.2711,-4.6511,-4.9397,-5.1441,-5.3053,-5.3966,-5.4135,-5.1177,-4.9084,-4.7617,-4.4929,0.0,0.0,0.0,0.0,0.0,0.0,0.0,0.0,0.0,0.0,0.0,0.0,0.0,0.0,0.0,0.0,0.0,0.0,0.0,0.0,0.0,0.0,0.0,0.0,0.0,0.0,0.0,0.0,0.0,0.0,0.0,0.0,0.0,0.0,0.0,0.0,0.0,0.0,0.0,-4.5054,-4.6505,-4.4995,-4.7061,-4.7707,0.0,0.0,0.0,0.0,0.0,0.0,0.0,0.0,0.0,-5.3098,-5.4194,-5.5129,-5.5729,-5.7765,-5.9015,-5.9452,-6.0874,-6.218,-6.3254,-6.3545,-6.398,-6.4532,-6.4822,-6.2906,-5.9248,-5.5213,-5.2763,-5.1512,0.0,0.0,0.0,0.0,-5.1339,-5.2688,0.0,0.0,0.0,0.0,0.0,0.0,0.0,0.0,0.0,0.0,0.0,0.0,-3.9657,-4.1846,-4.3625,-4.4708,-4.7666,-4.8036,-4.4618,-4.5614,-4.4774,-4.1375,-4.1465,-4.1774,-4.2158,-4.2062,-4.3697,-4.7161,-5.0888,-5.3702,-5.5674,-5.7309,-5.8247,-5.8608,-5.7935,-5.5506,-5.1706,-4.9044,-4.6682,-4.4499,0.0,0.0,0.0,0.0,0.0,0.0,0.0,0.0,0.0,0.0,0.0,0.0,0.0,0.0,0.0,0.0,0.0,0.0,0.0,0.0,0.0,0.0,0.0,0.0,0.0,0.0,0.0,0.0,0.0,0.0,0.0,0.0,0.0,0.0,0.0,0.0,0.0,-4.7317,-4.8827,-4.5808,-4.9291,-5.061,0.0,0.0,0.0,0.0,0.0,0.0,-5.2997,-5.4785,-5.6464,-5.8052,-5.9189,-6.0005,-6.0235,-6.218,-6.3632,-6.4561,-6.5519,-6.6825,-6.8363,-6.8363,-6.845,-6.8625,-6.8625,-6.7696,-6.5809,-6.0496,-5.7416,-5.5999,-5.4134,-5.399,-5.4813,-5.5248,-5.5822,-5.6723,0.0,0.0,0.0,0.0,0.0,0.0,0.0,0.0,0.0,0.0,0.0,-3.9128,-4.223,-4.49,-4.7497,-5.007,-5.0503,-5.0527,-5.0311,-4.7112,-4.5116,-4.49,-4.3481,-4.2687,-4.2711,-4.514,-4.8459,-5.2668,-5.4904,-5.7574,-6.0628,-6.2239,-6.2985,-6.3033,-6.349,-6.135,-5.7069,-5.1898,-4.9487,-4.8816,-4.462,0.0,0.0,0.0,0.0,0.0,0.0,0.0,0.0,0.0,0.0,0.0,0.0,0.0,0.0,0.0,0.0,0.0,0.0,0.0,0.0,0.0,0.0,0.0,0.0,0.0,0.0,0.0,0.0,0.0,0.0,0.0,0.0,0.0,0.0,0.0,0.0,0.0,0.0,-4.9698,-5.44,0.0,0.0,0.0,0.0,-5.3406,-5.5109,-5.6549,-5.7855,-5.9161,-6.128,-6.4415,-6.5141,-6.6389,-6.8218,-6.8363,-6.8479,-6.8538,-6.8596,-6.9002,-6.967,-6.967,-7.0018,-7.057,-7.057,-7.0192,-6.9089,-6.337,-6.1321,-6.1507,-5.9259,-5.9997,-6.2397,-6.2009,-6.2522,-6.3419,0.0,0.0,0.0,0.0,0.0,0.0,0.0,0.0,-3.692,-3.7458,-4.0,-4.2482,-4.4515,-4.9576,-5.3542,-5.5578,-5.7959,-5.8156,-5.5602,-5.276,-5.0026,-4.7518,-4.5038,-4.4251,-4.5285,-4.8243,-5.1345,-5.4568,-5.8103,-6.0724,-6.2528,-6.4115,-6.4861,-6.4885,-6.5414,-6.4813,-6.3081,-5.8103,-5.4688,-5.2429,-4.8294,-4.5229,0.0,0.0,0.0,0.0,0.0,0.0,0.0,0.0,0.0,0.0,0.0,0.0,0.0,0.0,0.0,0.0,0.0,0.0,0.0,0.0,0.0,0.0,0.0,0.0,0.0,0.0,0.0,0.0,0.0,0.0,0.0,0.0,0.0,0.0,0.0,0.0,0.0,-5.4691,-5.9335,0.0,-5.7067,-5.6984,-5.7245,-5.7358,-5.8987,-6.099,-6.3109,-6.4444,-6.6215,-6.8596,-6.9292,-6.996,-7.0657,-7.1063,-7.1266,-7.1266,-7.1266,-7.1615,-7.2253,-7.2253,-7.2369,-7.2573,-7.3613,-7.3408,-7.2222,-7.0705,-6.8577,-6.5985,-6.3715,-6.3743,-6.5287,-6.5991,-6.6171,-6.6245,0.0,0.0,0.0,0.0,0.0,0.0,0.0,0.0,-3.7731,-3.8847,-4.2159,-4.5475,-4.8488,-5.4098,-5.8693,-6.1037,-6.3009,-6.2665,-5.95,-5.583,-5.2425,-4.9479,-4.7125,-4.6704,-4.8291,-5.1802,-5.5001,-5.7814,-6.1205,-6.3562,-6.4981,-6.6015,-6.6713,-6.7073,-6.7602,-6.7747,-6.7362,-6.4211,-6.0291,-5.5866,-5.1947,-4.8947,-4.6439,0.0,0.0,0.0,0.0,0.0,0.0,0.0,0.0,0.0,0.0,0.0,0.0,0.0,0.0,0.0,0.0,0.0,0.0,0.0,0.0,0.0,0.0,0.0,0.0,0.0,0.0,0.0,0.0,0.0,0.0,0.0,0.0,0.0,0.0,0.0,-5.9422,-5.8958,-6.3661,-6.5489,-6.189,-6.2122,-6.2529,-6.2529,-6.4067,-6.5925,-6.8073,-6.9002,-7.025,-7.1934,-7.2398,-7.2631,-7.266,-7.3037,-7.324,-7.324,-7.324,-7.3472,-7.3908,-7.3908,-7.3908,-7.4053,-7.5535,-7.5437,-7.4526,-7.5265,-7.388,-7.1148,-6.9058,-6.8808,-6.9681,-7.0436,-7.0433,-7.007,0.0,0.0,0.0,0.0,0.0,0.0,0.0,-3.7559,-3.8411,-4.0566,-4.3737,-4.8002,-5.3862,-5.8548,-6.2624,-6.6328,-6.5149,-6.3538,-6.1951,-5.589,-5.185,-5.0744,-4.9686,-4.9926,-5.1682,-5.5794,-5.9474,-6.2672,-6.4284,-6.6135,-6.8155,-6.8228,-6.8781,-6.9791,-7.032,-7.0272,-6.9791,-6.9767,-6.5895,-5.9426,-5.5578,-5.2764,-5.0527,0.0,0.0,0.0,0.0,0.0,0.0,0.0,0.0,0.0,0.0,0.0,0.0,0.0,0.0,0.0,0.0,0.0,0.0,0.0,0.0,0.0,0.0,0.0,0.0,0.0,0.0,0.0,0.0,0.0,0.0,0.0,0.0,0.0,-5.2862,-5.9393,-6.3719,-6.2558,-6.7434,-6.967,-6.6535,-6.7957,-6.906,-6.9031,-7.0192,-7.144,-7.2689,-7.2776,-7.3327,-7.4576,-7.4605,-7.4605,-7.4634,-7.4576,-7.4576,-7.4576,-7.4576,-7.4576,-7.4576,-7.4576,-7.4576,-7.4722,-7.6219,-7.6504,-7.5983,-7.6743,-7.696,-7.6788,-7.5252,-7.5053,-7.5554,-7.5355,-7.5297,-7.5065,0.0,0.0,0.0,0.0,0.0,0.0,0.0,-3.738,-3.8307,-4.035,-4.6069,-5.1605,-5.5579,-6.1981,-6.7409,-7.0807,-6.781,-6.5524,-6.4675,-5.7879,-5.3004,-5.0792,-5.0046,-5.1874,-5.654,-5.8921,-6.1662,-6.4837,-6.7218,-6.8685,-6.9286,-7.044,-7.1138,-7.1426,-7.1955,-7.21,-7.1931,-7.1945,-7.047,-6.7482,-6.1422,-5.7285,-5.4327,0.0,0.0,0.0,0.0,0.0,0.0,0.0,0.0,0.0,0.0,0.0,0.0,0.0,0.0,0.0,0.0,0.0,0.0,0.0,0.0,0.0,0.0,0.0,0.0,0.0,0.0,0.0,0.0,0.0,0.0,0.0,-5.6403,-5.948,-5.948,-6.3719,-6.7551,-6.9495,-7.2776,-7.4343,-7.3008,-7.3763,-7.4169,-7.3705,-7.443,-7.5243,-7.6056,-7.6085,-7.6259,-7.6608,-7.6608,-7.6404,-7.594,-7.594,-7.5911,-7.5911,-7.5911,-7.5911,-7.5911,-7.5911,-7.6475,-7.7555,-7.8577,-7.9232,-7.9614,-8.0364,-8.0053,-7.8817,-7.6336,-7.5797,-7.6309,-7.6082,-7.5695,-7.5231,0.0,0.0,0.0,0.0,0.0,0.0,0.0,-3.7843,-3.9079,-4.1719,-4.8277,-5.429,-5.85,-6.4628,-6.9594,-7.1954,-6.8615,-6.5451,-6.3443,-5.7701,-5.3485,-5.2042,-5.3659,-5.6347,-6.0195,-6.2913,-6.551,-6.8035,-6.9815,-7.0921,-7.1378,-7.2508,-7.3182,-7.3422,-7.4144,-7.436,-7.412,-7.4243,-7.3687,-7.2598,-6.7858,-6.3916,-6.0434,-5.678,-5.4546,-5.3299,-5.0921,-5.0493,-5.0407,-4.6562,0.0,0.0,0.0,0.0,0.0,0.0,0.0,0.0,0.0,0.0,0.0,0.0,0.0,0.0,0.0,0.0,0.0,0.0,0.0,0.0,0.0,0.0,0.0,0.0,-6.1861,-6.5577,-6.7434,-6.9205,-7.1353,-7.4285,-7.6201,-7.7217,-7.7101,-7.7217,-7.7217,-7.7101,-7.7217,-7.7449,-7.7798,-7.7827,-7.7827,-7.7827,-7.7827,-7.7653,-7.7275,-7.6985,-7.6985,-7.7275,-7.6985,-7.7014,-7.7275,-7.7678,-7.8242,0.0,-8.0586,-8.1283,-8.1504,-8.2316,-8.1705,0.0,0.0,0.0,0.0,0.0,-7.6021,-7.5264,0.0,0.0,0.0,0.0,0.0,0.0,0.0,-3.8792,-4.0128,-4.3805,-4.9892,-5.593,-6.1272,-6.636,-6.9929,-7.1211,-6.7996,-6.4059,-6.0154,-5.6033,-5.3948,-5.4519,-5.8771,-6.1903,-6.337,-6.729,-7.0103,-7.1619,-7.2268,-7.3086,-7.4024,-7.4553,-7.5243,-7.5725,-7.669,-7.6835,-7.64,-7.64,-7.6267,-7.5711,-7.4175,-7.1249,-6.7347,-6.3866,-6.1746,-6.0502,-5.7858,-5.5411,-5.3137,-5.1135,0.0,0.0,0.0,0.0,0.0,0.0,0.0,0.0,0.0,0.0,0.0,0.0,0.0,0.0,0.0,0.0,0.0,0.0,0.0,0.0,0.0,0.0,0.0,0.0,-6.7376,-7.1121,-7.5534,-7.5243,-7.533,-7.7362,-7.8262,-7.893,-7.9452,-7.9104,-7.9017,-7.9481,-7.9075,-7.8785,-7.8611,0.0,0.0,0.0,0.0,-7.8494,-7.8494,-7.7856,-7.7856,-7.8494,-7.7827,-7.7827,-7.8378,-7.9249,-7.9656,-8.0032,-8.2068,-8.2707,-8.2108,-8.2799,-8.2256,-8.0961,-8.0405,-7.9464,-7.8238,-7.751,-7.6446,-7.5397,0.0,0.0,0.0,0.0,0.0,0.0,0.0,-3.8625,-4.0657,-4.4092,-5.0293,-5.593,-6.0129,-6.4676,-6.8676,-7.1487,-6.6552,-6.1812,-5.8312,-5.509,-5.5226,-5.9917,-6.1834,-6.4596,-6.8252,-7.0777,-7.2629,-7.3831,-7.5202,-7.6208,-7.6849,-7.7382,-7.7887,-7.8624,-7.882,-7.887,-7.8771,-7.9197,-7.9074,-7.8616,-7.8714,-7.5584,-7.0356,-6.8401,-6.6508,-6.4825,-6.2539,-6.2107,-6.2083,-5.7448,-5.6154,-5.5756,-5.1086,-4.8532,0.0,0.0,0.0,0.0,0.0,0.0,0.0,0.0,0.0,0.0,0.0,0.0,0.0,0.0,0.0,0.0,0.0,0.0,0.0,-6.7202,-7.144,-7.5592,-7.954,-8.0352,-8.0149,-7.9075,-7.9946,-8.0701,-8.0817,-8.1223,-8.1281,-8.0846,-8.1223,-8.102,-7.9975,-8.0381,-8.0178,-7.9162,-7.9133,-7.9133,-7.9133,-7.8524,-7.8524,-7.9133,0.0,0.0,-7.8378,-7.9249,-8.0207,-8.1397,-8.1941,-8.2525,-8.2923,-8.249,-8.1802,-8.0831,-7.9529,-7.8814,-7.8494,-7.8304,-7.7279,-7.6125,0.0,0.0,0.0,0.0,0.0,0.0,0.0,-3.8852,-4.0533,-4.3639,-4.8835,-5.3671,-5.7424,-6.0587,-6.3111,-6.4818,-6.1021,-5.7996,-5.7189,-5.7765,-6.0252,-6.5037,-6.7616,-7.0252,-7.2816,-7.4678,-7.5677,-7.602,-7.7293,-7.7894,-7.7653,-7.91,-7.9683,-7.9707,-8.0681,-8.0926,-8.0902,-8.1065,-8.0942,-8.0867,-8.0716,-7.8898,-7.6406,-7.394,-7.1972,-7.0513,-6.8864,-6.7743,-6.6589,-6.3936,-6.202,-6.0347,-5.7149,-5.4394,-5.1981,0.0,0.0,0.0,0.0,0.0,0.0,0.0,0.0,0.0,0.0,0.0,0.0,0.0,0.0,-5.7652,-6.0235,0.0,-6.8276,-7.2427,-7.5824,-7.8901,-8.1804,-8.2733,-8.2675,-8.1397,-8.2065,-8.2646,-8.2646,-8.2936,-8.2994,-8.2675,-8.2675,-8.2268,-8.131,-8.1543,-8.1397,-8.0759,-8.0759,-8.0759,-8.0759,-8.012,-8.012,-8.073,-7.9801,-7.9511,-7.9743,-8.0049,-8.0574,-8.1205,-8.2213,-8.2777,-8.3067,-8.282,-8.215,-8.1133,-8.0133,-7.957,-7.9134,-7.8881,-7.8039,-7.6821,0.0,0.0,0.0,0.0,0.0,0.0,0.0,-3.9258,-4.0464,-4.301,-4.6835,-5.0531,-5.3793,-5.5632,-5.6597,-5.68,-5.5658,-5.5682,-5.7333,-6.1598,-6.5837,-6.9781,-7.3503,-7.5829,-7.7028,-7.8539,-7.9176,-7.8958,-7.9832,-7.9808,-7.9201,-8.0929,-8.1566,-8.137,-8.2697,-8.3314,-8.329,-8.2721,-8.2719,-8.3083,-8.2186,-8.2028,-8.2156,-7.9269,-7.721,-7.5728,-7.4623,-7.1887,-6.8798,-6.8899,-6.6488,-6.3324,-6.2546,-6.0104,-5.7195,-5.5151,-5.4645,0.0,0.0,0.0,0.0,0.0,0.0,0.0,0.0,-5.4771,-5.6214,-5.7772,-6.0435,-6.3603,-6.7463,-7.0395,-7.356,-7.7653,-7.9859,-8.1659,-8.3487,-8.4387,-8.462,-8.401,-8.4242,-8.4474,-8.4474,-8.4474,-8.4416,-8.43,-8.3836,-8.3226,-8.2442,-8.2384,-8.2326,-8.2181,-8.2181,-8.2268,-8.2384,-8.1717,-8.1717,-8.2384,-8.1078,-8.073,-8.1136,-8.082,-8.0644,-8.0701,-8.2181,-8.296,-8.316,-8.296,-8.2344,-8.1349,-8.1229,-8.0656,-7.9936,-7.9661,-7.8659,-7.755,0.0,0.0,0.0,0.0,0.0,0.0,0.0,0.0,-4.1047,-4.3123,-4.5759,-4.8002,-4.9756,-5.1544,-5.2354,-5.1861,-5.5164,-5.8105,-5.9871,-6.4358,-6.898,-7.35,-7.6486,-7.8837,-8.0459,-8.159,-8.2647,-8.3405,-8.368,-8.3905,-8.433,-8.4429,-8.4927,-8.5423,-8.5549,-8.5574,-8.5549,-8.4973,-8.4722,-8.4697,-8.4597,-8.4793,-8.4667,-8.3286,-8.085,-7.8013,-7.6908,-7.3418,-6.9426,-6.9903,-6.8145,-6.581,-6.6212,-6.5057,-6.3159,-6.1053,-5.8126,-5.5189,-5.3529,-5.1861,-5.1321,-5.4104,-5.3812,-5.4598,0.0,-6.2109,-6.2542,-6.5071,-6.8189,-7.0889,-7.2544,-7.5417,-7.8436,-8.1223,-8.2791,-8.4155,-8.552,-8.6739,-8.7261,-8.6623,-8.6129,-8.581,-8.581,-8.581,-8.5578,-8.5026,-8.491,-8.4358,-8.3139,-8.3081,-8.282,-8.221,-8.2181,-8.2471,-8.3081,-8.2413,-8.2413,-8.3052,-8.1717,-8.1136,-8.1136,-8.082,-8.0644,-8.0671,-8.1621,-8.2493,-8.3111,-8.2426,-8.177,-8.1144,-8.1636,-8.141,-8.0803,-8.0608,-7.9637,-7.8378,0.0,0.0,0.0,0.0,0.0,0.0,0.0,0.0,0.0,-4.1888,-4.2899,-4.4004,-4.5594,-4.6316,-4.6265,-4.4913,-5.0308,-5.5337,-5.8679,-6.5322,-7.1683,-7.705,-7.9745,-8.1547,-8.2991,-8.3561,-8.4179,-8.4171,-8.4921,-8.4921,-8.4624,-8.5624,-8.6024,-8.6024,-8.6575,-8.6927,-8.6927,-8.6676,-8.6575,-8.6575,-8.6249,-8.5922,-8.5496,-8.4064,-8.1227,-7.7862,-7.6431,-7.3544,0.0,-6.9928,-6.8371,-6.6764,-6.7643,-6.6626,-6.4555,-6.2782,-6.0849,-5.8783,-5.6617,-5.5357,-5.5123,-5.7253,-5.8928,-6.1218,-6.5809,-6.7331,-6.8663,-7.1382,-7.3879,-7.6317,-7.8727,-8.0875,-8.2878,-8.4678,-8.5723,-8.6652,-8.7552,-8.7842,-8.7552,-8.6536,-8.6187,-8.6332,-8.7058,-8.7145,-8.7029,-8.6768,-8.639,-8.5636,-8.4358,-8.43,-8.3981,-8.3313,-8.3284,-8.3429,-8.372,-8.3429,-8.3255,-8.3168,-8.2239,-8.1572,-8.1136,-7.9964,-7.9396,-7.9592,-8.0832,-8.2088,-8.31,-8.2794,-8.2547,-8.2191,-8.206,-8.1803,-8.1558,-8.1368,-8.0432,-7.9107,0.0,0.0,0.0,0.0,0.0,0.0,0.0,0.0,0.0,0.0,-4.0449,-4.0734,-4.2139,-4.21,-4.1678,-4.0765,-4.6557,-5.2354,-5.7099,-6.5397,-7.2736,-7.8599,-8.1617,-8.367,-8.4902,-8.5798,-8.5945,-8.5514,-8.6516,-8.6591,-8.5761,-8.6899,-8.7402,-8.7243,-8.7802,-8.8182,-8.8283,-8.8107,-8.7956,-8.7806,-8.7555,-8.6877,-8.5772,-8.3788,-8.0524,-7.6783,-7.478,-7.175,-6.8469,-6.7542,-6.6287,-6.5445,-6.6732,-6.6387,-6.5212,-6.3793,-6.2481,-6.0863,-5.8737,-5.8348,-5.8927,-6.1073,-6.3864,-6.6941,-7.0395,-7.2544,-7.4547,-7.7304,-7.9278,-8.1281,-8.3778,-8.5287,-8.6448,-8.7348,-8.8045,-8.8568,-8.8829,-8.819,-8.7116,-8.5665,-8.5026,-8.52,-8.6506,-8.7087,-8.7552,-8.79,-8.7348,-8.6594,-8.5665,-8.5287,-8.4881,-8.4387,-8.4184,-8.4097,-8.4097,-8.4097,-8.3865,-8.3429,-8.2588,-8.1949,-8.1397,-7.9336,-7.8532,-7.8813,-7.9779,-8.1213,-8.2734,-8.2811,-8.2955,-8.3188,-8.2518,-8.2262,-8.228,-8.2128,-8.1161,-7.9836,0.0,0.0,0.0,0.0,0.0,0.0,0.0,0.0,0.0,0.0,0.0,0.0,0.0,-3.9536,-4.0168,-4.1201,-4.5671,-5.0663,-5.6277,-6.4212,-7.141,-7.7511,-8.1955,-8.5069,-8.6676,-8.8358,-8.9187,-8.9187,-8.9739,-8.999,-8.999,-8.9438,-8.9789,-9.0743,-8.9689,-8.9538,-9.0015,-8.9463,-8.8935,-8.8484,-8.9036,-8.7931,-8.5671,-8.2909,-7.9143,-7.5025,-7.2411,-6.7612,-6.248,-6.1932,-6.1248,-6.107,-6.3073,-6.4663,-6.5706,-6.4635,-6.2417,-6.0056,-5.9463,-5.9673,-6.1218,-6.5968,-6.7892,-7.0192,-7.5853,-7.8146,-7.9975,-8.3168,-8.4881,-8.6013,-8.6739,-8.79,-8.8771,-8.88,-8.9351,-8.9555,-8.8974,-8.7784,-8.6303,-8.4387,-8.2471,-8.1862,-8.3197,-8.4997,-8.6594,-8.7842,-8.7348,-8.6971,-8.6913,-8.5752,-8.5084,-8.5055,-8.4416,-8.4097,-8.4097,-8.4097,-8.4068,-8.4039,-8.2791,-8.2181,-8.2065,-7.954,-7.8532,-7.8669,-7.8669,-7.9942,-8.2039,-8.2008,-8.2556,-8.322,-8.304,-8.2982,-8.3001,-8.2888,-8.1923,-8.0664,0.0,0.0,0.0,0.0,0.0,0.0,0.0,0.0,0.0,0.0,0.0,0.0,0.0,0.0,0.0,0.0,-4.3831,-4.8367,-5.3562,-6.0737,-6.7366,-7.3067,-7.8992,-8.2909,-8.4567,-8.6927,-8.8534,-8.9287,-8.9463,-8.9538,-8.9538,-8.9764,-9.004,-9.0367,-9.0367,-9.0517,-9.0618,-9.004,-8.9538,-8.8935,-8.8032,-8.6776,-8.5094,-8.1955,-7.6884,-7.1038,0.0,-6.2879,-5.9679,-5.7722,-5.752,-5.8414,-5.9753,-6.0933,-6.1615,-6.0357,-6.0734,-6.1508,-6.1508,-6.4368,-6.8354,-7.1937,-7.4863,-7.8088,-8.221,-8.3778,-8.4823,-8.6332,-8.5316,-8.4213,-8.4416,-8.4445,-8.4881,-8.6158,-8.7958,-8.9264,-8.9467,-8.9148,-8.7203,-8.2733,-8.2384,-8.1862,-8.0178,-8.1717,-8.4068,-8.7087,-8.7087,-8.6971,-8.6971,-8.6971,-8.6594,-8.5752,-8.549,-8.5171,-8.4765,-8.4765,-8.4329,-8.3487,-8.2152,-8.1078,-8.0236,-7.8959,-7.8219,-7.7915,-7.8444,-7.9657,-8.131,-8.1805,-8.2717,-8.3901,-8.3759,-8.3736,-8.3756,-8.3648,-8.3016,-8.2022,0.0,0.0,0.0,0.0,0.0,0.0,0.0,0.0,0.0,0.0,0.0,0.0,0.0,0.0,0.0,0.0,0.0,-4.5574,-5.0174,-5.5508,-6.1135,-6.6816,-7.1737,-7.5484,-7.7935,-8.0089,-8.2432,-8.4592,-8.4943,-8.5948,-8.7529,-8.768,-8.8182,-8.8935,-8.9111,-8.9513,-9.0015,-8.9262,-8.8842,-8.8357,-8.568,-8.3779,-8.1905,-7.7325,-7.1914,0.0,-6.1407,-5.8227,-5.5947,-5.3661,-5.3847,-5.5237,-5.6096,-5.7728,-5.9118,-5.9002,-6.1547,-6.4627,-6.6343,-7.0407,-7.4802,-7.8175,-8.0933,-8.3662,-8.6419,-8.7174,-8.7377,-8.7552,-8.5055,-8.2617,-8.192,-8.0701,-8.0585,-8.2994,-8.4939,-8.6826,-8.8858,-8.8161,-8.6158,-8.2675,-8.1601,-8.0497,-7.8872,-7.9394,-8.1543,-8.5636,-8.639,-8.6739,-8.6971,-8.7377,-8.7203,-8.639,-8.6158,-8.5839,-8.5432,-8.52,-8.4329,-8.282,-8.1949,-8.0759,-7.9278,-7.8669,-7.803,-7.7362,-7.7711,-7.9099,-8.1001,-8.1486,-8.2938,-8.4771,-8.4664,-8.4609,-8.4662,-8.4407,-8.3778,-8.2684,0.0,0.0,0.0,0.0,0.0,0.0,0.0,0.0,0.0,0.0,0.0,0.0,0.0,0.0,0.0,0.0,0.0,0.0,-4.6262,-4.9102,-5.3263,-5.9092,-6.1333,-6.4133,-6.7712,-6.8958,-7.1587,-7.5728,-7.6758,-7.9444,-8.3587,-8.3085,-8.3989,-8.5998,-8.5521,-8.6199,-8.7605,-8.645,-8.617,-8.5804,-8.1879,-7.9058,-7.6218,-6.9653,-6.4998,-6.1596,-5.7615,-5.4355,-5.1743,-5.0049,-5.0531,-5.2017,-5.2646,-5.5102,-5.8311,-6.0773,-6.4684,-6.9205,-7.3647,-7.7275,-8.0672,-8.4416,-8.5839,-8.6797,-8.8568,-8.8422,-8.7726,-8.6942,-8.4068,-8.1107,-7.9075,-7.6782,-7.6288,-7.954,-8.0846,-8.2994,-8.7406,-8.549,-8.3749,-8.4097,-8.0439,-7.832,-7.9394,-7.8436,-7.954,-8.3865,0.0,-8.6274,-8.7029,-8.7087,-8.7087,-8.7087,-8.6477,-8.61,-8.6071,-8.5432,-8.4126,-8.2181,-8.2181,-8.1194,-7.9336,-7.8727,-7.8117,-7.7449,-7.6782,-7.8179,-8.0787,-8.1275,-8.305,-8.5734,-8.5659,-8.5756,-8.5657,-8.5284,-8.4208,-8.2784,0.0,0.0,0.0,0.0,0.0,0.0,0.0,0.0,0.0,0.0,0.0,0.0,0.0,0.0,0.0,0.0,0.0,0.0,-4.32,-4.6534,-4.9626,-5.2692,-5.7772,-6.1683,-6.3751,-6.6491,-6.8758,-7.0366,-7.0664,-7.1559,-7.3074,-7.3566,-7.441,-7.5334,-7.5832,-7.6356,-7.6682,-7.6004,-7.5396,-7.5016,-7.2724,-7.0928,-6.9536,-6.7272,-6.3972,-6.0349,-5.9227,-5.5951,-5.2323,-5.1783,-5.2276,-5.3477,-5.506,-5.6938,-5.9762,-6.4965,-6.9431,-7.353,-7.8291,-8.2878,-8.6797,-8.8248,-8.9467,-9.0309,-9.0309,-8.909,-8.7203,-8.4678,-7.9307,-7.4198,-7.1324,-7.1034,-7.2456,-7.6143,-8.1252,-8.5868,-8.8916,-8.9467,-8.8393,-8.52,-8.4649,-8.3923,-8.2355,-8.2326,-8.3255,0.0,-8.4939,-8.5694,-8.8248,-8.8393,-8.8393,-8.8393,-8.7784,-8.7203,-8.6739,-8.5636,-8.4126,-8.2181,-8.2181,-8.1426,-8.0033,-7.9365,-7.8988,-7.8756,-7.7653,-7.8301,-7.9935,-8.0662,-8.2119,-8.3897,-8.5538,-8.6118,-8.6108,-8.5332,-8.4871,-8.4241,0.0,0.0,0.0,0.0,0.0,0.0,0.0,0.0,0.0,0.0,0.0,0.0,0.0,0.0,0.0,0.0,0.0,0.0,0.0,-4.3199,-4.5238,-4.742,-5.0588,-5.3428,-5.5722,-5.762,-5.9736,-6.2282,-6.2504,-6.3888,-6.6286,-6.6562,-6.7335,-6.8534,-6.9239,-6.9921,-7.0506,-6.9702,-6.9409,0.0,0.0,-6.4955,-6.4295,-6.202,-6.0172,-5.8763,-5.819,-5.7247,-5.5922,-5.506,-5.4355,-5.4756,-5.886,-6.1548,-6.4551,-7.1165,-7.5872,-7.9934,-8.4271,-8.8335,-9.147,-9.1819,-9.2254,-9.1848,-8.877,-8.6858,-8.43,-7.8688,-7.3299,-6.8799,-6.5867,-6.6157,-6.8479,-7.3443,-7.8988,-8.4358,-8.9148,-8.9961,-8.9467,-8.7813,-8.7493,-8.6739,-8.5026,-8.491,-8.5461,0.0,-8.5926,-8.639,-8.8742,-8.9148,-8.9148,-8.8887,-8.8539,-8.7784,-8.6565,-8.5868,-8.4387,-8.2181,-8.2181,-8.1514,-8.0265,-7.9598,-7.9463,-7.9531,0.0,-7.8804,-8.1115,-8.1278,-8.2622,-8.4825,-8.6258,-8.6777,-8.6678,-8.6244,-8.5865,-8.5368,0.0,0.0,0.0,0.0,0.0,0.0,0.0,0.0,0.0,0.0,0.0,0.0,0.0,0.0,0.0,0.0,0.0,0.0,0.0,0.0,-4.1337,-4.3496,-4.3178,-4.4383,-4.7281,-4.7208,-4.9313,-5.3533,-5.3858,-5.6147,-6.0538,-6.0143,-6.0922,-6.2713,-6.3235,-6.4343,-6.5364,-6.4387,-6.4347,-6.4743,-6.1193,-5.9712,-5.9317,0.0,-5.5551,-5.674,-5.6202,-5.7738,-5.9745,-5.9255,-5.7744,-5.7446,-6.3781,-6.78,-7.1521,-7.8293,-8.3034,-8.6913,-9.0687,-9.3444,-9.5186,-9.4925,-9.4141,-9.1935,-8.5906,-8.3101,-7.9615,-7.1422,-6.7169,-6.4202,-6.2006,-6.2325,-6.5141,-7.1789,-7.6259,-8.1514,-8.9032,-8.9264,-8.9293,-9.089,-8.9671,-8.848,-8.7929,-8.7203,-8.729,-8.848,-8.79,-8.7987,-8.909,-8.9496,-8.9409,-8.8771,-8.8742,-8.7929,-8.6187,-8.6071,-8.4794,-8.2326,-8.2239,-8.1514,-8.0265,-7.9685,-7.9579,-7.9831,-7.8605,-7.969,-8.2634,-8.2328,-8.3897,-8.6535,-8.7017,-8.7289,-8.7256,-8.7157,-8.6726,-8.6063,0.0,0.0,0.0,0.0,0.0,0.0,0.0,0.0,0.0,0.0,-4.155,-4.0409,0.0,0.0,0.0,0.0,0.0,0.0,0.0,0.0,0.0,-4.2937,-4.3677,-4.4853,-4.6787,-4.679,-4.7481,-4.8907,-4.802,-4.8197,-4.9455,-5.0117,-5.0954,-5.1663,-5.246,-5.3063,-5.3236,-5.3038,-5.3122,-5.3457,-5.2742,-5.2815,-5.325,-5.3644,0.0,0.0,-5.5736,-5.6347,-5.7624,-6.3262,-6.5193,-6.587,-6.9405,-7.402,-7.9315,-8.5389,-8.9206,-9.2109,-9.5447,-9.745,-9.8176,-9.658,-9.4112,-9.0716,-8.4956,-7.9531,-7.399,-6.8198,-6.3371,-5.9853,-5.9132,-6.0787,-6.488,-7.2892,-7.832,-8.3865,-9.0513,-9.2138,-9.2603,-9.2399,-9.2545,-9.2632,-9.2516,-9.1441,-9.1093,0.0,-9.0803,-9.0251,-9.0483,-8.9555,-8.8742,-8.8103,-8.8103,-8.7668,-8.6826,-8.6303,-8.5026,-8.3023,-8.2442,-8.1514,-8.0294,-8.0178,-8.012,-8.0219,-8.0757,0.0,-8.1509,-8.3453,-8.4344,-8.476,-8.6258,-8.693,-8.6864,-8.6475,-8.6295,-8.6063,0.0,0.0,0.0,0.0,0.0,0.0,0.0,-3.9188,-4.0158,-4.3122,-4.3187,-4.2669,-4.1776,-4.0824,0.0,0.0,0.0,0.0,0.0,0.0,0.0,0.0,-4.414,-4.5393,-4.6409,-4.6116,-4.605,-4.6456,0.0,-4.5381,-4.5886,-4.6303,-4.6948,-4.7613,-4.8279,-4.8763,-4.892,-4.9215,-4.9603,-4.9867,-5.0033,-5.0439,-5.098,-5.1766,0.0,0.0,-5.6699,-5.8143,-6.0076,-6.3962,-6.8235,-7.258,-7.6925,-8.1091,-8.5203,-9.0879,-9.3735,-9.5767,-9.8321,-9.9686,-9.9918,-9.7973,-9.4606,-8.961,-8.1676,-7.5571,-6.9465,-6.213,-5.8605,-5.6734,-5.6321,-5.8958,-6.308,-6.906,-7.324,-7.8669,-8.7116,-8.8248,-8.9438,-9.2806,-9.3473,-9.3677,-9.3677,-9.3125,-9.2748,-9.2719,-9.2138,-9.1674,-9.1325,-9.0396,-8.9438,-8.8451,-8.8422,-8.7958,-8.7,-8.6361,-8.5229,-8.3662,-8.3023,-8.2036,-8.0759,-8.1104,-8.1087,-8.0864,-8.1083,0.0,-8.3224,-8.3745,-8.4699,-8.5825,-8.6777,-8.705,-8.6984,-8.6858,-8.6759,-8.666,0.0,0.0,0.0,0.0,0.0,0.0,0.0,-4.0383,-4.1367,-4.4267,-4.5347,-4.5355,-4.3968,-4.2574,-4.1235,0.0,0.0,0.0,0.0,0.0,0.0,0.0,0.0,0.0,-4.6277,0.0,0.0,-4.5719,-4.4571,0.0,0.0,0.0,0.0,0.0,-4.6682,-4.7053,-4.7488,-4.7922,-4.8403,0.0,0.0,-4.9504,-5.0337,0.0,0.0,0.0,0.0,-5.9501,-6.232,-6.419,-6.9104,-7.542,-8.0779,-8.5146,-8.9055,-9.3325,-9.5781,-9.7606,-10.015,-10.1224,-10.1195,-9.9134,-9.4722,-8.8364,-7.8696,-7.2085,-6.5561,-5.702,-5.4991,-5.4691,-5.467,-5.7274,-6.0816,-6.5228,-6.7986,-7.3066,-8.3052,-8.4184,-8.6332,-9.269,-9.3822,-9.4083,-9.4083,-9.3967,-9.359,-9.2951,-9.2661,-9.2167,-9.1383,-9.089,-9.0019,-8.8713,-8.8684,-8.819,-8.7203,-8.6419,-8.5461,-8.43,-8.34,-8.2355,-8.1194,-8.1396,-8.1547,-8.133,-8.126,0.0,0.0,-8.4338,-8.5342,-8.7289,-8.7289,-8.7289,-8.7289,-8.7289,-8.7289,-8.719,0.0,0.0,0.0,0.0,0.0,0.0,0.0,-4.1284,-4.3785,-4.7101,-4.7205,-4.6581,-4.5735,-4.5081,-4.345,0.0,0.0,0.0,0.0,0.0,0.0,0.0,0.0,0.0,0.0,0.0,0.0,-4.7002,-4.4327,0.0,0.0,0.0,0.0,0.0,0.0,-4.6006,-4.6159,-4.6689,0.0,0.0,0.0,0.0,0.0,0.0,0.0,0.0,0.0,-5.7827,-6.1079,-6.583,-6.8336,-7.0221,-7.4887,-8.1779,-8.8703,-9.0958,-9.3671,-9.6845,-10.0909,-10.2589,-10.2414,-9.9918,-9.3735,-8.6192,-7.8294,-6.9904,-6.1965,-5.6247,-5.4315,-5.3961,-5.4806,-5.5892,-5.8784,-6.4938,-6.7609,-7.2079,-8.1194,-8.4881,-8.8161,-9.2312,-9.4344,-9.5418,-9.5418,-9.4867,-9.4257,-9.3619,-9.2516,-9.1325,-9.0077,-8.9961,-8.9322,-8.8045,-8.8016,-8.7958,-8.7842,-8.6652,-8.5694,-8.4968,-8.3139,-8.1891,-8.1165,-8.0643,-8.0667,-8.1049,-8.2438,-8.3519,0.0,-8.5843,-8.6781,-8.7289,-8.7289,-8.7289,-8.7289,-8.7289,-8.7289,-8.7256,0.0,0.0,0.0,0.0,0.0,0.0,-4.2023,-4.2369,-4.3898,-4.8692,-4.9166,-4.8785,-4.7981,-4.7663,-4.5232,0.0,0.0,0.0,0.0,0.0,0.0,0.0,0.0,0.0,0.0,0.0,-4.5042,-4.5342,-4.4403,0.0,0.0,0.0,0.0,0.0,0.0,-4.5453,-4.5477,-4.6006,0.0,0.0,0.0,0.0,0.0,0.0,0.0,0.0,0.0,0.0,-5.9143,-6.1782,-6.4438,-6.6364,-6.5816,-7.0475,-7.7778,-8.591,-9.0323,-9.37,-9.9686,-10.2182,-10.2502,-9.9541,-9.3038,-8.5235,-7.7202,-6.8785,-6.1118,-5.5737,-5.4112,-5.3675,-5.4099,-5.438,-5.5881,-5.9597,-6.0206,-6.3341,-7.2311,-7.4692,-7.8785,-8.7639,-9.0048,-9.2196,-9.5302,-9.536,-9.478,-9.3735,-9.2486,-9.1383,-9.0454,-9.0425,-8.9845,-8.8539,-8.8509,-8.8306,-8.7929,-8.6822,-8.6234,-8.5971,-8.4345,-8.3218,-8.2602,-8.2085,-8.1898,-8.1669,-8.2557,-8.361,0.0,-8.5374,-8.6306,-8.7289,-8.7289,-8.7289,-8.7289,-8.7289,-8.7289,-8.7289,0.0,0.0,0.0,0.0,0.0,-3.9309,-4.2457,-4.2966,-4.4617,-4.8807,-4.9723,-4.9736,-4.9252,-4.7954,-4.4991,-3.9512,0.0,0.0,0.0,0.0,0.0,0.0,0.0,0.0,0.0,0.0,-4.4784,-4.4824,-4.444,-4.4765,0.0,0.0,-4.5178,-4.588,0.0,0.0,0.0,0.0,0.0,0.0,0.0,0.0,0.0,0.0,0.0,0.0,0.0,0.0,0.0,0.0,0.0,-6.2536,-5.9493,-6.1457,-6.7378,-7.9443,-8.5391,-8.9775,-9.694,-10.0615,-10.1718,-9.9076,-9.2225,-8.3939,-7.6368,-6.7959,-6.0451,-5.5652,-5.4309,-5.3984,-5.3955,-5.3656,-5.4081,-5.5823,-5.5852,-5.8377,-6.6215,-6.8131,-7.2398,-8.2297,-8.4794,-8.761,-9.2574,-9.4257,-9.4664,-9.3735,-9.2486,0.0,-9.1122,-9.0745,-9.0019,-8.8916,-8.8684,-8.8277,-8.7668,-8.6904,-8.643,-8.6226,-8.4596,-8.3743,-8.3302,-8.2762,-8.2421,-8.213,-8.265,-8.3839,0.0,-8.538,-8.6241,-8.7554,-8.7355,-8.7289,-8.7289,-8.7289,-8.7289,-8.7289,0.0,0.0,0.0,0.0,0.0,0.0,0.0,-4.318,-4.6104,-4.7021,-4.8109,-4.886,-4.9177,-4.5341,-4.2364,-4.141,0.0,0.0,0.0,0.0,0.0,0.0,0.0,0.0,0.0,0.0,-4.4997,-4.6307,-4.4564,-4.4917,-4.7162,-4.4755,-4.4252,-4.5279,0.0,0.0,0.0,0.0,0.0,0.0,0.0,0.0,0.0,0.0,0.0,0.0,0.0,0.0,0.0,0.0,0.0,0.0,0.0,-5.7168,-5.9821,-7.1278,-7.858,-8.4991,-9.3377,-9.8002,-10.0092,-9.8728,-9.103,-8.1964,-7.5928,-6.7616,-5.9929,-5.5878,-5.4966,-5.4979,-5.4979,-5.4157,-5.3936,-5.5213,-5.7013,-6.009,-6.5286,-6.8712,-7.2369,-7.6956,-7.9191,-8.2152,-8.6623,-9.1093,-9.3677,-9.3677,-9.2486,0.0,-9.1761,-9.0542,-8.9526,-8.8887,-8.8277,-8.7639,-8.7,-8.6361,-8.5723,-8.5084,-8.3598,-8.2824,-8.2795,-8.1977,-8.1669,-8.21,-8.2971,-8.4338,0.0,-8.6146,-8.6993,-8.8217,-8.7554,-8.7289,-8.7289,-8.7289,-8.7289,-8.7289,0.0,0.0,0.0,0.0,0.0,0.0,0.0,-4.0483,-4.1843,-4.4377,-4.4472,-4.5045,-4.7007,-4.4302,-4.2248,-4.1963,-3.9728,0.0,0.0,0.0,0.0,0.0,0.0,0.0,0.0,0.0,-4.5476,-4.6273,-4.6339,-4.7136,-4.8818,-4.7802,-4.7092,-4.6682,-4.5598,-4.462,0.0,0.0,0.0,0.0,0.0,0.0,0.0,0.0,0.0,0.0,0.0,0.0,0.0,0.0,0.0,0.0,0.0,0.0,0.0,-6.3261,-6.9479,-7.5564,-8.1513,-8.5478,-8.7263,-8.4671,-8.015,-7.5052,-6.9621,-6.4365,-5.9565,-5.5735,-5.5224,-5.516,-5.4489,-5.4244,-5.5039,-5.7652,-5.8581,-6.0148,-6.3545,-6.8247,-7.3037,-7.7566,-8.5578,-9.1325,0.0,0.0,-9.3677,-9.3677,0.0,0.0,-9.1761,-9.0542,-8.9729,-8.9526,-8.8074,-8.7174,-8.6971,-8.6234,-8.5691,-8.524,-8.4197,-8.3539,-8.3377,-8.2699,-8.3011,-8.4142,-8.4337,-8.5338,-8.6885,-8.6824,-8.7156,-8.7587,-8.7355,-8.7289,-8.7289,-8.7289,-8.7289,-8.7289,0.0,0.0,0.0,0.0,0.0,0.0,0.0,-3.9081,-3.9901,-4.1647,-4.1504,-4.2283,-4.507,-4.2509,-4.0927,-4.1781,-3.8991,0.0,0.0,0.0,0.0,0.0,0.0,0.0,0.0,-4.5413,-4.6253,-4.7448,-4.8331,-4.9462,-5.0768,-5.0293,-4.9454,-4.8232,-4.6652,-4.5465,0.0,0.0,0.0,0.0,0.0,0.0,-4.7853,0.0,0.0,0.0,0.0,0.0,0.0,0.0,0.0,0.0,0.0,0.0,0.0,0.0,-6.201,-6.6895,-7.377,-7.7792,-7.9542,-7.7563,-7.4149,-7.0164,-6.6065,-6.2139,-5.8497,-5.5593,-5.5196,-5.5131,-5.4547,-5.4244,-5.4865,-5.7129,-5.7884,-5.9103,-6.1658,-6.6767,-7.234,-7.8059,-8.6797,0.0,0.0,-9.3415,-9.3677,0.0,0.0,0.0,-9.1761,-9.0542,-8.9816,-8.9816,-8.7987,-8.6855,-8.6623,-8.5913,-8.5116,-8.4566,-8.412,-8.3577,-8.3264,-8.2915,-8.361,-8.4988,-8.5285,-8.6305,0.0,-8.759,-8.7652,-8.7654,-8.7389,-8.7289,-8.7289,-8.7289,-8.7289,-8.7289,0.0,0.0,0.0,0.0,0.0,0.0,0.0,0.0,-3.9736,-3.8944,-3.917,-4.045,-4.3037,-4.0074,-3.8718,-4.0802,0.0,0.0,0.0,0.0,0.0,0.0,0.0,0.0,0.0,-4.535,-4.7241,-4.9473,-5.0424,-5.1614,-5.2854,-5.2223,-5.1265,-4.9843,-4.6966,-4.5935,0.0,0.0,0.0,0.0,-4.6276,-4.7299,0.0,0.0,0.0,0.0,0.0,0.0,0.0,0.0,0.0,0.0,0.0,0.0,0.0,0.0,0.0,0.0,0.0,-7.3317,-7.5182,-7.5038,-7.1221,-6.6753,-6.4396,-6.0608,0.0,-5.531,-5.4994,-5.5065,-5.5008,-5.4215,-5.3849,-5.472,-5.5881,-5.7565,-6.0061,-6.5199,0.0,0.0,-8.4503,0.0,-8.8974,-9.1848,0.0,0.0,0.0,0.0,-9.1761,-9.0571,-8.9874,-8.9816,-8.7987,-8.6681,-8.6042,-8.5316,-8.4329,-8.311,-8.3218,-8.3047,-8.2555,-8.2886,-8.3729,0.0,-8.5912,-8.7061,0.0,-8.8358,-8.8283,-8.8184,-8.7521,-8.7289,-8.7289,-8.7289,-8.7289,-8.7289,0.0,0.0,0.0,0.0,0.0,0.0,0.0,0.0,0.0,0.0,-3.7337,-3.7563,-3.8617,-3.7538,-3.696,0.0,0.0,0.0,0.0,0.0,0.0,0.0,0.0,0.0,0.0,-4.6177,-4.7721,-5.0054,-5.0726,-5.2259,-5.446,-5.3254,-5.198,-5.0607,-4.8799,-4.7276,0.0,0.0,0.0,0.0,-4.7963,-4.8663,0.0,0.0,0.0,0.0,-5.1544,-5.2152,0.0,0.0,0.0,0.0,0.0,0.0,0.0,0.0,-5.5833,-5.6311,-5.8269,0.0,-6.1529,-6.0115,-5.9333,-5.854,0.0,-5.6694,-5.6018,-5.463,-5.4827,-5.5249,-5.5094,-5.4345,-5.4742,-5.734,-5.8465,-5.9706,-6.1784,-7.0489,0.0,-8.6506,-9.1035,-9.2922,-9.1267,-9.2661,0.0,0.0,0.0,-9.1761,-9.1761,-9.1006,-9.0367,-8.9845,-8.7987,-8.6681,-8.6042,-8.4445,-8.339,-8.2897,-8.2702,-8.2525,-8.2214,-8.3789,-8.5246,-8.6711,-8.7413,-8.8278,-8.9083,-8.8559,-8.7985,-8.7488,-8.7322,-8.7289,-8.7289,-8.7289,-8.7289,-8.7289,0.0,0.0,0.0,0.0,0.0,0.0,0.0,0.0,0.0,0.0,0.0,0.0,0.0,0.0,0.0,0.0,0.0,0.0,0.0,0.0,0.0,0.0,0.0,-4.3832,-4.4995,-4.6413,-4.8394,-5.1046,-5.212,-5.3966,-5.6534,-5.5039,-5.3909,-5.2792,-5.0013,-4.7942,0.0,0.0,0.0,-4.7433,-4.8106,0.0,0.0,0.0,0.0,0.0,-5.1484,-5.1731,0.0,-5.448,-5.4711,-5.4346,0.0,0.0,0.0,0.0,-5.5074,-5.4962,-5.4344,-5.5327,-5.6142,-5.4569,-5.474,-5.5165,-5.443,-5.4543,-5.4629,-5.3641,-5.395,-5.4341,-5.4041,-5.3748,-5.4259,-5.6499,-5.7858,-6.0779,0.0,0.0,-8.2036,-8.9409,-9.2399,-9.3648,0.0,0.0,0.0,0.0,0.0,-9.1645,-9.1354,-9.0716,-9.0077,-8.9409,-8.7552,-8.639,-8.6042,-8.4155,-8.3011,-8.2824,-8.2654,-8.2724,-8.3281,-8.4436,-8.6057,-8.7771,-8.8081,-8.8529,-8.8912,-8.8846,-8.8217,-8.7322,-8.762,-8.7554,-8.7289,-8.7289,-8.7289,-8.7289,0.0,0.0,0.0,0.0,0.0,0.0,0.0,0.0,0.0,0.0,0.0,0.0,0.0,0.0,0.0,0.0,0.0,0.0,0.0,0.0,0.0,0.0,0.0,-4.313,-4.456,-4.6524,-4.8931,-5.2041,-5.3783,-5.5936,-5.8337,-5.6937,-5.5629,-5.4107,-5.1011,-4.8722,0.0,0.0,-4.742,-4.7931,-4.7999,0.0,0.0,0.0,0.0,0.0,0.0,0.0,0.0,-5.3921,-5.4317,-5.3923,-5.5196,0.0,0.0,0.0,0.0,0.0,-5.3922,-5.4709,-5.5387,-5.3754,-5.3782,-5.4035,-5.3501,-5.3445,-5.3332,-5.2686,-5.2879,-5.3153,-5.2909,-5.3124,-5.3712,0.0,0.0,0.0,-7.3153,-7.774,-8.2675,-8.9816,-9.1499,0.0,0.0,0.0,0.0,0.0,0.0,-9.1529,-9.1006,-9.0338,-8.9671,-8.9032,-8.7174,-8.6129,-8.6042,-8.4039,-8.2924,-8.2664,-8.2694,-8.3217,-8.4375,-8.5246,-8.6598,-8.8474,0.0,0.0,-8.868,-8.8979,-8.8449,-8.7488,-8.7985,-8.7786,-8.7289,-8.7289,-8.7289,-8.7289,0.0,0.0,0.0,0.0,0.0,0.0,0.0,0.0,0.0,0.0,0.0,0.0,0.0,0.0,0.0,0.0,0.0,0.0,0.0,0.0,0.0,0.0,-4.1834,-4.4015,-4.7143,-4.7579,-4.8992,-5.1657,-5.412,-5.6387,-5.872,-5.7277,-5.4287,-5.0154,-5.2171,-5.0851,-4.7298,-4.8492,-4.907,-4.9182,-4.9973,0.0,0.0,0.0,0.0,0.0,0.0,0.0,0.0,-5.1598,-5.2056,-5.2318,-5.3022,0.0,0.0,0.0,0.0,0.0,-5.4344,-5.5588,-5.5958,-5.2909,-5.2152,-5.2208,-5.2096,-5.2489,-5.2797,-5.2396,-5.2816,-5.3266,-5.3669,-5.4099,-5.5217,0.0,0.0,-6.9627,0.0,0.0,-8.4997,-8.9438,0.0,0.0,0.0,0.0,0.0,0.0,0.0,-9.1732,-9.1616,-9.1006,-9.0367,-8.97,-8.7842,-8.6565,-8.6042,-8.3575,-8.2297,-8.2342,-8.2783,-8.3281,-8.3873,-8.6913,-8.8685,-8.9154,0.0,-8.9561,-9.0039,-8.8316,-8.7819,-8.8117,-8.762,-8.7355,-8.7289,-8.7289,-8.7289,-8.7289,0.0,0.0,0.0,0.0,0.0,0.0,0.0,0.0,0.0,0.0,0.0,0.0,0.0,0.0,0.0,0.0,0.0,0.0,0.0,0.0,0.0,-4.2481,-4.2708,-4.4003,-4.6737,-4.8101,-5.0249,-5.3181,-5.6084,-5.8665,-6.0652,-5.8567,-5.4831,-4.9901,-5.079,-4.9939,-4.7703,-4.7923,-4.8593,-4.9416,0.0,0.0,0.0,0.0,0.0,0.0,0.0,0.0,0.0,0.0,-5.167,-5.1899,-5.2517,0.0,0.0,0.0,0.0,0.0,-5.2995,-5.336,-5.3556,-5.3244,-5.4006,-5.4487,-5.3043,-5.2958,-5.3156,-5.3213,-5.293,-5.3209,-5.4991,-5.6051,-5.8631,-6.4769,0.0,-7.4748,-8.0527,-8.2907,-8.552,0.0,0.0,0.0,0.0,0.0,0.0,0.0,0.0,0.0,-9.0745,-9.0106,-8.9322,-8.8306,-8.7116,-8.6158,-8.552,-8.3313,-8.2342,-8.2503,-8.3247,-8.4167,-8.5297,-8.8012,-8.948,-8.9989,0.0,-8.9376,-8.9244,-8.825,-8.7819,-8.7753,-8.7819,-8.762,-8.7289,-8.7289,-8.7289,-8.7289,0.0,0.0,0.0,0.0,0.0,0.0,0.0,0.0,0.0,0.0,0.0,0.0,0.0,0.0,0.0,0.0,0.0,0.0,0.0,0.0,-3.922,-4.3366,-4.3421,-4.476,-4.7869,-4.9524,-5.2078,-5.5649,-5.8987,-6.1365,-6.2616,-5.978,-5.5484,-5.0232,-4.9569,-4.8463,-4.7213,-4.6729,-4.7405,-4.8826,0.0,0.0,0.0,0.0,0.0,0.0,0.0,0.0,0.0,0.0,0.0,0.0,0.0,0.0,0.0,-5.2461,-5.1927,-5.1618,-5.1759,-5.167,-5.192,-5.3834,-5.5282,-5.628,-5.5537,-5.5137,-5.5223,-5.6079,-5.5197,-5.4941,-5.6794,-5.8971,0.0,-7.0576,-7.5359,-7.9336,-8.3023,-8.462,0.0,0.0,0.0,0.0,0.0,0.0,0.0,0.0,0.0,0.0,-8.9845,-8.909,-8.8219,-8.7232,-8.6158,-8.5345,-8.4852,-8.2936,-8.2489,-8.3372,-8.3793,-8.5153,-8.7159,-8.8823,-9.0059,-9.0701,-8.9641,-8.9045,-8.878,-8.8283,-8.7852,-8.7554,-8.7919,-8.7753,-8.7289,-8.7455,-8.7422,-8.7289,0.0,0.0,0.0,0.0,0.0,0.0,0.0,0.0,0.0,0.0,0.0,0.0,0.0,0.0,0.0,0.0,0.0,0.0,0.0,0.0,-3.92,-4.2005,-4.3775,-4.7503,-5.3791,-5.2891,-5.4546,-5.8958,-6.2732,-6.4235,-6.365,-6.0338,-5.5408,-4.9455,-4.9603,-4.7712,-4.4556,-4.5257,-4.6164,-4.7053,-4.7745,0.0,0.0,0.0,0.0,0.0,0.0,0.0,0.0,0.0,0.0,0.0,0.0,0.0,-5.1815,-5.1197,-5.0972,-5.1056,-5.1646,-5.2428,-5.3351,-5.4255,-5.3973,-5.4827,-5.9594,-5.9829,-5.9658,-6.2062,-6.1547,-6.0373,-5.9222,-6.3319,-6.7852,-7.1508,-7.8108,-8.3836,-8.7058,0.0,0.0,0.0,0.0,0.0,0.0,0.0,0.0,0.0,0.0,0.0,-8.9845,-8.8655,-8.7958,-8.7871,-8.549,-8.4213,-8.4155,-8.2239,-8.2438,-8.4813,-8.5072,-8.64,-8.8621,-8.9541,-9.0559,-9.1397,-8.931,-8.9144,-9.0204,-8.8184,-8.7687,-8.8184,-8.7587,-8.7322,-8.7355,-8.7985,-8.7819,-8.7289,0.0,0.0,0.0,0.0,0.0,0.0,0.0,0.0,0.0,0.0,0.0,0.0,0.0,0.0,0.0,0.0,0.0,0.0,0.0,-3.8341,-3.9876,-4.2731,-4.4455,-4.7668,-5.2801,-5.5435,-5.8755,-6.2848,-6.583,-6.5545,-6.2307,-5.8738,-5.3867,-4.8361,-4.7349,-4.6073,-4.4649,-4.4513,-4.5289,-4.6632,-4.6661,-4.7135,0.0,0.0,0.0,0.0,0.0,0.0,0.0,0.0,-4.9145,-4.9988,-5.0241,-5.0719,-5.1253,-5.1393,-5.0916,-5.0438,-5.1056,-5.2484,-5.4118,-5.5451,-5.6537,-5.8057,-6.112,-6.1986,-6.2938,-6.5376,-6.5072,-6.4325,-6.3836,0.0,-7.3386,-7.6167,-8.1875,-8.6971,0.0,0.0,0.0,0.0,0.0,0.0,0.0,0.0,0.0,0.0,0.0,0.0,-8.8655,-8.7435,-8.639,-8.5578,-8.4591,-8.372,-8.2907,-8.1775,-8.277,-8.5807,-8.573,-8.6491,-8.7878,-8.9993,-9.071,-9.0204,-8.9376,-8.9045,-8.9045,-8.7786,-8.7422,-8.7654,-8.7389,-8.7289,-8.7322,-8.7554,-8.7488,-8.7289,0.0,0.0,0.0,0.0,0.0,0.0,0.0,0.0,0.0,0.0,0.0,0.0,0.0,0.0,0.0,0.0,0.0,0.0,-3.8291,-3.8818,-4.0236,-4.2791,-4.4624,-4.7695,-5.2039,-5.7253,-6.1658,-6.5286,-6.7721,-6.6531,-6.1632,-5.7315,-5.2825,-4.8238,-4.6043,-4.5052,-4.5035,-4.3991,-4.4428,-4.5795,-4.523,-4.5816,0.0,0.0,0.0,0.0,0.0,0.0,0.0,0.0,-4.9258,-5.0016,-5.041,-5.0831,-5.1197,-5.1421,-5.0882,-5.0227,-5.0319,-5.1406,-5.2897,-5.5192,-5.7312,-5.976,-6.3593,-6.5519,-6.7273,-7.0494,-6.9748,-6.8421,-6.7815,-7.1708,0.0,0.0,-8.3845,0.0,0.0,0.0,0.0,0.0,0.0,0.0,0.0,0.0,0.0,0.0,0.0,0.0,0.0,-8.6216,-8.4997,-8.4126,-8.3487,-8.2762,-8.1891,-8.1223,-8.2575,-8.5668,-8.5632,-8.6558,-8.8214,-9.0341,-9.0701,-8.9741,-8.9277,-8.8912,-8.8581,-8.7654,-8.7289,-8.7289,-8.7521,-8.7488,-8.7322,-8.7521,-8.7455,-8.7289,0.0,0.0,0.0,0.0,0.0,0.0,0.0,0.0,0.0,0.0,0.0,0.0,0.0,0.0,0.0,0.0,0.0,0.0,-3.8868,-3.9396,-4.0411,-4.1924,-4.4276,-4.7707,-5.2352,-5.8174,-6.2732,-6.5824,-6.8457,-6.7183,-6.2221,-5.6621,-5.2412,-4.9082,-4.6158,-4.5157,-4.5521,-4.3916,-4.3622,-4.4117,-4.363,-4.4727,-4.6696,0.0,0.0,0.0,0.0,0.0,0.0,0.0,-4.996,-5.0157,-5.1393,-5.1759,-5.1646,-5.1056,-5.065,-5.0266,-4.9614,-4.8991,-4.9506,-5.3202,-5.5444,-5.9036,-6.7794,-7.0773,-7.3124,-7.8262,-7.5988,-7.2634,-7.07,-7.2461,0.0,-7.7511,0.0,0.0,0.0,0.0,0.0,0.0,0.0,0.0,0.0,0.0,0.0,0.0,0.0,0.0,0.0,-8.5113,-8.4068,-8.4068,-8.2181,-8.1194,-8.1165,-8.0585,-8.1561,-8.3911,-8.4559,-8.6627,-9.0005,-9.0379,-9.0502,-9.0403,-8.8945,-8.8714,-8.931,-8.7885,-8.7289,-8.7355,-8.8018,-8.7885,-8.7355,-8.8051,-8.7852,-8.7289,0.0,0.0,0.0,0.0,0.0,0.0,0.0,0.0,0.0,0.0,0.0,0.0,0.0,0.0,0.0,0.0,0.0,0.0,-3.9446,-3.9597,-3.9905,-4.0336,-4.2601,-4.4349,-4.5261,-5.1986,-5.8787,-6.5301,-6.6418,-6.3217,-5.6107,-5.4567,-5.1458,-4.7255,-4.6713,-4.5983,-4.4986,-4.377,-4.3364,-4.3714,-4.3184,-4.3805,-4.5239,0.0,0.0,0.0,0.0,0.0,0.0,0.0,0.0,0.0,-4.9735,-5.0438,-5.1028,-5.041,-5.0826,-5.122,-5.06,-5.1569,-5.3623,-5.7025,-6.0163,-6.4318,-7.0976,-7.2398,-7.3908,-7.9481,-7.9017,-7.7007,-7.553,-7.7007,0.0,0.0,0.0,0.0,0.0,0.0,0.0,0.0,0.0,0.0,0.0,0.0,0.0,0.0,0.0,0.0,0.0,-8.3546,-8.253,-8.2065,-8.1484,-8.0759,-7.9859,-7.9685,-8.0879,-8.3203,-8.3845,-8.5641,-8.8119,-8.9264,-8.9442,-8.8945,-8.8515,-8.8449,-8.8581,-8.7654,-8.7289,-8.7289,-8.7488,-8.7455,-8.7289,-8.7521,-8.7455,-8.7289,0.0,0.0,0.0,0.0,0.0,0.0,0.0,0.0,0.0,0.0,-3.7337,-3.7889,0.0,0.0,0.0,0.0,0.0,0.0,0.0,-3.9697,-3.9878,-4.0262,-4.1594,-4.294,-4.4277,-5.0166,-5.5294,-5.9505,-6.1766,-5.9424,-5.2528,-5.3572,-5.2088,-4.8463,-4.9624,-4.8899,-4.6722,-4.5658,-4.4646,-4.3671,-4.2905,-4.339,-4.452,0.0,0.0,0.0,0.0,0.0,0.0,0.0,0.0,0.0,-4.9314,-5.0073,-5.0803,-5.0544,-5.0904,-5.1406,-5.1761,-5.2829,-5.4959,-5.9126,-6.262,-6.6925,-7.3618,-7.6201,-7.8291,-8.2297,-8.1688,-8.0294,-7.9801,-8.0236,0.0,0.0,0.0,0.0,0.0,0.0,0.0,0.0,0.0,0.0,0.0,0.0,0.0,0.0,0.0,0.0,-8.3749,-8.25,-8.1601,-8.1194,-8.0701,-8.0062,-7.9307,-7.9075,-7.9746,-8.1644,-8.2822,-8.4385,-8.6102,-8.8424,-8.9012,-8.8316,-8.8316,-8.815,-8.7852,-8.7455,-8.7289,-8.7289,-8.7289,-8.7289,-8.7289,-8.7289,-8.7289,-8.7289,0.0,0.0,-3.5077,-3.6182,0.0,0.0,0.0,0.0,0.0,0.0,-3.6835,-3.7387,0.0,0.0,0.0,0.0,0.0,0.0,0.0,0.0,-4.0108,-4.1097,-4.1201,-4.3148,-4.7188,-5.039,-5.1523,-5.0471,-5.5593,-5.5552,-5.0761,-5.3546,-5.3607,-5.1586,-5.3534,-5.2692,-4.971,-4.8411,-4.6255,-4.3699,-4.2777,-4.3218,-4.4265,-4.4796,0.0,0.0,0.0,0.0,0.0,0.0,0.0,0.0,-4.9623,-5.0297,-5.0966,-5.1067,-5.1071,-5.128,-5.2914,-5.3395,-5.48,-6.0435,-6.4306,-6.8817,-7.6288,-8.1136,-8.4416,-8.5549,0.0,-8.2675,-8.3342,-8.2442,-8.2239,0.0,0.0,0.0,0.0,0.0,0.0,0.0,0.0,0.0,0.0,0.0,0.0,0.0,0.0,0.0,-8.3052,-8.1746,-8.102,-8.102,-7.9859,-7.9191,-7.9133,-7.8582,-7.8675,-7.9567,-8.1694,-8.3157,-8.4283,-8.7693,-8.8846,-8.8217,-8.8283,-8.7919,-8.7289,-8.7289,-8.7289,-8.7289,-8.7289,-8.7289,-8.7289,-8.7289,-8.7289,-8.7289,0.0,0.0,-3.5077,-3.6182,0.0,0.0,0.0,0.0,0.0,0.0,0.0,0.0,0.0,0.0,0.0,0.0,0.0,0.0,0.0,0.0,-3.9976,-4.0613,-4.1473,-4.283,-4.4643,-4.456,-4.5217,-4.6711,-5.0907,-5.18,-4.9502,-5.2404,-5.3092,-5.1968,-5.2549,-5.1465,-4.9036,-4.5886,-4.3673,-4.2445,-4.2638,-4.2971,-4.331,-4.4753,-4.5066,0.0,0.0,0.0,0.0,0.0,0.0,0.0,-4.8471,-4.9699,-5.101,-5.0153,-5.0986,-5.2623,-5.4533,-5.5587,-5.7772,-6.4987,-7.2082,-7.803,-8.1223,-8.3052,-8.4039,-8.3836,-8.4155,-8.4678,-8.5287,-8.5171,0.0,0.0,0.0,0.0,0.0,0.0,0.0,0.0,0.0,0.0,0.0,0.0,0.0,0.0,-8.2762,-8.1775,-8.163,-8.041,-7.9714,-7.9714,-7.8988,-7.8349,-7.7827,-7.7682,-7.815,0.0,-8.1186,-8.3013,-8.4698,-8.6798,-8.7654,-8.7521,-8.8084,-8.7919,-8.7289,-8.7289,-8.7289,-8.7289,-8.7289,-8.7289,-8.7289,-8.7289,-8.7289,-8.7289,0.0,0.0,0.0,0.0,0.0,0.0,0.0,0.0,0.0,0.0,0.0,0.0,0.0,0.0,0.0,0.0,0.0,0.0,-3.9697,-3.9697,-3.9948,-4.0501,-4.2082,-4.271,-4.2233,-4.2685,-4.3669,-4.5129,-4.6342,-4.7427,-4.8318,-5.0305,-5.1445,-5.2111,-5.2865,-5.1561,-4.8579,-4.6631,-4.4611,-4.276,-4.3289,-4.3359,-4.3259,-4.4156,-4.4147,-4.3971,-4.5499,0.0,0.0,0.0,0.0,0.0,0.0,0.0,-5.0323,-5.0189,-5.0891,-5.2366,-5.5501,-5.7513,-6.0918,-6.9974,-7.6486,-8.1165,-8.282,-8.3662,-8.401,-8.3691,-8.4155,-8.491,-8.5868,-8.5781,0.0,0.0,0.0,0.0,0.0,0.0,0.0,0.0,0.0,0.0,0.0,0.0,0.0,-8.3226,-8.1688,-8.0614,-8.0294,-7.9394,-7.8872,-7.8872,-7.8262,-7.7769,-7.7391,-7.7101,-7.7353,-7.8325,-8.0029,-8.2325,-8.4919,-8.659,-8.7289,-8.7289,-8.7654,-8.762,-8.7289,-8.7289,-8.7289,-8.7289,-8.7289,-8.7289,-8.7289,-8.7289,-8.7289,-8.7289,0.0,0.0,0.0,0.0,0.0,0.0,0.0,0.0,0.0,0.0,0.0,0.0,0.0,0.0,0.0,0.0,0.0,0.0,-3.9697,-3.9798,-4.0074,-4.0626,-4.2484,-4.271,-4.0978,-4.2534,-4.3945,-4.4955,-4.3016,-4.4102,-4.8054,-4.8586,-5.0111,-5.223,-5.306,-5.1604,-4.8377,-4.7521,-4.5621,-4.3168,-4.3721,-4.3601,-4.312,-4.3391,-4.32,-4.3093,-4.4407,-4.5451,-4.6583,-4.7699,0.0,0.0,0.0,0.0,-4.9632,-5.0349,-5.0623,-5.1689,-5.6119,-5.9943,-6.4914,-7.4459,-7.9104,-8.1688,-8.2907,-8.3662,-8.4068,-8.3952,-8.401,-8.4445,-8.5636,0.0,0.0,0.0,0.0,0.0,0.0,0.0,0.0,0.0,0.0,0.0,0.0,-8.4039,-8.3139,-8.2094,-8.0846,-7.983,-7.9191,-7.8553,-7.8233,-7.8233,-7.7595,-7.7246,-7.7398,-7.6874,-7.6762,-7.7386,-7.9354,-8.2026,-8.5106,-8.659,-8.7289,-8.7289,-8.7289,-8.7289,-8.7289,-8.7289,-8.7289,-8.7289,-8.7289,-8.7289,-8.7289,-8.7289,-8.7289,-8.7289,0.0,0.0,0.0,0.0,0.0,0.0,0.0,0.0,0.0,0.0,-3.7039,-3.7362,0.0,0.0,-3.8793,-3.8868,-3.9371,-3.9697,-3.9697,0.0,0.0,-4.1204,-4.1957,-4.2459,-4.2635,-4.2007,-4.3063,-4.6102,-4.2669,-4.4438,-5.0773,-4.9419,-5.038,-5.2791,-5.0587,-4.929,-4.8452,-4.4495,-4.2303,-4.1533,-4.2062,-4.1966,-4.1601,-4.2549,-4.2874,-4.3118,-4.4729,-4.5777,-4.6583,-4.7699,-4.8134,0.0,0.0,0.0,-4.9575,-4.9864,-5.0198,-5.1321,-5.6003,-6.3661,-7.1528,-7.6811,-8.012,-8.2268,-8.3023,-8.3662,-8.3952,0.0,-8.372,-8.4329,-8.5084,0.0,0.0,0.0,0.0,0.0,0.0,0.0,0.0,0.0,-8.3952,-8.3546,-8.3458,-8.2326,-8.1514,-8.1339,-8.0149,-7.9162,-7.8553,-7.7885,-7.7537,-7.7537,-7.6927,-7.6758,-7.7057,-7.7119,-7.7357,-7.8063,-8.1138,-8.351,-8.5106,-8.659,-8.7289,-8.7289,-8.7289,-8.7289,-8.7289,-8.7289,-8.7289,-8.7289,-8.7289,-8.7289,-8.7289,-8.7289,-8.7289,-8.7289,0.0,0.0,0.0,0.0,0.0,0.0,0.0,0.0,0.0,0.0,0.0,-3.7542,0.0,-3.8442,-3.8743,-3.8417,-3.9195,-3.9697,-3.9697,-4.0199,-4.0626,-4.0877,-4.1404,-4.1681,-4.1605,-4.1128,-4.211,-4.4827,-4.2314,-4.4369,-5.0739,-4.9413,-5.0199,-5.2461,-4.9559,-4.802,-4.7296,-4.4133,-4.2375,-4.1677,-4.2206,-4.2734,-4.3165,-4.2414,-4.2831,-4.3886,-4.4544,-4.5206,-4.6164,-4.7568,-4.8207,-4.8308,-4.8308,0.0,0.0,0.0,-5.0155,-5.1696,-5.8523,-6.4839,-7.0976,-7.6927,-7.9772,-8.1397,-8.2413,-8.3139,-8.34,-8.2762,-8.2849,-8.3342,0.0,0.0,0.0,0.0,0.0,0.0,0.0,-8.4416,-8.3923,-8.3633,-8.3342,-8.3052,-8.2675,-8.2094,-8.1455,-8.0759,-7.9511,-7.8524,-7.7885,-7.7217,-7.6869,-7.6869,-7.6608,-7.6612,-7.709,-7.709,-7.7505,-7.8179,-8.1009,-8.2679,-8.3323,-8.5177,-8.6494,-8.7289,-8.7289,-8.7289,-8.7289,-8.7289,-8.7024,-8.6693,-8.7123,-8.6759,-8.6163,-8.6991,-8.7024,-8.6726,0.0,0.0,0.0,0.0,0.0,0.0,0.0,0.0,0.0,0.0,0.0,0.0,0.0,0.0,0.0,0.0,-3.8868,-3.932,-3.9368,-3.9998,-4.03,-4.0195,-4.0595,-4.0727,-4.0325,-4.03,-4.1261,-4.3291,-4.2003,-4.4515,-5.0537,-4.972,-5.0855,-5.3636,-5.0454,-4.8305,-4.6907,-4.4908,-4.3602,-4.2784,-4.2879,-4.3602,-4.4402,-4.3208,-4.3757,-4.516,-4.4908,-4.5501,-4.6569,-4.7549,-4.8207,-4.8581,-4.8581,-4.8681,0.0,0.0,0.0,-5.2059,-5.8754,-6.3391,-6.7725,-7.414,-7.7275,-7.9191,-8.0643,-8.1862,-8.25,0.0,-8.1978,-8.2471,0.0,0.0,0.0,0.0,-8.372,-8.3604,-8.3604,-8.3081,-8.2675,-8.2675,-8.2413,-8.2065,-8.1746,-8.1426,-8.0846,-7.9888,-7.8785,-7.7856,-7.7188,-7.6724,-7.6462,-7.6462,-7.6462,-7.6612,-7.709,-7.7062,-7.7417,-7.8086,-8.0585,-8.1692,-8.1692,-8.4053,-8.5699,-8.6726,-8.6726,-8.6726,-8.6726,-8.6726,-8.6395,-8.5964,-8.6527,-8.6063,-8.5268,-8.6527,-8.666,-8.6262,0.0,0.0,0.0,0.0,0.0,0.0,0.0,0.0,0.0,0.0,0.0,0.0,-3.844,-3.8742,-3.8868,-3.8818,-3.8366,-3.8216,-3.8413,-3.9318,-3.9619,-3.9411,-3.9644,0.0,-3.9747,-3.9747,-4.0593,-4.2312,-4.1878,-4.494,-5.119,-5.0857,-5.3178,-5.7499,-5.3903,-5.0987,-4.8561,-4.6597,-4.5421,-4.4852,-4.3723,-4.326,-4.3598,-4.5257,-4.6334,-4.6908,-4.6411,-4.7298,-4.8566,-4.7591,-4.7948,-4.8909,-4.8909,-4.8909,-4.9009,0.0,0.0,0.0,-5.4342,-5.8174,-6.2645,-6.7289,-7.1644,-7.5301,-7.7217,0.0,-8.1136,-8.0527,-8.1368,-8.221,-8.2268,-8.2297,-8.25,-8.3139,-8.2704,-8.2297,-8.2297,-8.1717,-8.1281,-8.1281,-8.0236,-7.9743,-8.0352,-7.9307,-7.8582,-7.8494,-7.7856,-7.7188,-7.655,-7.6491,-7.6462,-7.6462,-7.6462,-7.6612,-7.709,-7.7179,-7.7432,-7.7861,-8.0066,-8.1028,-8.1156,-8.3824,-8.5136,-8.5235,-8.5235,-8.5235,-8.5235,-8.5235,-8.5202,-8.5169,-8.5202,-8.5169,-8.5202,-8.5964,-8.6196,-8.6163,0.0,0.0,0.0,0.0,0.0,0.0,0.0,0.0,0.0,0.0,0.0,0.0,0.0,-3.7916,-3.8116,-3.8316,-3.8241,-3.8363,-3.86,-3.8951,-3.905,-3.8945,-3.9258,0.0,0.0,-3.9594,-4.0262,-4.1533,-4.1478,-4.3863,-4.8614,-4.99,-5.1879,-5.4352,-5.2387,-5.1097,-5.0014,-4.574,-4.3916,-4.3986,-4.3093,-4.3986,-4.5576,-4.513,-4.6259,-4.8002,0.0,0.0,-4.7878,-4.8572,-4.8764,-4.877,-4.961,-4.9523,-4.9207,-4.9502,-5.0208,-5.1614,-5.4342,-5.6868,-5.9771,-6.4299,-6.845,-7.176,-7.2863,-7.6375,-7.922,-7.8582,-7.9452,-8.0585,-8.1397,-8.1891,-8.2123,-8.1949,-8.1717,-8.1426,-8.1049,-8.041,-7.9975,-7.9975,-7.9569,-7.9249,-7.9104,-7.9017,-7.864,-7.7827,-7.7537,-7.713,-7.6491,-7.6462,-7.6462,-7.6462,-7.6762,-7.7004,-7.7179,-7.7491,-7.745,-7.7173,-7.9351,-8.0301,-8.0397,-8.2648,-8.3678,-8.3678,-8.3678,-8.4241,-8.5103,-8.5103,-8.4838,-8.444,-8.4937,-8.454,-8.3844,-8.5037,-8.5169,-8.4838,0.0,0.0,0.0,0.0,0.0,-3.5307,-3.5211,0.0,0.0,0.0,0.0,0.0,0.0,0.0,-3.7717,-3.7742,-3.8115,-3.828,-3.8442,-3.8638,-3.8736,-3.8631,-3.905,0.0,0.0,-3.9769,-4.0158,-4.0743,-4.1271,-4.3144,-4.6245,-4.8559,-5.0638,-5.2441,-5.0875,-5.0851,-5.1845,-4.8167,-4.6226,-4.5513,-4.4793,-4.538,-4.6777,-4.706,-4.8083,0.0,0.0,0.0,0.0,-4.9497,-4.9491,-4.9699,-5.0213,-5.0022,-4.9502,-4.9669,-4.9988,-5.0801,-5.292,-5.4429,-5.6461,-6.111,-6.4309,-6.6941,-6.9632,-7.3035,-7.5679,-7.6317,-7.7449,-7.8814,-8.0294,-8.0759,-8.0991,-8.1165,-8.0846,-8.041,-8.0033,-7.9569,-7.922,-7.9017,-7.8785,-7.8494,-7.8117,-7.8233,-7.8001,-7.7159,-7.7101,0.0,-7.6491,-7.6259,-7.6176,-7.5973,-7.6269,-7.6505,-7.6932,-7.6979,-7.6792,-7.6514,-7.8142,-7.9067,-7.9574,-8.136,-8.251,-8.2883,-8.2883,-8.3446,-8.4374,-8.4374,-8.4076,-8.3678,-8.4175,-8.3778,-8.3049,-8.4275,-8.444,-8.4109,0.0,-3.4463,-3.4799,-3.4823,-3.4823,-3.492,-3.5138,-3.5235,-3.5235,-3.5235,0.0,0.0,0.0,0.0,0.0,-3.7366,-3.7808,-3.7898,-3.7643,-3.8338,-3.8631,-3.8421,-3.8945,0.0,0.0,-4.012,-4.0224,-3.9697,-4.1304,-4.2936,-4.4593,-4.6803,-4.9615,-5.2653,-4.9626,-5.0528,-5.3984,-5.3799,-5.2133,-4.9509,-4.8639,-4.7597,-4.706,-5.1245,0.0,0.0,-5.1239,-5.2155,0.0,-5.0167,0.0,0.0,-5.0917,-5.0249,-4.9727,-4.9698,-4.9698,-4.9698,0.0,0.0,0.0,-5.743,-5.8898,-6.0964,-6.7451,-6.936,-7.0541,-7.3705,-7.5417,-7.6956,-7.8901,-7.8756,-7.8959,-8.0817,-8.0091,-7.9278,-7.9307,-7.9278,-7.9017,-7.8436,-7.7769,-7.7362,-7.7362,-7.6811,-7.6462,-7.6462,-7.6462,-7.6462,-7.6433,-7.5824,-7.5333,-7.5159,-7.5129,-7.5563,-7.6278,-7.5625,-7.5578,-7.5995,-7.6599,-7.7641,-7.9004,-8.0417,-8.1668,-8.2883,-8.2883,-8.2883,-8.2883,-8.2883,-8.2883,-8.2883,-8.2883,-8.2883,-8.2983,-8.3711,-8.3976,-8.4076,-3.3958,-3.415,-3.4366,-3.4751,-3.4823,-3.4823,-3.492,-3.5258,-3.5499,0.0,0.0,0.0,-3.6816,-3.8558,-3.9619,-3.9282,-3.9745,-3.9442,-3.7935,-3.8113,-3.821,-3.808,-3.8421,-3.8631,-3.8631,-3.9303,-3.9511,-3.9362,-4.0445,-4.1605,-4.2886,-4.5121,-4.728,-4.9339,-5.0062,-5.0688,-5.0622,-4.7827,-4.8213,-5.0567,-4.8521,-4.9221,0.0,0.0,0.0,0.0,0.0,-5.41,-5.48,0.0,-5.3681,-5.2484,-5.1087,-5.0859,-5.0888,-4.9959,-5.0017,-5.0307,-4.9814,0.0,0.0,0.0,0.0,0.0,-6.0092,-6.3864,-6.7638,-6.9931,-7.2544,-7.5127,-7.7507,-7.742,-7.7478,-7.893,-7.8872,-7.8814,-7.9249,-7.8524,-7.7856,-7.7711,-7.713,-7.6724,-7.6724,-7.6579,-7.6462,0.0,-7.6462,-7.6259,-7.5795,-7.5185,-7.5043,-7.5563,-7.5563,-7.5643,-7.6046,-7.5837,-7.603,-7.6702,-7.7734,-7.9035,-8.0417,-8.1785,-8.2543,-8.2883,-8.2883,-8.2883,-8.2883,-8.2883,-8.2883,-8.2883,-8.2883,-8.2883,-8.2916,-8.3148,-8.3215,-8.3314,-3.3933,-3.4222,-3.4535,-3.5064,-3.5521,-3.5737,-3.5521,-3.6122,-3.6435,0.0,0.0,0.0,-3.8185,-4.022,-4.1193,-4.0531,-4.0555,-4.0096,-3.8743,-3.8455,-3.8334,-3.8334,-3.8437,-3.8421,-3.8526,-3.9272,-3.9611,-3.9465,-4.037,-4.1078,-4.1505,-4.3263,-4.4719,-4.5899,-4.723,-4.7958,-4.8058,-4.5316,-4.6514,0.0,-5.0398,0.0,0.0,-5.4645,-5.5772,0.0,0.0,0.0,-5.8258,-5.7669,-5.5921,0.0,0.0,-5.1321,-5.141,-5.0394,-5.0365,-5.054,-4.9843,-5.0162,-5.1104,-5.2661,0.0,0.0,-5.7499,-6.0033,-6.2819,-6.5809,-6.8334,-7.1034,-7.4401,-7.4924,-7.5446,-7.7304,-7.7362,-7.7507,-7.8378,-7.7885,-7.7304,-7.7043,-7.6666,-7.6462,-7.6462,-7.6462,-7.6346,-7.6085,-7.6056,-7.5679,-7.4779,-7.4372,-7.4459,-7.4911,-7.4645,-7.4742,-7.5078,-7.5565,-7.613,-7.6461,-7.8124,-7.9654,-8.0928,-8.1668,-8.2395,-8.2883,-8.2883,-8.2883,-8.2883,-8.2883,-8.2883,-8.2883,-8.2883,-8.2883,-8.2883,-8.2883,-8.3082,-8.3413,0.0,-3.4463,-3.504,-3.5689,-3.6627,-3.7204,0.0,-3.7685,0.0,0.0,-3.7565,-3.8695,-4.0787,-4.2254,-4.2711,-4.1701,-4.1148,-4.0499,-3.9753,-3.9248,-3.896,-3.8912,-3.8645,-3.8591,-3.8908,-3.9717,-4.0034,-3.9769,-4.0746,-4.1021,-4.0727,-4.1706,-4.2409,-4.2886,-4.2961,-4.4041,-4.5799,-4.5045,0.0,-4.9401,-5.2992,-5.4334,0.0,0.0,-6.018,-5.9665,-6.0455,-6.155,-6.225,-5.9938,-5.7703,0.0,0.0,0.0,0.0,-5.1033,-5.083,-5.0743,-5.0075,-5.0365,-5.154,-5.4124,-5.3739,0.0,-5.743,-5.7266,-5.7565,-6.1716,-6.3632,-6.5838,-7.0047,-7.1469,-7.2718,-7.504,-7.5214,-7.5621,-7.7188,-7.7333,-7.7101,-7.6521,-7.6462,-7.6433,-7.6375,-7.6346,-7.6085,-7.5446,-7.5272,-7.4692,-7.356,-7.3385,-7.3466,-7.3555,-7.2994,-7.3112,-7.4031,-7.5134,-7.5913,-7.636,-7.8093,-7.9713,-8.1166,-8.1166,-8.1785,-8.2883,-8.2883,-8.2883,-8.2883,-8.2883,-8.2883,-8.2883,-8.2883,-8.2883,-8.2883,-8.2883,-8.338,-8.401,-3.4006,-3.4463,-3.5256,-3.6651,-3.7397,-3.8383,0.0,-4.0066,-4.0306,-4.1389,-4.1966,-4.2928,-4.4659,-4.5116,-4.5044,-4.4419,-4.389,-4.2615,-4.0379,-4.0138,-3.9898,-3.9465,-3.9345,-3.9406,-3.9406,-3.9807,-4.0133,-4.0384,-4.0798,-4.1289,-4.1831,-4.2057,-4.2208,-4.2333,-4.2785,-4.2961,-4.3062,-4.4644,0.0,-4.9085,-5.2528,0.0,-5.9228,-6.104,-6.2446,-6.3525,-6.3626,-6.3816,-6.3828,-6.153,-5.9345,-5.7138,0.0,0.0,0.0,-5.1885,-5.1788,-5.2049,-5.141,-5.1701,-5.231,-5.2936,-5.3664,0.0,-5.4507,-5.5474,-5.6955,-5.8842,-6.0671,-6.2674,-6.5083,-6.6883,-6.816,-6.8683,-7.0831,-7.3589,-7.6927,-7.6956,-7.6608,-7.6462,-7.6462,-7.6259,-7.5737,-7.5708,-7.5417,-7.475,-7.3763,-7.3066,-7.2834,-7.2128,-7.1933,-7.2169,-7.2324,-7.3147,-7.4592,-7.482,-7.6307,-7.9083,-7.9483,-8.0581,-8.2543,-8.2543,-8.2656,-8.2883,-8.2883,-8.2883,-8.2883,-8.2883,-8.2883,-8.2883,-8.2883,-8.2883,-8.2883,-8.2883,-8.338,-8.401,-3.4174,-3.475,-3.5713,-3.73,0.0,0.0,0.0,-4.2014,-4.2543,-4.3072,-4.4515,-4.5718,-4.6247,-4.6559,-4.6295,-4.5237,-4.4395,-4.3265,-4.1677,-4.1076,-4.0667,-4.0403,-3.9898,-3.984,-4.0193,-4.0282,-4.0501,-4.0881,-4.1295,-4.1663,-4.1938,-4.2434,-4.2283,-4.1781,-4.261,-4.2509,-4.1882,-4.4116,-4.6175,-4.8385,-5.3356,0.0,-6.0588,-6.3099,-6.458,-6.5333,-6.5609,-6.571,-6.5276,-6.1982,-6.0478,0.0,-5.5942,-5.5525,-5.6045,0.0,-5.4041,-5.4197,-5.292,0.0,0.0,-5.3907,0.0,0.0,0.0,-5.4023,-5.4458,-5.6084,-5.7187,-5.8639,-6.1193,-6.2964,-6.4473,-6.5722,-6.7551,-6.9931,-7.3153,-7.4721,-7.5504,-7.5504,-7.5475,-7.5359,-7.504,-7.5011,-7.4605,-7.3647,-7.2689,-7.2162,-7.1983,-7.151,-7.1571,-7.2057,-7.1896,-7.2619,-7.4338,-7.4967,-7.6635,-7.9277,-8.0279,-8.1557,-8.2883,-8.2883,-8.2883,-8.2883,-8.2883,-8.2883,-8.2883,-8.2883,-8.2883,-8.2883,-8.2883,-8.2883,-8.2883,-8.2883,-8.338,-8.3943,-3.4195,-3.4915,-3.5901,-3.7685,0.0,0.0,-4.2351,-4.3673,-4.4419,-4.4154,-4.6367,-4.7834,-4.7521,-4.7762,-4.7617,-4.6752,-4.4924,-4.3818,-4.3818,-4.2351,-4.1437,-4.1456,-4.0523,-4.0322,-4.095,-4.0783,-4.0893,-4.1422,-4.1977,-4.2198,-4.1977,-4.2649,-4.2509,-4.1706,-4.2585,-4.2534,-4.1932,-4.394,0.0,-4.846,0.0,-5.7876,-5.9809,-6.3927,-6.5484,-6.5609,-6.6488,-6.6815,-6.6187,-6.2169,-6.1418,-6.1479,-5.6954,-5.6957,0.0,0.0,0.0,0.0,0.0,0.0,0.0,0.0,0.0,-5.5271,0.0,0.0,0.0,-5.4052,0.0,0.0,0.0,0.0,0.0,-6.2993,0.0,0.0,0.0,-7.086,0.0,-7.3705,-7.3676,-7.3647,-7.3763,-7.356,-7.3095,-7.2453,-7.1581,-7.1108,-7.1258,-7.1141,-7.1326,-7.1941,-7.1466,-7.2059,-7.363,-7.4957,-7.6688,-7.8842,-8.0668,-8.2055,-8.2883,-8.2883,-8.2883,-8.2883,-8.2883,-8.2883,-8.2883,-8.2883,-8.2883,-8.2883,-8.2883,-8.2883,-8.2883,-8.2883,-8.338,-8.391,-3.3767,-3.4171,-3.527,-3.7613,-3.932,-4.1389,-4.4323,-4.4924,-4.5357,-4.6247,-4.8243,-4.9758,-5.0215,0.0,0.0,-5.2018,0.0,0.0,-4.7545,0.0,-4.2469,-4.222,-4.1866,-4.1625,-4.1509,-4.146,-4.1687,-4.2012,-4.2326,-4.2662,-4.2886,-4.2936,-4.2911,-4.2785,-4.2911,-4.3187,-4.3614,0.0,-4.7481,0.0,-5.4813,-5.6168,0.0,-6.1341,-6.3199,-6.3475,-6.5484,-6.6212,-6.5835,0.0,-6.2546,-6.2139,0.0,-5.8615,-5.8665,-5.785,0.0,0.0,0.0,0.0,0.0,0.0,-5.7536,0.0,0.0,0.0,-5.472,-5.382,0.0,0.0,0.0,0.0,0.0,0.0,0.0,0.0,-6.2848,-6.4764,-6.7347,-7.0744,-7.0657,-7.0541,-7.1092,-7.0134,-7.001,-7.1305,-6.9863,-6.9412,-7.0737,-7.0666,-7.0473,-7.0605,-7.0808,-7.1624,-7.2922,-7.4236,-7.6209,-7.8842,-8.0175,-8.1558,-8.2883,-8.2883,-8.2883,-8.2883,-8.2883,-8.2883,-8.2883,-8.2883,-8.2883,-8.2883,-8.2883,-8.2883,-8.2883,-8.2883,-8.338,-8.401,-3.3965,-3.4781,-3.5907,-3.7929,-3.9163,-4.0908,-4.377,-4.6054,-4.769,-4.8459,-5.0143,-5.1465,0.0,0.0,0.0,0.0,0.0,-4.8676,0.0,0.0,-4.4347,-4.394,-4.3024,-4.2565,-4.2756,-4.2501,-4.2323,-4.2299,-4.2574,-4.2737,-4.2737,-4.2874,-4.2986,-4.2986,-4.3313,0.0,-4.4869,0.0,-4.8209,0.0,0.0,0.0,0.0,-6.1868,-6.4655,-6.5358,-6.6287,-6.6614,-6.6237,0.0,-6.3249,0.0,0.0,0.0,0.0,-5.9328,0.0,-5.7504,0.0,0.0,0.0,0.0,0.0,0.0,-5.6781,0.0,-5.4836,0.0,0.0,0.0,0.0,0.0,0.0,0.0,-5.6955,-5.8319,0.0,0.0,-6.2674,-6.7145,0.0,0.0,-6.8165,-6.7945,-6.7741,-6.7801,-6.7874,-6.8165,-6.8832,-6.908,-6.9576,-7.0092,-6.9863,-7.0914,-7.3276,-7.4281,-7.6496,-7.9964,-8.0873,-8.1889,-8.2883,-8.2883,-8.2883,-8.2883,-8.2883,-8.2883,-8.2883,-8.2883,-8.2883,-8.2883,-8.2883,-8.2883,-8.2883,-8.2883,-8.3082,-8.3347,-3.4393,-3.509,-3.5971,-3.7667,-3.8598,-4.0138,-4.3096,-4.6078,0.0,0.0,0.0,0.0,-5.3558,-5.3966,0.0,0.0,-5.3774,-5.2187,0.0,0.0,-4.6415,0.0,0.0,0.0,0.0,-4.3423,-4.2928,-4.2641,-4.3049,-4.3075,-4.2849,-4.325,-4.3514,-4.3689,-4.4392,-4.5422,-4.6728,0.0,-5.0293,-5.2126,-5.4988,-5.6696,-5.8001,-6.2621,-6.5358,-6.6739,-6.6739,-6.6739,-6.6363,-6.3902,-6.3776,0.0,-6.227,0.0,-6.1967,-6.0639,-5.98,-5.8617,-5.6131,0.0,0.0,0.0,0.0,0.0,0.0,0.0,0.0,0.0,0.0,0.0,0.0,0.0,-5.4342,-5.5271,0.0,-5.5852,0.0,-5.739,-5.9161,0.0,0.0,0.0,0.0,-6.5455,-6.5455,-6.4868,-6.5513,-6.6235,-6.6922,-6.7671,-6.8631,-6.9961,-6.9692,-7.0796,-7.3359,-7.4368,-7.6516,-7.9924,-8.1017,-8.179,-8.2287,-8.2519,-8.2585,-8.2585,-8.2585,-8.2718,-8.2883,-8.2883,-8.2883,-8.2883,-8.2883,-8.2883,-8.2883,-8.2883,-8.2883,-8.2916,-3.5175,-3.4713,-3.4704,-3.6493,-3.7498,-3.9272,0.0,0.0,0.0,0.0,0.0,0.0,0.0,0.0,0.0,0.0,0.0,-5.6275,-5.6708,0.0,-4.8426,0.0,0.0,-4.5078,0.0,-4.4249,-4.3555,-4.3382,-4.3676,-4.3765,-4.379,-4.4317,-4.4869,-4.5447,-4.6552,-4.7933,-4.9615,-5.1825,-5.4637,-5.7775,-5.9458,-6.2069,-6.4731,0.0,-6.3802,-6.6137,-6.6137,0.0,0.0,-6.4228,-6.4379,0.0,0.0,0.0,0.0,0.0,0.0,0.0,0.0,0.0,0.0,-5.8202,0.0,0.0,0.0,0.0,-5.7826,0.0,0.0,0.0,0.0,-5.5794,-5.5358,-5.5387,-5.5416,0.0,0.0,-5.5126,-5.6723,-5.9974,-6.1695,0.0,0.0,-6.2523,-6.2966,0.0,-6.2736,-6.3357,-6.586,-6.67,-6.7956,-6.9931,-7.056,-7.1443,-7.2768,-7.4111,-7.5794,-7.7869,-7.978,-8.073,-8.0763,-8.1492,-8.1823,-8.1823,-8.1823,-8.2221,-8.2883,-8.2883,-8.2883,-8.2883,-8.2883,-8.2883,-8.2883,-8.2883,-8.2883,-8.2983,-3.529,-3.5248,-3.5451,-3.6779,0.0,0.0,0.0,-4.4515,0.0,0.0,0.0,0.0,0.0,-6.2961,-6.438,0.0,0.0,-6.2047,-5.9786,-5.6299,0.0,0.0,0.0,-4.816,0.0,-4.6504,-4.506,-4.3555,-4.4111,-4.4342,-4.4342,-4.4543,-4.4719,-4.4995,-4.6476,-4.8259,0.0,0.0,0.0,0.0,0.0,-6.3525,-6.576,0.0,0.0,-6.6112,-6.6112,-6.6112,0.0,-6.5484,-6.5283,-6.5258,-6.5057,-6.4128,-6.3011,-6.2154,-6.1499,0.0,0.0,0.0,-6.2338,-5.7705,0.0,0.0,0.0,0.0,0.0,0.0,0.0,0.0,0.0,-5.6432,-5.5416,-5.5416,-5.5068,-5.4749,0.0,-5.4691,-5.5467,-5.7423,-5.8825,-5.9644,0.0,0.0,0.0,0.0,-5.9782,0.0,-6.243,-6.4068,-6.5922,-6.7926,-6.9425,-7.1229,-7.3421,-7.5188,-7.6977,-7.8913,-8.0113,-8.0697,-8.0697,-8.0962,-8.1326,-8.179,-8.179,-8.2221,-8.2883,-8.2883,-8.2883,-8.2883,-8.2883,-8.2883,-8.2883,-8.2883,-8.2883,-8.3016,-3.5726,-3.5945,-3.6344,0.0,0.0,0.0,0.0,0.0,0.0,0.0,-5.7165,0.0,-6.527,0.0,-6.8372,0.0,-6.8661,-6.6496,-6.1855,-6.046,0.0,-5.5818,-5.3774,0.0,0.0,-4.9339,-4.7292,-4.4864,-4.5147,-4.5085,-4.4686,-4.5003,-4.5221,-4.5296,-4.7179,-4.9238,-5.1548,-5.5064,-5.7775,0.0,0.0,-6.4856,0.0,0.0,-6.6112,-6.6112,0.0,-6.6112,-6.6112,-6.6112,-6.5886,-6.5634,-6.5986,-6.5007,-6.355,-6.2822,-6.222,-6.1391,-5.9558,-6.1528,0.0,-5.8837,-6.0742,0.0,-5.8507,0.0,-6.2064,0.0,0.0,0.0,0.0,0.0,-5.6229,-5.6834,-5.5678,-5.4604,0.0,-5.3925,-5.4282,-5.5008,-5.6702,-5.7673,-5.7655,-5.7849,0.0,0.0,0.0,0.0,0.0,-6.2718,-6.5368,-6.8145,-6.9926,-7.2073,-7.4742,-7.6023,-7.7552,-7.9239,-7.9968,-8.0167,-7.9935,-8.02,-8.0564,-8.1028,-8.1293,-8.1823,-8.2519,-8.2784,-8.2883,-8.2883,-8.2883,-8.2883,-8.2883,-8.2883,-8.2883,-8.2983,-3.6461,-3.6712,-3.719,0.0,-3.9038,0.0,0.0,0.0,-5.2331,0.0,-5.957,-6.4091,-6.7314,-6.9093,-7.0657,-7.2124,-7.2244,-6.9647,-6.349,-6.4404,0.0,0.0,-5.7646,-5.7252,-5.546,-5.2696,-4.9898,-4.7145,-4.681,-4.619,-4.5171,-4.598,-4.6301,-4.6376,-4.8611,0.0,-5.3105,-5.7022,-6.0311,-6.3099,-6.5258,-6.6112,-6.6112,-6.6112,-6.6112,-6.6283,-6.6112,-6.6112,-6.6112,-6.6112,-6.6112,-6.6112,-6.6112,-6.576,-6.5132,-6.4078,-6.4128,-6.4078,-6.1969,-6.1416,-6.1432,-6.158,0.0,0.0,0.0,0.0,-6.5954,0.0,0.0,0.0,0.0,0.0,-5.7968,-5.9304,-5.7236,-5.472,-5.2862,-5.2807,-5.3012,-5.31,-5.5177,-5.6652,-5.6793,-5.7478,-5.6888,0.0,0.0,-5.839,-5.9501,-6.2535,-6.607,-7.014,-7.1832,-7.3862,-7.6556,-7.6589,-7.7324,-7.8544,-7.9239,-7.9206,-7.8544,-7.9239,-7.9604,-7.967,-8.0332,-8.1061,-8.1856,-8.2552,-8.2883,-8.2883,-8.2883,-8.2883,-8.2883,-8.2883,-8.2883,-8.2883,-3.6323,-3.7014,-3.7934,0.0,-3.9627,-4.1293,0.0,0.0,0.0,0.0,-6.3875,-6.8348,-7.2701,-7.4264,-7.4985,-7.4985,-7.4985,0.0,0.0,0.0,0.0,-6.5751,-6.3249,-6.1301,-6.0146,-5.6081,-5.3205,-5.1187,-4.8903,-4.7706,-4.7408,-4.6706,-4.61,-4.5824,-4.8435,-5.0393,-5.1975,-5.6294,-6.0412,-6.4178,-6.5559,-6.6112,-6.6112,0.0,-6.6916,-6.788,-6.6601,-6.6112,-6.6112,-6.6112,-6.6112,-6.6112,-6.6112,-6.6011,-6.576,-6.5082,-6.5258,-6.5484,-6.4505,-6.453,-6.4587,-6.3934,-6.4585,-6.5281,0.0,0.0,0.0,0.0,0.0,0.0,0.0,0.0,0.0,-5.759,-5.6012,-5.4691,-5.3698,-5.3275,-5.3363,-5.427,-5.3943,-5.4475,-5.6585,-5.5929,-5.5605,0.0,0.0,0.0,-5.8024,0.0,-6.525,-6.73,-7.126,-7.4057,-7.5811,-7.7282,-7.8155,-7.8511,-7.8709,-7.8709,-7.8544,-7.8709,-7.9107,-7.9637,-7.9836,-8.0631,-8.179,-8.1989,-8.2419,-8.2883,-8.2883,-8.2883,-8.2883,-8.2883,-8.2883,-8.2883,-3.6691,-3.8101,0.0,-4.0425,0.0,0.0,-4.7329,0.0,0.0,-6.0965,-6.5678,0.0,-7.2797,-7.513,-7.6428,-7.6356,-7.614,0.0,-7.1979,0.0,0.0,-6.8661,-6.7001,-6.5294,-6.3538,-5.9206,0.0,-5.3227,-5.0161,-4.8343,-4.7626,-4.6734,-4.6276,-4.6301,-4.8335,-5.0117,-5.195,-5.6872,-6.109,-6.453,-6.5409,-6.5886,0.0,-6.6112,-6.7256,-6.8524,-6.7569,-6.7256,-6.7256,-6.7256,-6.6771,-6.6112,-6.6112,-6.6112,-6.6061,-6.5735,-6.6347,-6.7179,-6.6872,-6.748,-6.8324,-6.7641,-6.8632,-6.9357,-6.7913,-6.962,-7.1353,0.0,0.0,0.0,0.0,0.0,0.0,-5.7419,-5.5721,-5.4592,-5.3419,-5.3815,-5.4182,-5.4065,-5.4416,-5.5066,-5.6199,-5.479,-5.4154,0.0,0.0,0.0,0.0,0.0,-6.5643,-6.7254,-7.1564,-7.4621,-7.6322,-7.8122,-7.8842,-7.8511,-7.8511,-7.8511,-7.8511,-7.8511,-7.8742,-7.9173,-7.9471,-8.0266,-8.1326,-8.1658,-8.2221,-8.2883,-8.2883,-8.2883,-8.295,-8.3248,-8.338,-8.338,-3.7425,-3.9406,0.0,0.0,0.0,0.0,0.0,-5.3966,0.0,-6.2095,0.0,-7.02,-7.1114,-7.4144,-7.626,-7.6669,0.0,-7.4721,-7.1426,-7.3374,-7.2941,-6.9117,-6.9695,-6.8877,-6.628,-6.1999,-5.8055,0.0,0.0,-4.8748,-4.7125,-4.6512,-4.6602,-4.7179,-4.8284,-5.0092,-5.2653,-5.7901,-6.1642,-6.4103,-6.4957,-6.5609,-6.6112,-6.6112,-6.7256,-6.869,-6.9022,-6.8857,-6.869,-6.869,-6.7569,-6.6112,-6.6112,-6.6112,-6.6112,-6.6112,-6.7477,-6.8821,-6.8821,-7.0118,-7.1392,-7.1714,-7.2802,-7.3451,-7.2001,-7.2883,-7.3995,-7.3995,-7.1702,-7.025,0.0,0.0,0.0,-5.8232,-5.6333,0.0,0.0,0.0,-5.5323,-5.361,-5.543,0.0,0.0,0.0,0.0,0.0,0.0,0.0,0.0,0.0,-6.6585,-6.8473,-7.2018,-7.5032,-7.7384,-7.8709,-7.9107,-7.8676,-7.8577,-7.8511,-7.8511,-7.8511,-7.8511,-7.8544,-7.9206,-7.9935,-8.073,-8.1393,-8.2154,-8.2883,-8.2883,-8.2883,-8.2983,-8.3612,-8.3976,-8.4142,-3.8688,0.0,0.0,0.0,0.0,-5.2427,-5.7141,-6.1879,-6.5582,-6.7434,-7.1811,-7.4841,-7.5034,-7.602,-7.6525,-7.6188,-7.6452,0.0,0.0,0.0,0.0,-7.3398,-7.2653,-7.1234,-6.9045,-6.4428,-6.0628,0.0,0.0,0.0,0.0,-4.6885,-4.6602,-4.7179,-4.8284,-5.0494,-5.3658,-5.7424,0.0,-6.1969,-6.4329,-6.5609,-6.6112,-6.6112,-6.7256,-6.8857,-7.0311,-6.9985,-6.869,-6.869,-6.7569,-6.6112,-6.6112,-6.6112,-6.6112,-6.6112,-6.7758,-6.9616,-6.9616,-7.0757,-7.253,-7.3813,-7.4081,-7.4253,-7.5247,-7.5791,-7.5969,-7.5969,-7.5098,-7.3676,-7.1469,0.0,0.0,0.0,0.0,0.0,0.0,0.0,0.0,-5.5874,-5.5322,-5.5371,0.0,0.0,0.0,0.0,0.0,0.0,0.0,0.0,-6.7413,0.0,-7.0792,0.0,0.0,0.0,-7.8345,-7.9438,-7.8809,-7.8511,-7.8511,-7.8511,-7.8511,-7.8544,-7.8676,-7.9471,-8.0697,-8.0829,-8.1691,-8.2883,-8.2883,-8.2883,-8.2916,-8.3049,-8.3877,-8.4904,-4.1484,0.0,0.0,0.0,0.0,0.0,0.0,-6.741,0.0,-6.9093,-7.1138,-7.2845,-7.311,-7.5082,-7.6404,-7.6428,-7.6404,-7.6284,-7.602,-7.5755,-7.525,-7.4456,-7.3398,-7.1835,-6.9743,-6.5823,-6.1951,-5.8175,0.0,0.0,0.0,0.0,-4.6906,-4.7358,-4.8584,-5.087,-5.3858,0.0,0.0,-6.1391,-6.3877,-6.5358,-6.6112,-6.6112,-6.7256,-6.8857,-7.0637,-7.0799,-7.0148,-7.1123,-6.9683,-6.74,-6.74,-6.6746,-6.6112,-6.6112,-6.7605,-6.9469,-7.0273,-7.1718,-7.3507,-7.5284,-7.5392,-7.5469,-7.6283,-7.6462,-7.6462,-7.6462,-7.6201,-7.5127,-7.2224,-6.7289,0.0,0.0,0.0,0.0,0.0,0.0,-5.7765,-5.6955,-5.6055,-5.5583,-5.585,-5.4596,-5.4921,-5.7389,0.0,0.0,0.0,0.0,-6.6265,0.0,0.0,0.0,-7.5728,0.0,-7.7782,-7.8477,-7.8113,-7.8146,-7.8511,-7.8511,-7.8511,-7.8511,-7.8511,-7.9339,-8.0763,-8.1525,-8.2022,-8.2353,-8.2751,-8.2651,-8.2419,-8.3181,-8.4175,-8.5103,0.0,-4.6617,0.0,0.0,-5.761,0.0,-6.5534,-7.0825,-7.3374,-7.0464,-7.0633,-7.1186,-7.1619,-7.4264,-7.6188,-7.6597,-7.626,-7.602,-7.602,-7.5611,-7.5154,-7.4625,-7.3663,-7.2172,-7.0079,-6.6881,-6.2865,0.0,0.0,0.0,0.0,0.0,0.0,0.0,0.0,0.0,0.0,0.0,-5.8353,-6.1391,-6.3701,-6.5233,-6.6112,-6.6112,-6.6916,-6.8383,-7.0148,-7.0799,-7.0961,-7.2747,-7.1284,-6.869,-6.8215,-6.7256,-6.6112,-6.6112,-6.7502,-6.9206,-7.0988,-7.2782,-7.4536,-7.6335,-7.655,-7.6462,-7.6462,-7.6462,-7.6462,-7.6462,-7.6346,-7.5563,-7.324,-6.9612,0.0,0.0,0.0,0.0,0.0,0.0,-5.9655,-5.7942,-5.7652,-5.7067,-5.5567,0.0,0.0,0.0,0.0,0.0,-5.8466,0.0,0.0,0.0,0.0,-7.268,-7.4602,0.0,-7.7185,-7.7649,-7.7484,-7.7815,-7.8511,-7.8511,-7.861,-7.8742,-7.8742,-7.9571,-8.1028,-8.2353,-8.2453,-8.1856,-8.2618,-8.2453,-8.1956,-8.3281,-8.4341,-8.5103,0.0,0.0,0.0,0.0,0.0,0.0,-6.6857,-7.1282,-7.4312,-7.3951,-7.4793,-7.5442,-7.5491,-7.5803,-7.6044,-7.6092,-7.6044,-7.602,-7.602,-7.5971,-7.5707,-7.5178,-7.4601,-7.3302,-7.1162,-6.7987,-6.3779,0.0,0.0,-5.2024,0.0,0.0,0.0,0.0,0.0,0.0,0.0,-5.6168,-5.9081,-6.1416,-6.4128,-6.5584,-6.6112,-6.6112,-6.6283,-6.6601,-6.8383,-6.8857,-6.9188,-7.0961,-7.0311,-6.8383,-6.6746,-6.6283,-6.6112,-6.6112,-6.7784,-7.0004,-7.1798,-7.3417,-7.5186,-7.6818,-7.6869,-7.6462,-7.6462,-7.6462,-7.6462,-7.6462,-7.5998,-7.5185,-7.3792,-7.1731,-6.9466,0.0,0.0,0.0,0.0,0.0,-6.247,-5.948,-6.0555,-6.038,-5.7332,-5.7815,0.0,0.0,-5.695,0.0,0.0,0.0,0.0,-6.6029,-6.9316,-7.2647,-7.6092,-7.5695,-7.6457,-7.8411,-7.7749,-7.7815,-7.8511,-7.8511,-7.8875,-7.9537,-7.9537,-8.0332,-8.1757,-8.2552,-8.2453,-8.1856,-8.2618,-8.2453,-8.1889,-8.2718,-8.391,-8.5103,0.0,0.0,0.0,0.0,0.0,0.0,0.0,-7.2508,-7.4072,-7.4384,-7.5346,-7.602,-7.602,-7.602,-7.602,-7.602,-7.602,-7.602,-7.602,-7.602,-7.5635,-7.4793,-7.4553,-7.3302,-7.0849,-6.8925,-6.5342,0.0,0.0,0.0,0.0,0.0,0.0,0.0,0.0,-5.2329,-5.4477,-5.7475,-6.0136,-6.2345,-6.4454,-6.5609,-6.6112,-6.6112,-6.6112,-6.6283,-6.8048,-6.869,-6.8857,-6.9518,-6.9353,-6.855,-6.7906,-6.6916,-6.6112,-6.6112,-6.6752,-6.8072,-7.1013,-7.212,-7.3424,-7.6176,-7.6637,-7.6462,-7.6462,-7.6462,-7.6462,-7.6462,-7.6259,-7.5795,-7.4924,-7.3153,-7.1266,0.0,0.0,0.0,0.0,0.0,0.0,-6.0032,-5.8784,-5.7448,-5.5794,-5.6071,0.0,0.0,0.0,0.0,0.0,0.0,0.0,-6.5934,0.0,-7.093,-7.437,-7.4535,-7.5264,-7.6589,-7.6258,-7.649,-7.7219,-7.7649,-7.8511,-7.967,-8.0564,-8.0995,-8.1194,-8.1923,-8.179,-8.1194,-8.1956,-8.2055,-8.1889,-8.2618,-8.3844,-8.5103,-5.9375,0.0,-6.2384,0.0,-6.7533,-6.8877,-7.2701,-7.3494,-7.3951,-7.4793,-7.5418,-7.5827,-7.5996,-7.602,-7.602,-7.602,-7.602,-7.602,-7.602,-7.602,-7.5611,-7.4697,-7.4529,0.0,-7.0993,-6.9767,-6.6761,-6.1903,-5.9201,0.0,0.0,0.0,0.0,0.0,-5.2495,-5.4245,-5.6352,-5.9148,-6.1407,-6.3285,-6.4931,-6.576,-6.6112,-6.6112,-6.6112,-6.6283,-6.7569,-6.7906,-6.7906,-6.7906,-6.7906,-6.7906,-6.7906,-6.7086,-6.6112,-6.6112,-6.6112,-6.6916,-7.0311,-7.1284,-7.2085,-7.5649,-7.6462,-7.6462,-7.6462,-7.6462,-7.6462,-7.6462,-7.6462,-7.6317,-7.5882,-7.4518,-7.2979,-7.1528,0.0,0.0,0.0,-6.3835,0.0,-6.038,-5.8523,-5.6694,-5.4952,-5.5488,0.0,0.0,0.0,0.0,0.0,0.0,0.0,0.0,0.0,0.0,-7.2542,-7.3706,-7.4635,-7.5562,-7.5363,-7.586,-7.6987,-7.7715,-7.8643,-7.9703,-8.1161,-8.1359,-8.0763,-8.1724,-8.1558,-8.0763,-8.1757,-8.1989,-8.1889,-8.2618,-8.3711,-8.4805,-6.4332,-6.5678,-6.741,-7.0657,-7.1643,-7.2532,-7.4168,-7.3975,-7.4216,-7.5779,-7.5539,-7.5418,-7.5947,-7.602,-7.602,-7.602,-7.602,-7.602,-7.602,-7.602,-7.5779,0.0,0.0,-7.3687,-7.2076,-7.0488,-6.7843,-6.4091,0.0,0.0,-5.5175,0.0,-5.3201,-5.3348,-5.5481,-5.6756,-5.7467,-6.0788,-6.2738,-6.3881,-6.5489,-6.6112,-6.6112,-6.6112,-6.6112,-6.6112,-6.6112,-6.6112,-6.6112,-6.6112,-6.6112,-6.6112,-6.6112,-6.6112,-6.6112,-6.6112,-6.6112,-6.6916,-7.0311,-7.1284,-7.2085,-7.5649,-7.6462,-7.6462,-7.6462,-7.6462,-7.6462,-7.6462,-7.6462,-7.6462,-7.6462,-7.5911,-7.4837,-7.2892,0.0,0.0,0.0,-6.5373,0.0,-6.0584,-6.128,-6.0264,-5.5823,-5.7129,0.0,0.0,0.0,0.0,0.0,0.0,0.0,-6.1958,-6.7309,0.0,-7.1415,-7.3266,-7.49,-7.6291,-7.5595,-7.639,-7.8511,-7.9272,-7.9604,-7.9703,-8.1161,-8.1359,-8.0796,-8.2287,-8.2022,-8.0829,-8.232,-8.2453,-8.1889,-8.2618,-8.338,-8.4109,-6.7242,-6.8492,-6.9767,-7.1498,-7.2244,-7.2749,-7.3254,-7.3494,-7.3951,-7.4817,-7.5106,-7.5418,-7.5947,-7.602,-7.602,0.0,-7.602,-7.602,0.0,-7.602,-7.5611,-7.4721,-7.4529,-7.3518,-7.157,-7.0681,-6.8757,-6.5751,0.0,0.0,0.0,-5.567,-5.5452,-5.5888,-5.7607,-5.9267,-6.0892,-6.2968,-6.4424,-6.5439,-6.5961,-6.6112,-6.6112,-6.6112,-6.6112,-6.6112,-6.6112,-6.6112,-6.6112,-6.6112,-6.6112,-6.6112,-6.6112,-6.6112,-6.6283,-6.7569,-6.7906,-6.869,-7.2085,-7.3062,-7.3533,-7.5981,-7.6462,-7.6462,-7.6462,-7.6462,-7.6462,-7.6462,-7.6462,-7.6317,-7.5882,-7.5272,-7.4198,-7.2282,-7.0541,0.0,-6.5664,0.0,-6.1542,-5.919,-5.8493,-5.7477,-5.5591,-5.6374,0.0,0.0,0.0,0.0,0.0,0.0,0.0,0.0,-6.6106,0.0,-7.2022,-7.2704,-7.3848,-7.5595,-7.4867,-7.5397,-7.7053,-7.8312,-7.914,-7.967,-8.0631,-8.0631,-8.0034,-8.0995,-8.1128,-8.0796,-8.1757,-8.232,-8.2585,-8.2817,-8.338,-8.4043,-6.9214,-7.02,-7.1114,-7.2148,-7.2773,-7.3182,-7.3398,-7.3711,-7.4216,-7.4937,-7.5154,-7.5418,-7.5947,-7.602,0.0,-7.602,-7.602,-7.602,-7.602,-7.602,-7.5539,-7.448,-7.424,-7.323,-7.1306,-7.0753,0.0,-6.7386,-6.4861,-6.1975,-5.88,-5.8271,-5.8175,-5.856,-5.9975,-6.1327,-6.2811,-6.4013,-6.5098,-6.5767,-6.6112,-6.6112,-6.6112,-6.6112,-6.6112,-6.6112,-6.6112,-6.6112,-6.6112,-6.6112,-6.6112,-6.6112,-6.6112,-6.6112,-6.6429,-6.8215,-6.869,-6.9518,-7.2905,-7.3873,-7.4338,-7.6132,-7.6462,-7.6462,-7.6462,-7.6462,-7.6462,-7.6462,-7.6462,-7.6259,-7.5621,-7.5156,-7.4256,-7.234,-7.0628,-6.8479,-6.5431,0.0,-6.0816,-5.89,-5.7971,0.0,0.0,-5.7158,-5.7619,0.0,0.0,0.0,0.0,0.0,0.0,-6.367,-6.5525,-6.7897,-7.0631,-7.1789,-7.3193,-7.4609,-7.5124,-7.5728,-7.6357,-7.7848,-7.8776,-7.9239,-7.9968,-7.9869,-7.9306,-8.0564,-8.0929,-8.0796,-8.1823,-8.2486,-8.2916,-8.3215,-8.3446,-8.3711,-7.0392,-7.0993,0.0,0.0,-7.3302,0.0,-7.436,-7.4456,-7.4841,-7.5827,-7.5563,-7.5466,-7.5947,-7.602,-7.602,-7.602,0.0,0.0,0.0,-7.602,-7.5539,-7.448,-7.3927,-7.2893,-7.1306,-7.0753,-6.9959,-6.8853,-6.5799,-6.3514,-6.1999,-6.1446,-6.1157,-6.1181,-6.2191,-6.2973,-6.3346,-6.4331,-6.4901,-6.5421,-6.594,-6.6112,-6.6112,-6.6112,-6.6112,-6.6112,-6.6112,-6.6112,-6.6112,-6.6112,-6.6112,-6.6112,-6.6112,-6.6112,-6.6429,-6.8215,-6.8857,-6.9683,-7.3062,-7.4028,-7.4521,-7.6132,-7.6462,-7.6462,-7.6462,-7.6462,-7.6462,-7.6462,-7.6462,-7.6259,-7.5563,-7.5446,-7.4779,-7.2747,-7.1324,-6.9118,-6.5315,-6.3109,-6.1222,0.0,0.0,0.0,0.0,-5.9074,-5.9189,0.0,0.0,0.0,0.0,0.0,-6.2181,-6.2241,-6.5772,-6.7781,-6.7843,-7.0694,-7.2628,-7.348,-7.6161,-7.7053,-7.6424,-7.7815,-7.8477,-7.8544,-7.9239,-7.914,-7.8676,-8.0829,-8.1293,-8.0829,-8.232,-8.2883,-8.2983,-8.3678,-8.3513,-8.3281,0.0,0.0,-7.2196,-7.3278,-7.3567,-7.3831,-7.436,-7.4769,-7.513,-7.537,-7.5659,-7.5875,-7.5996,-7.602,-7.602,-7.602,-7.602,-7.602,-7.602,-7.602,-7.5539,-7.448,-7.3927,-7.2893,-7.1306,-7.0753,-6.9767,-6.83,-6.6713,-6.5342,-6.4163,-6.3634,-6.3153,-6.2793,-6.3033,-6.3329,-6.3856,-6.4478,-6.4901,-6.5421,-6.594,-6.6112,-6.6112,-6.6112,-6.6112,-6.6112,-6.6112,-6.6112,-6.6112,-6.6112,-6.6112,-6.6112,-6.6112,-6.6112,-6.6429,-6.8215,-6.9656,-7.1123,-7.3376,-7.4829,-7.5981,-7.6462,-7.6462,-7.6462,-7.6462,-7.6462,-7.6462,-7.6462,-7.6462,-7.6114,-7.4953,-7.475,-7.3792,-7.0918,-6.8944,-6.6622,-6.3254,-6.1164,-5.9422,0.0,-5.8668,-5.919,-5.8871,-5.9248,-6.0034,0.0,0.0,0.0,-6.272,-6.2839,-6.3049,-6.3528,-6.5351,-6.712,-6.852,-6.9255,-7.0947,-7.348,-7.6161,-7.7318,-7.7152,-7.7517,-7.798,-7.8544,-7.8709,-7.8676,-7.8643,-8.0266,-8.0863,-8.0829,-8.232,-8.2883,-8.2916,-8.3082,-8.3413,-8.3811,-7.1907,-7.2244,-7.2653,-7.3494,-7.4048,-7.4456,-7.4745,-7.525,-7.5587,-7.5587,-7.5827,-7.602,-7.602,-7.602,-7.602,-7.602,-7.602,-7.602,-7.602,-7.602,-7.5539,-7.448,-7.3687,-7.2629,-7.1306,-7.0512,-6.9574,-6.8492,-6.7386,-6.6424,-6.563,-6.5101,-6.4428,-6.3706,-6.3706,-6.3739,-6.4026,-6.4446,-6.4948,-6.5446,-6.5869,-6.6165,-6.6112,-6.6112,-6.6112,-6.6112,-6.6112,-6.6112,-6.6112,-6.6112,-6.6112,-6.6112,-6.6112,-6.6112,-6.6283,-6.7256,-6.9353,-7.1605,-7.3376,-7.5164,-7.6462,-7.6462,-7.6462,-7.6462,-7.6462,-7.6462,-7.6462,-7.6462,-7.6462,-7.6056,-7.475,-7.4285,-7.295,-6.9466,-6.7522,-6.5228,-6.1716,-6.0351,-5.9335,-5.8348,-5.9364,-6.0177,-6.0177,-6.0961,-6.1637,-6.2204,-6.1644,0.0,-6.3528,-6.4096,-6.4425,-6.4485,-6.5772,-6.7095,-6.8455,-6.989,-7.1737,-7.3966,-7.6326,-7.7417,-7.7417,-7.7782,-7.8146,-7.8511,-7.8511,-7.8709,-7.9107,-8.0233,-8.0896,-8.1293,-8.2453,-8.3115,-8.3446,-8.3778,-8.4175,-8.4606,-7.222,-7.2701,-7.323,-7.3783,-7.4625,-7.525,-7.5322,-7.5731,-7.602,-7.602,-7.602,-7.602,-7.602,-7.602,-7.602,-7.602,-7.602,-7.602,-7.602,-7.5947,-7.5466,-7.448,-7.3398,-7.2316,-7.1282,-7.0248,-6.943,-6.8901,-6.7891,-6.7097,-6.6472,-6.5943,-6.5173,-6.4235,-6.4235,-6.4174,-6.4117,-6.4756,-6.5214,-6.5546,-6.6192,-6.6392,-6.6237,-6.6237,-6.6187,-6.6112,-6.6212,-6.6237,-6.6262,-6.6338,-6.6312,-6.6237,-6.6237,-6.6187,-6.6112,-6.6112,-6.8383,-7.1284,-7.3062,-7.501,-7.6462,-7.6462,-7.6462,-7.6462,-7.6462,-7.6462,-7.6462,-7.6462,-7.6462,-7.6056,-7.475,-7.3937,-7.2282,-6.8625,-6.6593,-6.4299,-6.0845,0.0,-5.9771,-5.9364,-6.0496,-6.1367,-6.1483,-6.3022,-6.3415,-6.191,-6.3737,-6.4422,-6.3617,-6.5203,-6.5892,-6.5353,-6.649,-6.7448,-6.8106,-7.1329,-7.3416,-7.4457,-7.6416,-7.7484,-7.7616,-7.8246,-7.8511,-7.8544,-7.8742,-7.914,-7.9703,-8.0531,-8.1293,-8.2022,-8.2784,-8.3513,-8.4241,-8.4871,-8.5169,-8.5467,-7.3374,-7.3831,-7.436,-7.4889,-7.5106,-7.537,-7.5827,-7.5947,-7.602,-7.602,-7.602,-7.602,-7.602,-7.602,-7.602,-7.602,-7.602,-7.602,-7.602,-7.5587,-7.5082,-7.4456,-7.3398,-7.2316,-7.1282,-7.0248,-6.943,-6.8901,-6.8276,-6.7482,-6.6472,-6.5943,-6.539,-6.4789,-6.4789,-6.4741,-6.4849,-6.582,-6.6177,-6.6281,-6.7266,-6.7342,-6.684,-6.684,-6.6538,-6.6187,-6.6664,-6.684,-6.6915,-6.7392,-6.7216,-6.684,-6.684,-6.6513,-6.6112,-6.6112,-6.7569,-6.9518,-7.1284,-7.4028,-7.6462,-7.6462,-7.6462,-7.6462,-7.6462,-7.6462,-7.6462,-7.6462,-7.6462,-7.6056,-7.475,-7.356,-7.1876,-6.9118,-6.578,-6.2964,-6.128,0.0,-5.8784,-5.9248,-6.0874,-6.218,-6.2732,-6.3545,-6.4347,-6.5117,-6.4622,-6.457,-6.5533,-6.637,-6.6789,-6.67,-6.7418,-6.8136,-6.8824,-7.2044,-7.3655,-7.3886,-7.6289,-7.7749,-7.8345,-7.8477,-7.8511,-7.8577,-7.9836,-8.0067,-7.9736,-8.1061,-8.2055,-8.2784,-8.3546,-8.4275,-8.4937,-8.507,-8.55,-8.603,-7.4072,-7.4504,-7.4937,-7.5178,-7.5466,-7.5731,-7.5971,-7.602,-7.602,-7.602,-7.602,-7.602,-7.602,-7.602,-7.602,-7.602,-7.602,-7.602,-7.602,-7.5779,-7.5274,-7.448,-7.3687,-7.2508,-7.0873,-6.9815,-6.9286,-6.9334,-6.8516,-6.8011,-6.7771,-6.6953,-6.628,-6.5751,-6.5462,-6.5173,-6.4933,-6.5766,-6.626,-6.6373,-6.7231,-6.7388,-6.7417,-6.7417,-6.7267,-6.7066,-6.7317,-6.7417,-6.7467,-6.7719,-6.7618,-6.7417,-6.7417,-6.7241,-6.6965,-6.6664,-6.8307,-7.0474,-7.2244,-7.4521,-7.6462,-7.6462,-7.6462,-7.6462,-7.6462,-7.6462,-7.6462,-7.6462,-7.6462,-7.6172,-7.5214,-7.3443,-7.1382,-6.9176,-6.5286,0.0,-6.1338,-6.0119,-5.9829,-6.1193,-6.2412,-6.3661,-6.4996,-6.5083,-6.5426,-6.6353,-6.5948,-6.5991,-6.7059,-6.7717,-6.8076,-6.8076,-6.8704,-6.9562,-7.0553,-7.2969,-7.4585,-7.531,-7.7479,-7.8776,-7.914,-7.9504,-7.967,-7.9736,-8.0399,-8.073,-8.0863,-8.1956,-8.2817,-8.3579,-8.4308,-8.5037,-8.5666,-8.5666,-8.613,-8.6759,-7.4601,-7.5034,-7.5418,-7.5418,-7.5755,-7.602,-7.602,-7.602,-7.602,-7.602,-7.602,-7.602,-7.602,-7.602,-7.602,-7.602,-7.602,-7.602,-7.602,-7.5899,-7.5418,-7.448,-7.3687,-7.246,-7.0705,-6.9743,-6.9406,-6.9695,-6.8757,-6.8516,-6.8877,-6.7795,-6.7073,-6.664,-6.6135,-6.5654,-6.5318,-6.5886,-6.6385,-6.6767,-6.739,-6.7782,-6.7995,-6.7995,-6.7919,-6.7819,-6.7945,-6.7995,-6.802,-6.8145,-6.8095,-6.7995,-6.7995,-6.7894,-6.7719,-6.7292,-6.9202,-7.1796,-7.2933,-7.4829,-7.6462,-7.6462,-7.6462,-7.6462,-7.6462,-7.6462,-7.6462,-7.6462,-7.6462,-7.6259,-7.5621,-7.3414,-7.1034,-6.9147,0.0,-6.2267,0.0,-6.1106,-6.1483,-6.3109,-6.4009,-6.5112,-6.6738,-6.6447,-6.6416,-6.703,-6.703,-6.747,-6.828,-6.9064,-6.9699,-7.035,-7.0059,-7.0718,-7.2275,-7.4111,-7.5645,-7.7107,-7.8991,-7.9869,-7.9902,-8.0631,-8.0863,-8.0697,-8.1061,-8.1426,-8.1856,-8.2784,-8.3579,-8.4341,-8.507,-8.5798,-8.6428,-8.6428,-8.6792,-8.7289,-7.5058,-7.5587,-7.5947,-7.5947,-7.5996,-7.602,-7.602,-7.602,-7.602,-7.602,-7.602,-7.602,-7.602,-7.602,-7.602,-7.602,-7.602,-7.602,-7.602,-7.5563,-7.5034,-7.4456,-7.2989,-7.1883,-7.1234,-7.0657,-7.0152,-6.9695,-6.9117,-6.8877,-6.8877,-6.7795,-6.7266,-6.7194,-6.6664,-6.6424,-6.6376,-6.6955,-6.7323,-6.7848,-6.847,-6.8509,-6.8572,-6.8572,-6.8246,-6.7869,-6.8371,-6.8572,-6.8648,-6.915,-6.8974,-6.8572,-6.8572,-6.8221,-6.7794,-6.7744,-6.9801,-7.1989,-7.1608,-7.3873,-7.6462,-7.6462,-7.6462,-7.6462,-7.6462,-7.6462,-7.6462,-7.6462,-7.6462,-7.6259,-7.5621,-7.3414,-7.1034,-6.9147,0.0,0.0,-6.2209,-6.2529,-6.3138,-6.3893,-6.5054,-6.607,-6.6825,-6.6854,-6.6956,-6.7347,-6.7607,-6.8259,-6.9238,-7.0281,-7.1926,-7.4395,-7.1601,-7.1268,-7.366,-7.5051,-7.6719,-7.868,-7.9978,-8.0598,-8.0631,-8.1359,-8.1326,-8.0763,-8.2121,-8.2386,-8.1889,-8.3347,-8.4341,-8.5103,-8.5832,-8.656,-8.719,-8.719,-8.7223,-8.7289,-7.5611,-7.5875,-7.602,-7.602,-7.602,-7.602,-7.602,-7.602,-7.602,-7.602,-7.602,-7.602,-7.602,-7.602,-7.602,-7.602,-7.602,-7.602,-7.602,-7.5515,-7.4841,-7.3975,-7.2412,-7.1474,-7.1282,-7.044,-6.9887,-6.9695,-6.9502,-6.9406,-6.9382,-6.83,-6.7795,-6.7771,-6.6881,-6.6496,-6.6496,-6.6682,-6.7212,-6.7971,-6.8154,-6.8577,-6.9125,-6.9125,-6.8999,-6.8848,-6.9049,-6.9125,-6.9175,-6.9376,-6.93,-6.9125,-6.9125,-6.8999,-6.8851,-6.9347,-7.0699,-7.2206,-7.2727,-7.4675,-7.6462,-7.6462,-7.6462,-7.6462,-7.6462,-7.6462,-7.6462,-7.6462,-7.6462,-7.6375,-7.6143,-7.3995,-7.2021,-7.1295,0.0,-6.5315,-6.5635,-6.5199,-6.5402,-6.6825,-6.7086,-6.7551,-6.8567,-6.7957,-6.7799,-6.8576,-6.887,-6.9559,-7.0605,-7.1267,-7.2741,-7.5415,-7.3558,-7.3881,-7.6864,-7.7371,-7.8467,-7.9964,-8.0906,-8.1359,-8.1393,-8.2154,-8.232,-8.2088,-8.2651,-8.2751,-8.2585,-8.4076,-8.4871,-8.5235,-8.6395,-8.7024,-8.7289,-8.7289,-8.7289,-8.7289,-7.5659,-7.5899,-7.602,-7.602,-7.602,-7.602,-7.602,-7.602,-7.602,-7.602,-7.602,-7.602,-7.602,-7.602,-7.602,-7.602,-7.602,-7.602,-7.602,-7.5515,-7.4745,-7.3687,-7.2436,-7.1691,-7.1522,-7.0801,-7.0272,-6.9935,-6.9935,-6.9863,-6.9671,-6.8781,-6.8372,-6.8324,-6.7218,-6.6737,-6.6737,-6.6568,-6.7052,-6.7764,-6.7971,-6.8519,-6.927,-6.927,-6.9451,-6.9451,-6.9451,-6.9451,-6.9451,-6.9451,-6.9451,-6.9451,-6.9451,-6.9786,-7.0451,-7.1334,-7.2412,-7.3753,-7.4945,-7.6253,-7.6956,-7.655,-7.6462,-7.6521,-7.6724,-7.6753,-7.6753,-7.6753,-7.6753,-7.6695,-7.6491,-7.4692,-7.3095,-7.2689,-6.9873,-6.7899,-6.8392,-6.787,-6.7928,-6.9263,-6.9031,-6.9031,-6.9699,-6.8973,-6.8788,-6.936,-7.0268,-7.1416,-7.2709,-7.2637,-7.3647,-7.6154,-7.5554,-7.6518,-7.9406,-7.9296,-7.9904,-8.1393,-8.1889,-8.2154,-8.2154,-8.2651,-8.2883,-8.2883,-8.2883,-8.3016,-8.3347,-8.4606,-8.5235,-8.5567,-8.6792,-8.7289,-8.7289,-8.7289,-8.7289,-8.7289,-7.5106,-7.5635,-7.5996,-7.5996,-7.5996,-7.5996,-7.602,-7.602,-7.602,-7.602,-7.602,-7.602,-7.602,-7.602,-7.602,-7.602,-7.602,-7.602,-7.5996,-7.5515,-7.4745,-7.3687,-7.311,-7.2581,-7.2076,-7.2051,-7.1546,-7.0488,-7.0488,-7.0224,-6.9695,-6.9142,-6.8901,-6.8853,-6.7771,-6.729,-6.7242,-6.6713,-6.6843,-6.7212,-6.7764,-6.8337,-6.8726,-6.927,-6.9451,-6.9451,-6.9451,-6.9451,-6.9451,-6.9451,-6.9451,-6.9451,-6.9451,-7.063,-7.2384,-7.3487,-7.5131,-7.6836,-7.8059,-7.8407,-7.8088,-7.6782,-7.6462,-7.6637,-7.7246,-7.7391,-7.7391,-7.7391,-7.7391,-7.7217,-7.6579,-7.5388,-7.4111,-7.2834,-7.2108,-7.1237,-6.9989,-7.0337,-7.0744,-7.0744,-7.0744,-7.0482,-6.9844,-6.9786,-6.9786,-6.9786,-7.1787,-7.3761,-7.5784,-7.4626,-7.4825,-7.6892,-7.7591,-7.8831,-8.0896,-8.0301,-8.0917,-8.2883,-8.2883,-8.2883,-8.2883,-8.2916,-8.2916,-8.2916,-8.2916,-8.3347,-8.4076,-8.4805,-8.5533,-8.6229,-8.6991,-8.7289,-8.7289,-8.7289,-8.7289,-8.7289,-7.2851,-7.3958,-7.4475,-7.3645,-7.4574,-7.5587,-7.5947,-7.602,-7.602,-7.602,-7.602,-7.602,-7.602,-7.602,-7.602,-7.602,-7.602,-7.5707,-7.4961,-7.4769,-7.4192,-7.311,-7.2893,-7.2581,-7.2076,-7.1691,-7.1162,-7.0488,-7.0488,-7.0224,-6.9695,-6.9142,-6.8901,-6.8877,-6.818,-6.765,-6.7266,-6.7121,-6.7205,-6.7212,-6.7764,-6.8337,-6.8726,-6.927,-6.9451,-6.9451,-6.9451,-6.9451,-6.9451,-6.9451,-6.9451,-6.9451,-6.9451,-6.9786,-7.0706,-7.3148,-7.4304,-7.5185,-7.7748,-7.8407,-7.8204,-7.7333,-7.7478,-7.7624,-7.6898,-7.7101,-7.7275,-7.684,-7.6753,-7.6666,-7.6491,-7.5766,-7.4924,-7.4082,-7.3443,-7.2892,-7.2515,-7.2224,-7.2224,-7.2689,-7.1934,-7.1324,-7.1121,-7.0715,-7.0563,-7.0838,-7.319,-7.5058,-7.5846,-7.5487,-7.5824,-7.6892,-7.7591,-7.8831,-8.0896,-8.1672,-8.2312,-8.2883,-8.2883,-8.2883,-8.2916,-8.3446,-8.3678,-8.3711,-8.4241,-8.4573,-8.4838,-8.5567,-8.5964,-8.6229,-8.6991,-8.7289,-8.7289,-8.7289,-8.7289,-8.7289,-7.1206,-7.2102,-7.2876,-7.1966,-7.2684,-7.3982,-7.5399,-7.5707,-7.5779,-7.5996,-7.602,-7.602,-7.602,-7.602,-7.602,-7.602,-7.5827,-7.5346,-7.448,-7.4432,-7.3951,-7.2869,-7.3013,-7.2893,-7.2364,-7.2051,-7.1522,-7.0801,-7.0801,-7.0512,-7.0007,-6.9671,-6.9526,-6.9502,-6.8973,-6.8444,-6.7915,-6.7699,-6.7477,-6.7343,-6.8107,-6.8352,-6.8519,-6.9089,-6.9451,-6.9451,-6.9451,-6.9451,-6.9476,-6.9702,-6.9777,-6.9727,-6.9526,-7.0477,-7.1913,-7.3756,-7.5351,-7.6773,-7.8595,-7.9162,-7.8988,-7.832,-7.8291,-7.8204,-7.742,-7.7507,-7.7624,-7.6956,-7.684,-7.6753,-7.6491,-7.6143,-7.5766,-7.5359,-7.4982,-7.475,-7.475,-7.4169,-7.3908,-7.4314,-7.324,-7.234,-7.2079,-7.1469,-7.1727,-7.337,-7.5326,-7.6763,-7.7873,-7.737,-7.7334,-7.7641,-7.8624,-7.9725,-8.0928,-8.228,-8.2883,-8.2883,-8.3215,-8.3347,-8.3347,-8.4109,-8.444,-8.4473,-8.4904,-8.5268,-8.5567,-8.5997,-8.6328,-8.666,-8.709,-8.7289,-8.7289,-8.7289,-8.7289,-8.7289,-6.9601,-7.0155,-7.0475,-7.0543,-7.0757,-7.1983,-7.4475,-7.504,-7.5466,-7.5947,-7.602,-7.602,-7.602,-7.602,-7.602,-7.602,-7.5539,-7.501,-7.4529,-7.4408,-7.3927,-7.2917,-7.3374,-7.3398,-7.2893,-7.2821,-7.2316,-7.133,-7.1282,-7.0993,-7.0488,-7.0488,-7.0488,-7.0464,-7.0031,-6.9502,-6.8949,-6.8468,-6.7915,-6.755,-6.8509,-6.8586,-6.8302,-6.9214,-6.9602,-6.9602,-6.9602,-6.9602,-6.9652,-7.0104,-7.0255,-7.0154,-6.9627,-7.1816,-7.4696,-7.4866,-7.7418,-8.0136,-8.0294,-8.0294,-8.0149,-7.954,-7.893,-7.8465,-7.8349,-7.8349,-7.8204,-7.7478,-7.7333,-7.713,-7.6579,-7.6462,-7.6462,-7.6462,-7.6462,-7.6462,-7.6462,-7.5911,-7.5504,-7.5504,-7.443,-7.3443,-7.2834,-7.2337,-7.3474,-7.668,-7.762,-7.8911,-8.0777,-7.9777,-7.9004,-7.8879,-8.0142,-8.0928,-8.0928,-8.228,-8.2883,-8.2916,-8.3645,-8.401,-8.4043,-8.4838,-8.5202,-8.5202,-8.5268,-8.5666,-8.6262,-8.6262,-8.666,-8.7289,-8.7289,-8.7289,-8.7289,-8.7289,-8.7289,-8.7289,-6.5484,-6.6429,-6.7342,-6.6323,-6.8783,-7.1321,-7.228,-7.4456,-7.5875,-7.5996,-7.602,-7.602,-7.602,-7.602,-7.602,-7.602,-7.5539,-7.5178,-7.5058,-7.4288,-7.3711,-7.347,-7.3591,-7.3591,-7.347,-7.3037,-7.2508,-7.1883,-7.1474,-7.0993,-7.0488,-7.0488,-7.0488,-7.0488,-7.0801,-7.0392,-6.9502,-6.9406,-6.8805,-6.7939,-6.9047,-6.9348,-6.9411,-7.0363,-7.0732,-7.0732,-7.0732,-7.0732,-7.0681,-7.0355,-7.0255,-7.0154,-6.9627,-7.0986,-7.301,-7.4527,-7.6401,-7.8423,-7.9949,-8.0294,-8.0265,-8.012,-7.9598,-7.8843,-7.7856,-7.803,-7.8059,-7.6898,-7.6666,-7.6637,-7.6491,-7.6462,-7.6462,-7.6462,-7.6462,-7.6462,-7.6462,-7.5911,-7.5504,-7.5504,-7.4808,-7.4256,-7.4111,-7.4757,-7.6001,-7.7458,-7.9033,-8.0175,-8.0896,-8.0657,-8.0021,-7.8879,-8.0142,-8.0928,-8.0928,-8.228,-8.2883,-8.2916,-8.3645,-8.401,-8.4043,-8.5335,-8.5931,-8.5964,-8.656,-8.6892,-8.7024,-8.7024,-8.7123,-8.7289,-8.7289,-8.7289,-8.7289,-8.7289,-8.7289,-8.7289,-6.348,-6.3993,-6.441,-6.3791,-6.5619,-6.8123,-7.1032,-7.2871,-7.4408,-7.5759,-7.602,-7.602,-7.602,-7.602,-7.602,-7.602,-7.5539,-7.5106,-7.4865,-7.4096,-7.3639,-7.3639,-7.3639,-7.3759,-7.4024,-7.3494,-7.2941,-7.2412,-7.1907,-7.1498,-7.1234,-7.1234,-7.1234,-7.1234,-7.1258,-7.0825,-7.0055,-6.9815,-6.9238,-6.8492,-6.9609,-6.9815,-6.9757,-7.0713,-7.1083,-7.1083,-7.1083,-7.1083,-7.1008,-7.0455,-7.0255,-7.0154,-6.9627,-7.1314,-7.3673,-7.4696,-7.6732,-7.9038,-7.9573,-8.0062,-8.0207,-7.9888,-7.9801,-7.9452,-7.8175,-7.7914,-7.7653,-7.6666,-7.6462,-7.6462,-7.6462,-7.6462,-7.6462,-7.6462,-7.6462,-7.6462,-7.6462,-7.6172,-7.5969,-7.5969,-7.5388,-7.513,-7.5504,-7.7608,-7.9078,-7.97,-8.1382,-8.2563,-8.2832,-8.295,-8.2563,-8.1932,-8.2236,-8.2589,-8.295,-8.3235,-8.3612,-8.3943,-8.4341,-8.4705,-8.507,-8.6196,-8.6693,-8.6726,-8.709,-8.7289,-8.7289,-8.7289,-8.7289,-8.7289,-8.7289,-8.7289,-8.7289,-8.7289,-8.7289,-8.7289,-6.2083,-6.2083,-6.2083,-6.2083,-6.2832,-6.4705,-6.912,-7.0931,-7.2535,-7.5049,-7.5783,-7.602,-7.602,-7.602,-7.602,-7.602,-7.5539,-7.5034,-7.4601,-7.4072,-7.3783,-7.3783,-7.3783,-7.4024,-7.4553,-7.3951,-7.3422,-7.2965,-7.234,-7.2051,-7.2051,-7.2051,-7.2051,-7.2051,-7.1691,-7.1186,-7.0584,-7.0152,-6.9598,-6.9045,-6.9981,-7.0282,-7.0028,-7.0988,-7.1359,-7.1359,-7.1359,-7.1359,-7.1259,-7.0631,-7.0405,-7.0305,-6.9652,-7.1992,-7.4866,-7.4866,-7.7418,-8.0178,-7.9627,-7.9888,-8.0149,-7.9481,-7.9627,-7.9656,-7.8494,-7.7885,-7.7362,-7.6608,-7.6462,-7.6462,-7.6462,-7.6462,-7.6462,-7.6462,-7.6462,-7.6462,-7.6462,-7.6462,-7.6462,-7.6462,-7.6267,-7.6387,-7.7214,-7.995,-8.1729,-8.1947,-8.3551,-8.472,-8.5103,-8.5103,-8.5103,-8.5103,-8.4506,-8.4473,-8.5103,-8.4506,-8.4573,-8.5302,-8.5302,-8.56,-8.6196,-8.6925,-8.7289,-8.7289,-8.7289,-8.7289,-8.7289,-8.7289,-8.7289,-8.7289,-8.7289,-8.7289,-8.7289,-8.7289,-8.7289,-8.7289,-6.0138,-6.0138,-6.0138,-6.0138,-6.1949,-6.3646,-6.4749,-6.8721,-7.2081,-7.2805,-7.4669,-7.602,-7.602,-7.602,-7.602,-7.602,-7.5539,-7.5202,-7.513,-7.4625,-7.4336,-7.4336,-7.4336,-7.4577,-7.5106,-7.4144,-7.3615,-7.3543,-7.2532,-7.2051,-7.2051,-7.2051,-7.2051,-7.2076,-7.2436,-7.2076,-7.1162,-7.109,-7.0488,-6.9574,-7.0156,-7.0661,-7.097,-7.1567,-7.2137,-7.2514,-7.2514,-7.2514,-7.2339,-7.1309,-7.0958,-7.0807,-6.9777,-7.1992,-7.4866,-7.4866,-7.7418,-8.0265,-8.0178,-8.0236,-8.0149,-7.9481,-7.8988,-7.8465,-7.7711,-7.7914,-7.7914,-7.6695,-7.6462,-7.6462,-7.6462,-7.6462,-7.6462,-7.6462,-7.6462,-7.6462,-7.6462,-7.6462,-7.6462,-7.6462,-7.7505,-7.8566,-7.9376,-8.0932,-8.1983,-8.2011,-8.3398,-8.4485,-8.5103,-8.5103,-8.5103,-8.5103,-8.5003,-8.5003,-8.5103,-8.5003,-8.5302,-8.603,-8.603,-8.6063,-8.6196,-8.6925,-8.7289,-8.7289,-8.7289,-8.7289,-8.7289,-8.7289,-8.7289,-8.7289,-8.7289,-8.7289,-8.7289,-8.7289,-8.7289,-8.7289,-5.9473,-5.9473,-5.9473,-5.9473,-6.0508,-6.1908,-6.3636,-6.608,-6.8547,-7.0158,-7.244,-7.4001,-7.4001,-7.512,-7.602,-7.602,-7.5803,-7.5539,-7.525,-7.501,-7.4865,-7.4865,-7.4865,-7.513,-7.5659,-7.4913,-7.4384,-7.4096,-7.3013,-7.2484,-7.2484,-7.2484,-7.2484,-7.2484,-7.2412,-7.2124,-7.1667,-7.109,-7.056,-7.0103,-7.0374,-7.0639,-7.1192,-7.179,-7.2361,-7.269,-7.2389,-7.2062,-7.1686,-7.0882,-7.043,-7.0079,-6.9602,-7.1314,-7.3501,-7.4527,-7.6732,-7.8877,-7.9515,-8.0004,-8.0149,-7.9481,-7.9104,-7.8727,-7.8117,-7.7914,-7.7595,-7.6666,-7.6462,-7.6462,-7.6462,-7.6462,-7.6462,-7.6462,-7.6462,-7.6462,-7.6462,-7.6462,-7.6462,-7.6462,-7.8555,-8.0078,-8.0463,-8.2739,-8.4212,-8.4388,-8.5155,-8.5821,-8.6328,-8.6328,-8.6328,-8.6328,-8.5931,-8.5898,-8.6295,-8.5898,-8.6063,-8.6792,-8.6792,-8.6792,-8.6792,-8.7123,-8.7289,-8.7289,-8.7289,-8.7289,-8.7289,-8.7289,-8.7289,-8.7289,-8.7289,-8.7289,-8.7289,-8.7289,-8.7289,-8.7289]}]]